<?xml version="1.0" encoding="UTF-8" standalone="no" ?>
<gpx xmlns="http://www.topografix.com/GPX/1/1" xmlns:xsi="http://www.w3.org/2001/XMLSchema-instance" xsi:schemaLocation="http://www.topografix.com/GPX/1/1 http://www.topografix.com/GPX/1/1/gpx.xsd" version="1.1" creator="VisuGPX - https://www.visugpx.com">
  <metadata>
    <name>Lac Bénit</name>
  </metadata>
  <trk>
    <name><![CDATA[Mont-Saxonnex Randonnée pédestre]]></name>
    <trkseg>
      <trkpt lat="46.04124" lon="6.48763">
        <ele>1130</ele>
        <time>2019-08-29T16:36:20.000Z</time>
      </trkpt>
      <trkpt lat="46.04123" lon="6.48761">
        <ele>1130</ele>
        <time>2019-08-29T16:36:21.000Z</time>
      </trkpt>
      <trkpt lat="46.04122" lon="6.48758">
        <ele>1130</ele>
        <time>2019-08-29T16:36:23.000Z</time>
      </trkpt>
      <trkpt lat="46.04121" lon="6.48756">
        <ele>1130.1999511719</ele>
        <time>2019-08-29T16:36:25.000Z</time>
      </trkpt>
      <trkpt lat="46.04121" lon="6.4875">
        <ele>1130.5999755859</ele>
        <time>2019-08-29T16:36:30.000Z</time>
      </trkpt>
      <trkpt lat="46.04128" lon="6.48751">
        <ele>1130.1999511719</ele>
        <time>2019-08-29T16:36:40.000Z</time>
      </trkpt>
      <trkpt lat="46.04132" lon="6.48759">
        <ele>1131</ele>
        <time>2019-08-29T16:36:47.000Z</time>
      </trkpt>
      <trkpt lat="46.04133" lon="6.48761">
        <ele>1131</ele>
        <time>2019-08-29T16:36:49.000Z</time>
      </trkpt>
      <trkpt lat="46.04136" lon="6.48771">
        <ele>1132</ele>
        <time>2019-08-29T16:36:56.000Z</time>
      </trkpt>
      <trkpt lat="46.04138" lon="6.48776">
        <ele>1133.1999511719</ele>
        <time>2019-08-29T16:37:00.000Z</time>
      </trkpt>
      <trkpt lat="46.04138" lon="6.4878">
        <ele>1134</ele>
        <time>2019-08-29T16:37:03.000Z</time>
      </trkpt>
      <trkpt lat="46.04138" lon="6.48783">
        <ele>1134.5999755859</ele>
        <time>2019-08-29T16:37:05.000Z</time>
      </trkpt>
      <trkpt lat="46.04138" lon="6.48786">
        <ele>1134.8000488281</ele>
        <time>2019-08-29T16:37:07.000Z</time>
      </trkpt>
      <trkpt lat="46.04138" lon="6.48789">
        <ele>1135.5999755859</ele>
        <time>2019-08-29T16:37:10.000Z</time>
      </trkpt>
      <trkpt lat="46.04138" lon="6.4879">
        <ele>1135.8000488281</ele>
        <time>2019-08-29T16:37:11.000Z</time>
      </trkpt>
      <trkpt lat="46.04138" lon="6.48791">
        <ele>1135.8000488281</ele>
        <time>2019-08-29T16:37:12.000Z</time>
      </trkpt>
      <trkpt lat="46.04139" lon="6.48795">
        <ele>1136.5999755859</ele>
        <time>2019-08-29T16:37:17.000Z</time>
      </trkpt>
      <trkpt lat="46.0414" lon="6.48797">
        <ele>1137.4000244141</ele>
        <time>2019-08-29T16:37:21.000Z</time>
      </trkpt>
      <trkpt lat="46.0414" lon="6.48797">
        <ele>1137.5999755859</ele>
        <time>2019-08-29T16:37:22.000Z</time>
      </trkpt>
      <trkpt lat="46.04141" lon="6.48799">
        <ele>1137.8000488281</ele>
        <time>2019-08-29T16:37:24.000Z</time>
      </trkpt>
      <trkpt lat="46.04142" lon="6.488">
        <ele>1138.1999511719</ele>
        <time>2019-08-29T16:37:27.000Z</time>
      </trkpt>
      <trkpt lat="46.04143" lon="6.488">
        <ele>1138.4000244141</ele>
        <time>2019-08-29T16:37:32.000Z</time>
      </trkpt>
      <trkpt lat="46.04143" lon="6.488">
        <ele>1138.4000244141</ele>
        <time>2019-08-29T16:37:33.000Z</time>
      </trkpt>
      <trkpt lat="46.04142" lon="6.48799">
        <ele>1138.1999511719</ele>
        <time>2019-08-29T16:37:39.000Z</time>
      </trkpt>
      <trkpt lat="46.04144" lon="6.48798">
        <ele>1138.4000244141</ele>
        <time>2019-08-29T16:37:42.000Z</time>
      </trkpt>
      <trkpt lat="46.04146" lon="6.48797">
        <ele>1138.1999511719</ele>
        <time>2019-08-29T16:37:50.000Z</time>
      </trkpt>
      <trkpt lat="46.04146" lon="6.48797">
        <ele>1138.4000244141</ele>
        <time>2019-08-29T16:37:53.000Z</time>
      </trkpt>
      <trkpt lat="46.04152" lon="6.48799">
        <ele>1138.4000244141</ele>
        <time>2019-08-29T16:37:56.000Z</time>
      </trkpt>
      <trkpt lat="46.04152" lon="6.48798">
        <ele>1138.4000244141</ele>
        <time>2019-08-29T16:37:58.000Z</time>
      </trkpt>
      <trkpt lat="46.04153" lon="6.48798">
        <ele>1138</ele>
        <time>2019-08-29T16:38:01.000Z</time>
      </trkpt>
      <trkpt lat="46.04155" lon="6.48796">
        <ele>1137.1999511719</ele>
        <time>2019-08-29T16:38:07.000Z</time>
      </trkpt>
      <trkpt lat="46.04157" lon="6.48797">
        <ele>1138</ele>
        <time>2019-08-29T16:38:11.000Z</time>
      </trkpt>
      <trkpt lat="46.04163" lon="6.48797">
        <ele>1138.1999511719</ele>
        <time>2019-08-29T16:38:19.000Z</time>
      </trkpt>
      <trkpt lat="46.04171" lon="6.48799">
        <ele>1138.1999511719</ele>
        <time>2019-08-29T16:38:28.000Z</time>
      </trkpt>
      <trkpt lat="46.0417" lon="6.48795">
        <ele>1138.1999511719</ele>
        <time>2019-08-29T16:38:32.000Z</time>
      </trkpt>
      <trkpt lat="46.04171" lon="6.48792">
        <ele>1138.1999511719</ele>
        <time>2019-08-29T16:38:37.000Z</time>
      </trkpt>
      <trkpt lat="46.04176" lon="6.48791">
        <ele>1138.1999511719</ele>
        <time>2019-08-29T16:38:44.000Z</time>
      </trkpt>
      <trkpt lat="46.04183" lon="6.48794">
        <ele>1138.4000244141</ele>
        <time>2019-08-29T16:38:50.000Z</time>
      </trkpt>
      <trkpt lat="46.04184" lon="6.48794">
        <ele>1138.5999755859</ele>
        <time>2019-08-29T16:38:52.000Z</time>
      </trkpt>
      <trkpt lat="46.04185" lon="6.48794">
        <ele>1138.8000488281</ele>
        <time>2019-08-29T16:38:53.000Z</time>
      </trkpt>
      <trkpt lat="46.04187" lon="6.48795">
        <ele>1139.1999511719</ele>
        <time>2019-08-29T16:38:55.000Z</time>
      </trkpt>
      <trkpt lat="46.0419" lon="6.48795">
        <ele>1139.5999755859</ele>
        <time>2019-08-29T16:38:57.000Z</time>
      </trkpt>
      <trkpt lat="46.04191" lon="6.48795">
        <ele>1139.8000488281</ele>
        <time>2019-08-29T16:38:58.000Z</time>
      </trkpt>
      <trkpt lat="46.04192" lon="6.48795">
        <ele>1140</ele>
        <time>2019-08-29T16:39:00.000Z</time>
      </trkpt>
      <trkpt lat="46.04196" lon="6.48797">
        <ele>1141</ele>
        <time>2019-08-29T16:39:04.000Z</time>
      </trkpt>
      <trkpt lat="46.04196" lon="6.48798">
        <ele>1141</ele>
        <time>2019-08-29T16:39:05.000Z</time>
      </trkpt>
      <trkpt lat="46.04198" lon="6.48799">
        <ele>1141.1999511719</ele>
        <time>2019-08-29T16:39:07.000Z</time>
      </trkpt>
      <trkpt lat="46.04199" lon="6.48801">
        <ele>1141.5999755859</ele>
        <time>2019-08-29T16:39:08.000Z</time>
      </trkpt>
      <trkpt lat="46.04199" lon="6.48802">
        <ele>1141.5999755859</ele>
        <time>2019-08-29T16:39:09.000Z</time>
      </trkpt>
      <trkpt lat="46.042" lon="6.48804">
        <ele>1141.8000488281</ele>
        <time>2019-08-29T16:39:10.000Z</time>
      </trkpt>
      <trkpt lat="46.042" lon="6.48806">
        <ele>1142.1999511719</ele>
        <time>2019-08-29T16:39:11.000Z</time>
      </trkpt>
      <trkpt lat="46.04201" lon="6.48807">
        <ele>1142.1999511719</ele>
        <time>2019-08-29T16:39:12.000Z</time>
      </trkpt>
      <trkpt lat="46.04201" lon="6.48811">
        <ele>1142.5999755859</ele>
        <time>2019-08-29T16:39:14.000Z</time>
      </trkpt>
      <trkpt lat="46.042" lon="6.48814">
        <ele>1143</ele>
        <time>2019-08-29T16:39:17.000Z</time>
      </trkpt>
      <trkpt lat="46.04199" lon="6.48815">
        <ele>1143.1999511719</ele>
        <time>2019-08-29T16:39:18.000Z</time>
      </trkpt>
      <trkpt lat="46.04198" lon="6.48817">
        <ele>1143.4000244141</ele>
        <time>2019-08-29T16:39:19.000Z</time>
      </trkpt>
      <trkpt lat="46.04197" lon="6.48821">
        <ele>1143.8000488281</ele>
        <time>2019-08-29T16:39:21.000Z</time>
      </trkpt>
      <trkpt lat="46.04195" lon="6.48824">
        <ele>1144.1999511719</ele>
        <time>2019-08-29T16:39:23.000Z</time>
      </trkpt>
      <trkpt lat="46.04194" lon="6.48825">
        <ele>1144.4000244141</ele>
        <time>2019-08-29T16:39:24.000Z</time>
      </trkpt>
      <trkpt lat="46.04191" lon="6.48829">
        <ele>1144.8000488281</ele>
        <time>2019-08-29T16:39:27.000Z</time>
      </trkpt>
      <trkpt lat="46.04189" lon="6.48832">
        <ele>1145.1999511719</ele>
        <time>2019-08-29T16:39:29.000Z</time>
      </trkpt>
      <trkpt lat="46.04187" lon="6.48835">
        <ele>1145.5999755859</ele>
        <time>2019-08-29T16:39:31.000Z</time>
      </trkpt>
      <trkpt lat="46.04185" lon="6.48839">
        <ele>1146.1999511719</ele>
        <time>2019-08-29T16:39:34.000Z</time>
      </trkpt>
      <trkpt lat="46.04185" lon="6.4884">
        <ele>1146.4000244141</ele>
        <time>2019-08-29T16:39:35.000Z</time>
      </trkpt>
      <trkpt lat="46.04184" lon="6.48841">
        <ele>1146.5999755859</ele>
        <time>2019-08-29T16:39:36.000Z</time>
      </trkpt>
      <trkpt lat="46.04182" lon="6.48847">
        <ele>1147.4000244141</ele>
        <time>2019-08-29T16:39:41.000Z</time>
      </trkpt>
      <trkpt lat="46.04179" lon="6.48853">
        <ele>1148</ele>
        <time>2019-08-29T16:39:45.000Z</time>
      </trkpt>
      <trkpt lat="46.04177" lon="6.48855">
        <ele>1148.4000244141</ele>
        <time>2019-08-29T16:39:47.000Z</time>
      </trkpt>
      <trkpt lat="46.04176" lon="6.48856">
        <ele>1148.4000244141</ele>
        <time>2019-08-29T16:39:48.000Z</time>
      </trkpt>
      <trkpt lat="46.04175" lon="6.48859">
        <ele>1148.8000488281</ele>
        <time>2019-08-29T16:39:50.000Z</time>
      </trkpt>
      <trkpt lat="46.04171" lon="6.48862">
        <ele>1149.4000244141</ele>
        <time>2019-08-29T16:39:54.000Z</time>
      </trkpt>
      <trkpt lat="46.0417" lon="6.48862">
        <ele>1149.5999755859</ele>
        <time>2019-08-29T16:39:55.000Z</time>
      </trkpt>
      <trkpt lat="46.04165" lon="6.48867">
        <ele>1150.1999511719</ele>
        <time>2019-08-29T16:40:00.000Z</time>
      </trkpt>
      <trkpt lat="46.04162" lon="6.48871">
        <ele>1150.5999755859</ele>
        <time>2019-08-29T16:40:03.000Z</time>
      </trkpt>
      <trkpt lat="46.04158" lon="6.48875">
        <ele>1151.1999511719</ele>
        <time>2019-08-29T16:40:07.000Z</time>
      </trkpt>
      <trkpt lat="46.04158" lon="6.48875">
        <ele>1151.1999511719</ele>
        <time>2019-08-29T16:40:08.000Z</time>
      </trkpt>
      <trkpt lat="46.04157" lon="6.48876">
        <ele>1151.4000244141</ele>
        <time>2019-08-29T16:40:09.000Z</time>
      </trkpt>
      <trkpt lat="46.04156" lon="6.48877">
        <ele>1151.8000488281</ele>
        <time>2019-08-29T16:40:10.000Z</time>
      </trkpt>
      <trkpt lat="46.04155" lon="6.4888">
        <ele>1152.5999755859</ele>
        <time>2019-08-29T16:40:13.000Z</time>
      </trkpt>
      <trkpt lat="46.04155" lon="6.48881">
        <ele>1152.8000488281</ele>
        <time>2019-08-29T16:40:14.000Z</time>
      </trkpt>
      <trkpt lat="46.04157" lon="6.48883">
        <ele>1153.1999511719</ele>
        <time>2019-08-29T16:40:17.000Z</time>
      </trkpt>
      <trkpt lat="46.04158" lon="6.48883">
        <ele>1153.8000488281</ele>
        <time>2019-08-29T16:40:20.000Z</time>
      </trkpt>
      <trkpt lat="46.04159" lon="6.48881">
        <ele>1154</ele>
        <time>2019-08-29T16:40:21.000Z</time>
      </trkpt>
      <trkpt lat="46.04161" lon="6.48878">
        <ele>1154.4000244141</ele>
        <time>2019-08-29T16:40:23.000Z</time>
      </trkpt>
      <trkpt lat="46.04166" lon="6.48877">
        <ele>1155</ele>
        <time>2019-08-29T16:40:27.000Z</time>
      </trkpt>
      <trkpt lat="46.04175" lon="6.48873">
        <ele>1156</ele>
        <time>2019-08-29T16:40:36.000Z</time>
      </trkpt>
      <trkpt lat="46.04176" lon="6.48874">
        <ele>1156.1999511719</ele>
        <time>2019-08-29T16:40:37.000Z</time>
      </trkpt>
      <trkpt lat="46.04179" lon="6.48876">
        <ele>1156.8000488281</ele>
        <time>2019-08-29T16:40:41.000Z</time>
      </trkpt>
      <trkpt lat="46.0418" lon="6.48877">
        <ele>1157.1999511719</ele>
        <time>2019-08-29T16:40:43.000Z</time>
      </trkpt>
      <trkpt lat="46.04181" lon="6.48878">
        <ele>1157.5999755859</ele>
        <time>2019-08-29T16:40:44.000Z</time>
      </trkpt>
      <trkpt lat="46.04184" lon="6.48879">
        <ele>1158.1999511719</ele>
        <time>2019-08-29T16:40:47.000Z</time>
      </trkpt>
      <trkpt lat="46.04186" lon="6.4888">
        <ele>1158.5999755859</ele>
        <time>2019-08-29T16:40:49.000Z</time>
      </trkpt>
      <trkpt lat="46.04187" lon="6.4888">
        <ele>1158.8000488281</ele>
        <time>2019-08-29T16:40:50.000Z</time>
      </trkpt>
      <trkpt lat="46.04188" lon="6.4888">
        <ele>1158.8000488281</ele>
        <time>2019-08-29T16:40:51.000Z</time>
      </trkpt>
      <trkpt lat="46.0419" lon="6.48882">
        <ele>1159.4000244141</ele>
        <time>2019-08-29T16:40:54.000Z</time>
      </trkpt>
      <trkpt lat="46.0419" lon="6.48883">
        <ele>1159.4000244141</ele>
        <time>2019-08-29T16:40:55.000Z</time>
      </trkpt>
      <trkpt lat="46.04192" lon="6.48884">
        <ele>1159.5999755859</ele>
        <time>2019-08-29T16:40:56.000Z</time>
      </trkpt>
      <trkpt lat="46.04193" lon="6.48885">
        <ele>1159.8000488281</ele>
        <time>2019-08-29T16:40:57.000Z</time>
      </trkpt>
      <trkpt lat="46.04196" lon="6.48887">
        <ele>1160.1999511719</ele>
        <time>2019-08-29T16:40:59.000Z</time>
      </trkpt>
      <trkpt lat="46.04199" lon="6.48889">
        <ele>1160.5999755859</ele>
        <time>2019-08-29T16:41:01.000Z</time>
      </trkpt>
      <trkpt lat="46.042" lon="6.4889">
        <ele>1160.8000488281</ele>
        <time>2019-08-29T16:41:02.000Z</time>
      </trkpt>
      <trkpt lat="46.042" lon="6.48892">
        <ele>1161</ele>
        <time>2019-08-29T16:41:03.000Z</time>
      </trkpt>
      <trkpt lat="46.04201" lon="6.48895">
        <ele>1161.4000244141</ele>
        <time>2019-08-29T16:41:05.000Z</time>
      </trkpt>
      <trkpt lat="46.04202" lon="6.489">
        <ele>1161.8000488281</ele>
        <time>2019-08-29T16:41:08.000Z</time>
      </trkpt>
      <trkpt lat="46.04202" lon="6.48903">
        <ele>1162.1999511719</ele>
        <time>2019-08-29T16:41:10.000Z</time>
      </trkpt>
      <trkpt lat="46.04203" lon="6.48907">
        <ele>1162.5999755859</ele>
        <time>2019-08-29T16:41:14.000Z</time>
      </trkpt>
      <trkpt lat="46.04203" lon="6.48907">
        <ele>1162.5999755859</ele>
        <time>2019-08-29T16:41:15.000Z</time>
      </trkpt>
      <trkpt lat="46.04202" lon="6.48908">
        <ele>1162.5999755859</ele>
        <time>2019-08-29T16:41:16.000Z</time>
      </trkpt>
      <trkpt lat="46.04201" lon="6.48908">
        <ele>1162.5999755859</ele>
        <time>2019-08-29T16:41:17.000Z</time>
      </trkpt>
      <trkpt lat="46.04199" lon="6.48909">
        <ele>1162.8000488281</ele>
        <time>2019-08-29T16:41:21.000Z</time>
      </trkpt>
      <trkpt lat="46.04199" lon="6.48911">
        <ele>1160.5999755859</ele>
        <time>2019-08-29T16:41:23.000Z</time>
      </trkpt>
      <trkpt lat="46.04199" lon="6.48912">
        <ele>1160.5999755859</ele>
        <time>2019-08-29T16:41:24.000Z</time>
      </trkpt>
      <trkpt lat="46.04199" lon="6.48913">
        <ele>1160.8000488281</ele>
        <time>2019-08-29T16:41:25.000Z</time>
      </trkpt>
      <trkpt lat="46.042" lon="6.48914">
        <ele>1158.8000488281</ele>
        <time>2019-08-29T16:41:26.000Z</time>
      </trkpt>
      <trkpt lat="46.04201" lon="6.48916">
        <ele>1158.5999755859</ele>
        <time>2019-08-29T16:41:30.000Z</time>
      </trkpt>
      <trkpt lat="46.04201" lon="6.48916">
        <ele>1158.1999511719</ele>
        <time>2019-08-29T16:41:31.000Z</time>
      </trkpt>
      <trkpt lat="46.04202" lon="6.48916">
        <ele>1158.5999755859</ele>
        <time>2019-08-29T16:41:32.000Z</time>
      </trkpt>
      <trkpt lat="46.04203" lon="6.48916">
        <ele>1158.4000244141</ele>
        <time>2019-08-29T16:41:34.000Z</time>
      </trkpt>
      <trkpt lat="46.04204" lon="6.48916">
        <ele>1158.4000244141</ele>
        <time>2019-08-29T16:41:35.000Z</time>
      </trkpt>
      <trkpt lat="46.04207" lon="6.48917">
        <ele>1159.8000488281</ele>
        <time>2019-08-29T16:41:38.000Z</time>
      </trkpt>
      <trkpt lat="46.04208" lon="6.48917">
        <ele>1159.5999755859</ele>
        <time>2019-08-29T16:41:39.000Z</time>
      </trkpt>
      <trkpt lat="46.0421" lon="6.48918">
        <ele>1159.5999755859</ele>
        <time>2019-08-29T16:41:41.000Z</time>
      </trkpt>
      <trkpt lat="46.04213" lon="6.48918">
        <ele>1160</ele>
        <time>2019-08-29T16:41:43.000Z</time>
      </trkpt>
      <trkpt lat="46.04214" lon="6.48919">
        <ele>1160.1999511719</ele>
        <time>2019-08-29T16:41:44.000Z</time>
      </trkpt>
      <trkpt lat="46.04217" lon="6.48921">
        <ele>1160.8000488281</ele>
        <time>2019-08-29T16:41:49.000Z</time>
      </trkpt>
      <trkpt lat="46.04218" lon="6.48921">
        <ele>1161.1999511719</ele>
        <time>2019-08-29T16:41:50.000Z</time>
      </trkpt>
      <trkpt lat="46.04224" lon="6.48925">
        <ele>1161.8000488281</ele>
        <time>2019-08-29T16:41:56.000Z</time>
      </trkpt>
      <trkpt lat="46.04229" lon="6.48924">
        <ele>1160.8000488281</ele>
        <time>2019-08-29T16:42:04.000Z</time>
      </trkpt>
      <trkpt lat="46.04234" lon="6.48927">
        <ele>1162.4000244141</ele>
        <time>2019-08-29T16:42:09.000Z</time>
      </trkpt>
      <trkpt lat="46.04235" lon="6.48927">
        <ele>1162.5999755859</ele>
        <time>2019-08-29T16:42:10.000Z</time>
      </trkpt>
      <trkpt lat="46.04236" lon="6.48929">
        <ele>1162.5999755859</ele>
        <time>2019-08-29T16:42:12.000Z</time>
      </trkpt>
      <trkpt lat="46.04239" lon="6.48932">
        <ele>1163.1999511719</ele>
        <time>2019-08-29T16:42:16.000Z</time>
      </trkpt>
      <trkpt lat="46.0424" lon="6.48933">
        <ele>1163.4000244141</ele>
        <time>2019-08-29T16:42:18.000Z</time>
      </trkpt>
      <trkpt lat="46.04242" lon="6.48935">
        <ele>1163.5999755859</ele>
        <time>2019-08-29T16:42:20.000Z</time>
      </trkpt>
      <trkpt lat="46.04243" lon="6.48937">
        <ele>1163.8000488281</ele>
        <time>2019-08-29T16:42:22.000Z</time>
      </trkpt>
      <trkpt lat="46.04244" lon="6.48938">
        <ele>1164.1999511719</ele>
        <time>2019-08-29T16:42:23.000Z</time>
      </trkpt>
      <trkpt lat="46.04244" lon="6.4894">
        <ele>1164.8000488281</ele>
        <time>2019-08-29T16:42:25.000Z</time>
      </trkpt>
      <trkpt lat="46.04246" lon="6.48946">
        <ele>1165.4000244141</ele>
        <time>2019-08-29T16:42:29.000Z</time>
      </trkpt>
      <trkpt lat="46.04248" lon="6.48952">
        <ele>1165.8000488281</ele>
        <time>2019-08-29T16:42:32.000Z</time>
      </trkpt>
      <trkpt lat="46.04249" lon="6.48955">
        <ele>1166.4000244141</ele>
        <time>2019-08-29T16:42:34.000Z</time>
      </trkpt>
      <trkpt lat="46.04251" lon="6.48959">
        <ele>1167</ele>
        <time>2019-08-29T16:42:36.000Z</time>
      </trkpt>
      <trkpt lat="46.04252" lon="6.48963">
        <ele>1167.4000244141</ele>
        <time>2019-08-29T16:42:38.000Z</time>
      </trkpt>
      <trkpt lat="46.04254" lon="6.48971">
        <ele>1168</ele>
        <time>2019-08-29T16:42:42.000Z</time>
      </trkpt>
      <trkpt lat="46.04254" lon="6.48975">
        <ele>1168.5999755859</ele>
        <time>2019-08-29T16:42:45.000Z</time>
      </trkpt>
      <trkpt lat="46.04254" lon="6.48978">
        <ele>1169.4000244141</ele>
        <time>2019-08-29T16:42:47.000Z</time>
      </trkpt>
      <trkpt lat="46.04254" lon="6.48986">
        <ele>1170.1999511719</ele>
        <time>2019-08-29T16:42:51.000Z</time>
      </trkpt>
      <trkpt lat="46.04254" lon="6.48989">
        <ele>1170.4000244141</ele>
        <time>2019-08-29T16:42:53.000Z</time>
      </trkpt>
      <trkpt lat="46.04253" lon="6.48991">
        <ele>1170.5999755859</ele>
        <time>2019-08-29T16:42:54.000Z</time>
      </trkpt>
      <trkpt lat="46.04253" lon="6.48993">
        <ele>1171</ele>
        <time>2019-08-29T16:42:55.000Z</time>
      </trkpt>
      <trkpt lat="46.04253" lon="6.48996">
        <ele>1171.5999755859</ele>
        <time>2019-08-29T16:42:57.000Z</time>
      </trkpt>
      <trkpt lat="46.04251" lon="6.49002">
        <ele>1172.4000244141</ele>
        <time>2019-08-29T16:43:01.000Z</time>
      </trkpt>
      <trkpt lat="46.04251" lon="6.49003">
        <ele>1172.5999755859</ele>
        <time>2019-08-29T16:43:02.000Z</time>
      </trkpt>
      <trkpt lat="46.0425" lon="6.49004">
        <ele>1173</ele>
        <time>2019-08-29T16:43:03.000Z</time>
      </trkpt>
      <trkpt lat="46.04248" lon="6.49006">
        <ele>1173.4000244141</ele>
        <time>2019-08-29T16:43:05.000Z</time>
      </trkpt>
      <trkpt lat="46.04246" lon="6.49008">
        <ele>1173.8000488281</ele>
        <time>2019-08-29T16:43:07.000Z</time>
      </trkpt>
      <trkpt lat="46.04244" lon="6.49009">
        <ele>1174.4000244141</ele>
        <time>2019-08-29T16:43:09.000Z</time>
      </trkpt>
      <trkpt lat="46.04242" lon="6.49011">
        <ele>1174.5999755859</ele>
        <time>2019-08-29T16:43:11.000Z</time>
      </trkpt>
      <trkpt lat="46.04241" lon="6.49013">
        <ele>1175</ele>
        <time>2019-08-29T16:43:13.000Z</time>
      </trkpt>
      <trkpt lat="46.04237" lon="6.49018">
        <ele>1175.5999755859</ele>
        <time>2019-08-29T16:43:17.000Z</time>
      </trkpt>
      <trkpt lat="46.04236" lon="6.49019">
        <ele>1175.8000488281</ele>
        <time>2019-08-29T16:43:18.000Z</time>
      </trkpt>
      <trkpt lat="46.04234" lon="6.49021">
        <ele>1176</ele>
        <time>2019-08-29T16:43:20.000Z</time>
      </trkpt>
      <trkpt lat="46.04232" lon="6.49023">
        <ele>1176.4000244141</ele>
        <time>2019-08-29T16:43:22.000Z</time>
      </trkpt>
      <trkpt lat="46.0423" lon="6.49027">
        <ele>1177</ele>
        <time>2019-08-29T16:43:24.000Z</time>
      </trkpt>
      <trkpt lat="46.04229" lon="6.49028">
        <ele>1177.4000244141</ele>
        <time>2019-08-29T16:43:25.000Z</time>
      </trkpt>
      <trkpt lat="46.04228" lon="6.4903">
        <ele>1177.5999755859</ele>
        <time>2019-08-29T16:43:26.000Z</time>
      </trkpt>
      <trkpt lat="46.04225" lon="6.49032">
        <ele>1177.8000488281</ele>
        <time>2019-08-29T16:43:28.000Z</time>
      </trkpt>
      <trkpt lat="46.04221" lon="6.49037">
        <ele>1178.1999511719</ele>
        <time>2019-08-29T16:43:31.000Z</time>
      </trkpt>
      <trkpt lat="46.04219" lon="6.49038">
        <ele>1178.4000244141</ele>
        <time>2019-08-29T16:43:32.000Z</time>
      </trkpt>
      <trkpt lat="46.04215" lon="6.49041">
        <ele>1179</ele>
        <time>2019-08-29T16:43:35.000Z</time>
      </trkpt>
      <trkpt lat="46.04214" lon="6.49042">
        <ele>1179</ele>
        <time>2019-08-29T16:43:36.000Z</time>
      </trkpt>
      <trkpt lat="46.04214" lon="6.49044">
        <ele>1179</ele>
        <time>2019-08-29T16:43:37.000Z</time>
      </trkpt>
      <trkpt lat="46.04213" lon="6.49044">
        <ele>1179.1999511719</ele>
        <time>2019-08-29T16:43:38.000Z</time>
      </trkpt>
      <trkpt lat="46.04212" lon="6.49045">
        <ele>1179.5999755859</ele>
        <time>2019-08-29T16:43:39.000Z</time>
      </trkpt>
      <trkpt lat="46.0421" lon="6.49048">
        <ele>1180.4000244141</ele>
        <time>2019-08-29T16:43:42.000Z</time>
      </trkpt>
      <trkpt lat="46.04208" lon="6.49051">
        <ele>1180.8000488281</ele>
        <time>2019-08-29T16:43:45.000Z</time>
      </trkpt>
      <trkpt lat="46.04207" lon="6.49054">
        <ele>1181.5999755859</ele>
        <time>2019-08-29T16:43:49.000Z</time>
      </trkpt>
      <trkpt lat="46.04207" lon="6.49055">
        <ele>1181.5999755859</ele>
        <time>2019-08-29T16:43:50.000Z</time>
      </trkpt>
      <trkpt lat="46.04207" lon="6.49057">
        <ele>1181.8000488281</ele>
        <time>2019-08-29T16:43:52.000Z</time>
      </trkpt>
      <trkpt lat="46.04209" lon="6.4906">
        <ele>1182</ele>
        <time>2019-08-29T16:43:54.000Z</time>
      </trkpt>
      <trkpt lat="46.04211" lon="6.49065">
        <ele>1182.1999511719</ele>
        <time>2019-08-29T16:43:56.000Z</time>
      </trkpt>
      <trkpt lat="46.04213" lon="6.49069">
        <ele>1182.4000244141</ele>
        <time>2019-08-29T16:43:59.000Z</time>
      </trkpt>
      <trkpt lat="46.04214" lon="6.49072">
        <ele>1182.8000488281</ele>
        <time>2019-08-29T16:44:01.000Z</time>
      </trkpt>
      <trkpt lat="46.04214" lon="6.49074">
        <ele>1183.1999511719</ele>
        <time>2019-08-29T16:44:02.000Z</time>
      </trkpt>
      <trkpt lat="46.04214" lon="6.49076">
        <ele>1183.1999511719</ele>
        <time>2019-08-29T16:44:03.000Z</time>
      </trkpt>
      <trkpt lat="46.04215" lon="6.49079">
        <ele>1183.8000488281</ele>
        <time>2019-08-29T16:44:05.000Z</time>
      </trkpt>
      <trkpt lat="46.0422" lon="6.49089">
        <ele>1184.8000488281</ele>
        <time>2019-08-29T16:44:11.000Z</time>
      </trkpt>
      <trkpt lat="46.04219" lon="6.4909">
        <ele>1184.8000488281</ele>
        <time>2019-08-29T16:44:12.000Z</time>
      </trkpt>
      <trkpt lat="46.04218" lon="6.49093">
        <ele>1185.4000244141</ele>
        <time>2019-08-29T16:44:16.000Z</time>
      </trkpt>
      <trkpt lat="46.04218" lon="6.49094">
        <ele>1185.8000488281</ele>
        <time>2019-08-29T16:44:17.000Z</time>
      </trkpt>
      <trkpt lat="46.04218" lon="6.49095">
        <ele>1186</ele>
        <time>2019-08-29T16:44:18.000Z</time>
      </trkpt>
      <trkpt lat="46.04218" lon="6.49101">
        <ele>1186.8000488281</ele>
        <time>2019-08-29T16:44:22.000Z</time>
      </trkpt>
      <trkpt lat="46.04218" lon="6.49102">
        <ele>1187.1999511719</ele>
        <time>2019-08-29T16:44:23.000Z</time>
      </trkpt>
      <trkpt lat="46.04217" lon="6.49104">
        <ele>1187.4000244141</ele>
        <time>2019-08-29T16:44:24.000Z</time>
      </trkpt>
      <trkpt lat="46.04213" lon="6.4911">
        <ele>1187.4000244141</ele>
        <time>2019-08-29T16:44:25.000Z</time>
      </trkpt>
      <trkpt lat="46.04208" lon="6.4912">
        <ele>1188.1999511719</ele>
        <time>2019-08-29T16:44:29.000Z</time>
      </trkpt>
      <trkpt lat="46.04207" lon="6.49122">
        <ele>1188.4000244141</ele>
        <time>2019-08-29T16:44:30.000Z</time>
      </trkpt>
      <trkpt lat="46.04207" lon="6.49124">
        <ele>1189.1999511719</ele>
        <time>2019-08-29T16:44:33.000Z</time>
      </trkpt>
      <trkpt lat="46.04206" lon="6.49125">
        <ele>1189.4000244141</ele>
        <time>2019-08-29T16:44:34.000Z</time>
      </trkpt>
      <trkpt lat="46.04206" lon="6.49126">
        <ele>1189.5999755859</ele>
        <time>2019-08-29T16:44:36.000Z</time>
      </trkpt>
      <trkpt lat="46.04207" lon="6.49128">
        <ele>1190.4000244141</ele>
        <time>2019-08-29T16:44:39.000Z</time>
      </trkpt>
      <trkpt lat="46.04207" lon="6.49128">
        <ele>1190.8000488281</ele>
        <time>2019-08-29T16:44:40.000Z</time>
      </trkpt>
      <trkpt lat="46.04207" lon="6.49133">
        <ele>1191.5999755859</ele>
        <time>2019-08-29T16:44:43.000Z</time>
      </trkpt>
      <trkpt lat="46.04207" lon="6.49135">
        <ele>1191.8000488281</ele>
        <time>2019-08-29T16:44:44.000Z</time>
      </trkpt>
      <trkpt lat="46.04205" lon="6.49139">
        <ele>1192.5999755859</ele>
        <time>2019-08-29T16:44:47.000Z</time>
      </trkpt>
      <trkpt lat="46.04203" lon="6.49141">
        <ele>1192.8000488281</ele>
        <time>2019-08-29T16:44:48.000Z</time>
      </trkpt>
      <trkpt lat="46.04202" lon="6.49143">
        <ele>1193</ele>
        <time>2019-08-29T16:44:49.000Z</time>
      </trkpt>
      <trkpt lat="46.04201" lon="6.4915">
        <ele>1193.8000488281</ele>
        <time>2019-08-29T16:44:52.000Z</time>
      </trkpt>
      <trkpt lat="46.042" lon="6.49152">
        <ele>1194.1999511719</ele>
        <time>2019-08-29T16:44:54.000Z</time>
      </trkpt>
      <trkpt lat="46.042" lon="6.49155">
        <ele>1194.5999755859</ele>
        <time>2019-08-29T16:44:56.000Z</time>
      </trkpt>
      <trkpt lat="46.04199" lon="6.4916">
        <ele>1194.8000488281</ele>
        <time>2019-08-29T16:44:59.000Z</time>
      </trkpt>
      <trkpt lat="46.04199" lon="6.49165">
        <ele>1195</ele>
        <time>2019-08-29T16:45:03.000Z</time>
      </trkpt>
      <trkpt lat="46.04199" lon="6.49165">
        <ele>1195</ele>
        <time>2019-08-29T16:45:04.000Z</time>
      </trkpt>
      <trkpt lat="46.04199" lon="6.49168">
        <ele>1195</ele>
        <time>2019-08-29T16:45:07.000Z</time>
      </trkpt>
      <trkpt lat="46.04198" lon="6.49171">
        <ele>1195.5999755859</ele>
        <time>2019-08-29T16:45:10.000Z</time>
      </trkpt>
      <trkpt lat="46.04198" lon="6.49172">
        <ele>1195.8000488281</ele>
        <time>2019-08-29T16:45:11.000Z</time>
      </trkpt>
      <trkpt lat="46.04198" lon="6.49175">
        <ele>1196</ele>
        <time>2019-08-29T16:45:12.000Z</time>
      </trkpt>
      <trkpt lat="46.04197" lon="6.49179">
        <ele>1196.1999511719</ele>
        <time>2019-08-29T16:45:14.000Z</time>
      </trkpt>
      <trkpt lat="46.04196" lon="6.4918">
        <ele>1196.4000244141</ele>
        <time>2019-08-29T16:45:15.000Z</time>
      </trkpt>
      <trkpt lat="46.04194" lon="6.49184">
        <ele>1197</ele>
        <time>2019-08-29T16:45:18.000Z</time>
      </trkpt>
      <trkpt lat="46.04193" lon="6.49185">
        <ele>1197.1999511719</ele>
        <time>2019-08-29T16:45:19.000Z</time>
      </trkpt>
      <trkpt lat="46.04191" lon="6.49187">
        <ele>1197.5999755859</ele>
        <time>2019-08-29T16:45:21.000Z</time>
      </trkpt>
      <trkpt lat="46.0419" lon="6.49189">
        <ele>1198</ele>
        <time>2019-08-29T16:45:23.000Z</time>
      </trkpt>
      <trkpt lat="46.0419" lon="6.49191">
        <ele>1198.1999511719</ele>
        <time>2019-08-29T16:45:24.000Z</time>
      </trkpt>
      <trkpt lat="46.04189" lon="6.49192">
        <ele>1198.4000244141</ele>
        <time>2019-08-29T16:45:25.000Z</time>
      </trkpt>
      <trkpt lat="46.04188" lon="6.49194">
        <ele>1198.5999755859</ele>
        <time>2019-08-29T16:45:26.000Z</time>
      </trkpt>
      <trkpt lat="46.04187" lon="6.49195">
        <ele>1198.8000488281</ele>
        <time>2019-08-29T16:45:27.000Z</time>
      </trkpt>
      <trkpt lat="46.04186" lon="6.49196">
        <ele>1199</ele>
        <time>2019-08-29T16:45:28.000Z</time>
      </trkpt>
      <trkpt lat="46.04185" lon="6.49199">
        <ele>1199.5999755859</ele>
        <time>2019-08-29T16:45:30.000Z</time>
      </trkpt>
      <trkpt lat="46.04185" lon="6.492">
        <ele>1199.8000488281</ele>
        <time>2019-08-29T16:45:31.000Z</time>
      </trkpt>
      <trkpt lat="46.04183" lon="6.49204">
        <ele>1200.1999511719</ele>
        <time>2019-08-29T16:45:34.000Z</time>
      </trkpt>
      <trkpt lat="46.04181" lon="6.49206">
        <ele>1200.4000244141</ele>
        <time>2019-08-29T16:45:36.000Z</time>
      </trkpt>
      <trkpt lat="46.0418" lon="6.49209">
        <ele>1200.8000488281</ele>
        <time>2019-08-29T16:45:38.000Z</time>
      </trkpt>
      <trkpt lat="46.04178" lon="6.49213">
        <ele>1201.4000244141</ele>
        <time>2019-08-29T16:45:41.000Z</time>
      </trkpt>
      <trkpt lat="46.04176" lon="6.49215">
        <ele>1201.8000488281</ele>
        <time>2019-08-29T16:45:43.000Z</time>
      </trkpt>
      <trkpt lat="46.04173" lon="6.49222">
        <ele>1202.4000244141</ele>
        <time>2019-08-29T16:45:47.000Z</time>
      </trkpt>
      <trkpt lat="46.04169" lon="6.49227">
        <ele>1203.1999511719</ele>
        <time>2019-08-29T16:45:54.000Z</time>
      </trkpt>
      <trkpt lat="46.04168" lon="6.49227">
        <ele>1203.5999755859</ele>
        <time>2019-08-29T16:45:55.000Z</time>
      </trkpt>
      <trkpt lat="46.04167" lon="6.4923">
        <ele>1204.1999511719</ele>
        <time>2019-08-29T16:45:59.000Z</time>
      </trkpt>
      <trkpt lat="46.04166" lon="6.49231">
        <ele>1204.1999511719</ele>
        <time>2019-08-29T16:46:00.000Z</time>
      </trkpt>
      <trkpt lat="46.04166" lon="6.49234">
        <ele>1204.5999755859</ele>
        <time>2019-08-29T16:46:02.000Z</time>
      </trkpt>
      <trkpt lat="46.04166" lon="6.49235">
        <ele>1204.8000488281</ele>
        <time>2019-08-29T16:46:03.000Z</time>
      </trkpt>
      <trkpt lat="46.04166" lon="6.49238">
        <ele>1205.5999755859</ele>
        <time>2019-08-29T16:46:05.000Z</time>
      </trkpt>
      <trkpt lat="46.04165" lon="6.4924">
        <ele>1205.8000488281</ele>
        <time>2019-08-29T16:46:07.000Z</time>
      </trkpt>
      <trkpt lat="46.04164" lon="6.49242">
        <ele>1206</ele>
        <time>2019-08-29T16:46:09.000Z</time>
      </trkpt>
      <trkpt lat="46.04164" lon="6.49242">
        <ele>1206.4000244141</ele>
        <time>2019-08-29T16:46:11.000Z</time>
      </trkpt>
      <trkpt lat="46.04163" lon="6.49244">
        <ele>1207</ele>
        <time>2019-08-29T16:46:13.000Z</time>
      </trkpt>
      <trkpt lat="46.04163" lon="6.49244">
        <ele>1207.1999511719</ele>
        <time>2019-08-29T16:46:14.000Z</time>
      </trkpt>
      <trkpt lat="46.04162" lon="6.49248">
        <ele>1207.8000488281</ele>
        <time>2019-08-29T16:46:17.000Z</time>
      </trkpt>
      <trkpt lat="46.04161" lon="6.4925">
        <ele>1208</ele>
        <time>2019-08-29T16:46:18.000Z</time>
      </trkpt>
      <trkpt lat="46.04158" lon="6.49251">
        <ele>1208.5999755859</ele>
        <time>2019-08-29T16:46:20.000Z</time>
      </trkpt>
      <trkpt lat="46.04154" lon="6.49254">
        <ele>1209.1999511719</ele>
        <time>2019-08-29T16:46:23.000Z</time>
      </trkpt>
      <trkpt lat="46.04153" lon="6.49255">
        <ele>1209.4000244141</ele>
        <time>2019-08-29T16:46:24.000Z</time>
      </trkpt>
      <trkpt lat="46.04153" lon="6.49256">
        <ele>1209.5999755859</ele>
        <time>2019-08-29T16:46:25.000Z</time>
      </trkpt>
      <trkpt lat="46.04151" lon="6.49258">
        <ele>1210</ele>
        <time>2019-08-29T16:46:27.000Z</time>
      </trkpt>
      <trkpt lat="46.0415" lon="6.4926">
        <ele>1210.4000244141</ele>
        <time>2019-08-29T16:46:29.000Z</time>
      </trkpt>
      <trkpt lat="46.04147" lon="6.49266">
        <ele>1211.1999511719</ele>
        <time>2019-08-29T16:46:34.000Z</time>
      </trkpt>
      <trkpt lat="46.04147" lon="6.49268">
        <ele>1211.4000244141</ele>
        <time>2019-08-29T16:46:35.000Z</time>
      </trkpt>
      <trkpt lat="46.04146" lon="6.49275">
        <ele>1212</ele>
        <time>2019-08-29T16:46:38.000Z</time>
      </trkpt>
      <trkpt lat="46.04144" lon="6.4928">
        <ele>1212.1999511719</ele>
        <time>2019-08-29T16:46:41.000Z</time>
      </trkpt>
      <trkpt lat="46.04143" lon="6.49281">
        <ele>1212.4000244141</ele>
        <time>2019-08-29T16:46:42.000Z</time>
      </trkpt>
      <trkpt lat="46.04142" lon="6.49284">
        <ele>1212.8000488281</ele>
        <time>2019-08-29T16:46:44.000Z</time>
      </trkpt>
      <trkpt lat="46.04141" lon="6.49288">
        <ele>1213.4000244141</ele>
        <time>2019-08-29T16:46:47.000Z</time>
      </trkpt>
      <trkpt lat="46.04141" lon="6.49289">
        <ele>1213.5999755859</ele>
        <time>2019-08-29T16:46:48.000Z</time>
      </trkpt>
      <trkpt lat="46.04141" lon="6.4929">
        <ele>1213.8000488281</ele>
        <time>2019-08-29T16:46:49.000Z</time>
      </trkpt>
      <trkpt lat="46.0414" lon="6.49296">
        <ele>1214.5999755859</ele>
        <time>2019-08-29T16:46:55.000Z</time>
      </trkpt>
      <trkpt lat="46.04139" lon="6.49297">
        <ele>1215</ele>
        <time>2019-08-29T16:46:56.000Z</time>
      </trkpt>
      <trkpt lat="46.04139" lon="6.49297">
        <ele>1215</ele>
        <time>2019-08-29T16:46:57.000Z</time>
      </trkpt>
      <trkpt lat="46.04138" lon="6.49299">
        <ele>1215.4000244141</ele>
        <time>2019-08-29T16:46:58.000Z</time>
      </trkpt>
      <trkpt lat="46.04137" lon="6.49302">
        <ele>1215.8000488281</ele>
        <time>2019-08-29T16:47:00.000Z</time>
      </trkpt>
      <trkpt lat="46.04136" lon="6.49304">
        <ele>1216</ele>
        <time>2019-08-29T16:47:02.000Z</time>
      </trkpt>
      <trkpt lat="46.04135" lon="6.49307">
        <ele>1216.1999511719</ele>
        <time>2019-08-29T16:47:04.000Z</time>
      </trkpt>
      <trkpt lat="46.04134" lon="6.49307">
        <ele>1216.1999511719</ele>
        <time>2019-08-29T16:47:05.000Z</time>
      </trkpt>
      <trkpt lat="46.04134" lon="6.49308">
        <ele>1216.4000244141</ele>
        <time>2019-08-29T16:47:06.000Z</time>
      </trkpt>
      <trkpt lat="46.04133" lon="6.49309">
        <ele>1216.8000488281</ele>
        <time>2019-08-29T16:47:08.000Z</time>
      </trkpt>
      <trkpt lat="46.04132" lon="6.4931">
        <ele>1217</ele>
        <time>2019-08-29T16:47:09.000Z</time>
      </trkpt>
      <trkpt lat="46.04131" lon="6.49311">
        <ele>1217.1999511719</ele>
        <time>2019-08-29T16:47:10.000Z</time>
      </trkpt>
      <trkpt lat="46.04129" lon="6.49317">
        <ele>1217.5999755859</ele>
        <time>2019-08-29T16:47:14.000Z</time>
      </trkpt>
      <trkpt lat="46.04128" lon="6.49319">
        <ele>1217.8000488281</ele>
        <time>2019-08-29T16:47:16.000Z</time>
      </trkpt>
      <trkpt lat="46.04127" lon="6.49321">
        <ele>1218</ele>
        <time>2019-08-29T16:47:17.000Z</time>
      </trkpt>
      <trkpt lat="46.04128" lon="6.49328">
        <ele>1219</ele>
        <time>2019-08-29T16:47:22.000Z</time>
      </trkpt>
      <trkpt lat="46.04128" lon="6.4933">
        <ele>1219.1999511719</ele>
        <time>2019-08-29T16:47:23.000Z</time>
      </trkpt>
      <trkpt lat="46.04127" lon="6.49332">
        <ele>1219.5999755859</ele>
        <time>2019-08-29T16:47:25.000Z</time>
      </trkpt>
      <trkpt lat="46.04127" lon="6.49337">
        <ele>1220</ele>
        <time>2019-08-29T16:47:29.000Z</time>
      </trkpt>
      <trkpt lat="46.04127" lon="6.4934">
        <ele>1220.5999755859</ele>
        <time>2019-08-29T16:47:31.000Z</time>
      </trkpt>
      <trkpt lat="46.04128" lon="6.49346">
        <ele>1221</ele>
        <time>2019-08-29T16:47:34.000Z</time>
      </trkpt>
      <trkpt lat="46.04128" lon="6.49347">
        <ele>1221.1999511719</ele>
        <time>2019-08-29T16:47:35.000Z</time>
      </trkpt>
      <trkpt lat="46.04128" lon="6.49353">
        <ele>1222</ele>
        <time>2019-08-29T16:47:39.000Z</time>
      </trkpt>
      <trkpt lat="46.04128" lon="6.49354">
        <ele>1222.1999511719</ele>
        <time>2019-08-29T16:47:40.000Z</time>
      </trkpt>
      <trkpt lat="46.04128" lon="6.49365">
        <ele>1223</ele>
        <time>2019-08-29T16:47:47.000Z</time>
      </trkpt>
      <trkpt lat="46.04128" lon="6.49366">
        <ele>1223.1999511719</ele>
        <time>2019-08-29T16:47:48.000Z</time>
      </trkpt>
      <trkpt lat="46.04128" lon="6.49369">
        <ele>1223.5999755859</ele>
        <time>2019-08-29T16:47:50.000Z</time>
      </trkpt>
      <trkpt lat="46.04128" lon="6.49372">
        <ele>1224.1999511719</ele>
        <time>2019-08-29T16:47:52.000Z</time>
      </trkpt>
      <trkpt lat="46.04128" lon="6.49372">
        <ele>1224.4000244141</ele>
        <time>2019-08-29T16:47:53.000Z</time>
      </trkpt>
      <trkpt lat="46.04128" lon="6.49374">
        <ele>1224.8000488281</ele>
        <time>2019-08-29T16:47:55.000Z</time>
      </trkpt>
      <trkpt lat="46.04128" lon="6.49375">
        <ele>1224.8000488281</ele>
        <time>2019-08-29T16:47:56.000Z</time>
      </trkpt>
      <trkpt lat="46.04128" lon="6.49379">
        <ele>1225.1999511719</ele>
        <time>2019-08-29T16:47:59.000Z</time>
      </trkpt>
      <trkpt lat="46.04128" lon="6.4938">
        <ele>1225.4000244141</ele>
        <time>2019-08-29T16:48:00.000Z</time>
      </trkpt>
      <trkpt lat="46.04128" lon="6.49381">
        <ele>1225.8000488281</ele>
        <time>2019-08-29T16:48:01.000Z</time>
      </trkpt>
      <trkpt lat="46.04127" lon="6.49388">
        <ele>1226.4000244141</ele>
        <time>2019-08-29T16:48:05.000Z</time>
      </trkpt>
      <trkpt lat="46.04127" lon="6.49389">
        <ele>1226.8000488281</ele>
        <time>2019-08-29T16:48:06.000Z</time>
      </trkpt>
      <trkpt lat="46.04128" lon="6.4939">
        <ele>1227.4000244141</ele>
        <time>2019-08-29T16:48:09.000Z</time>
      </trkpt>
      <trkpt lat="46.04129" lon="6.49392">
        <ele>1227.8000488281</ele>
        <time>2019-08-29T16:48:10.000Z</time>
      </trkpt>
      <trkpt lat="46.0413" lon="6.49394">
        <ele>1228</ele>
        <time>2019-08-29T16:48:11.000Z</time>
      </trkpt>
      <trkpt lat="46.0413" lon="6.49396">
        <ele>1228.1999511719</ele>
        <time>2019-08-29T16:48:12.000Z</time>
      </trkpt>
      <trkpt lat="46.04133" lon="6.49402">
        <ele>1228.8000488281</ele>
        <time>2019-08-29T16:48:16.000Z</time>
      </trkpt>
      <trkpt lat="46.04133" lon="6.49405">
        <ele>1229.4000244141</ele>
        <time>2019-08-29T16:48:18.000Z</time>
      </trkpt>
      <trkpt lat="46.04133" lon="6.49407">
        <ele>1229.8000488281</ele>
        <time>2019-08-29T16:48:20.000Z</time>
      </trkpt>
      <trkpt lat="46.04133" lon="6.4941">
        <ele>1230</ele>
        <time>2019-08-29T16:48:22.000Z</time>
      </trkpt>
      <trkpt lat="46.04132" lon="6.49411">
        <ele>1230.1999511719</ele>
        <time>2019-08-29T16:48:23.000Z</time>
      </trkpt>
      <trkpt lat="46.04132" lon="6.49413">
        <ele>1230.1999511719</ele>
        <time>2019-08-29T16:48:24.000Z</time>
      </trkpt>
      <trkpt lat="46.04132" lon="6.49419">
        <ele>1228.8000488281</ele>
        <time>2019-08-29T16:48:28.000Z</time>
      </trkpt>
      <trkpt lat="46.04132" lon="6.49421">
        <ele>1228.8000488281</ele>
        <time>2019-08-29T16:48:29.000Z</time>
      </trkpt>
      <trkpt lat="46.04132" lon="6.49423">
        <ele>1228.8000488281</ele>
        <time>2019-08-29T16:48:30.000Z</time>
      </trkpt>
      <trkpt lat="46.04131" lon="6.49424">
        <ele>1228.8000488281</ele>
        <time>2019-08-29T16:48:31.000Z</time>
      </trkpt>
      <trkpt lat="46.04131" lon="6.49425">
        <ele>1228.8000488281</ele>
        <time>2019-08-29T16:48:32.000Z</time>
      </trkpt>
      <trkpt lat="46.0413" lon="6.49427">
        <ele>1228.8000488281</ele>
        <time>2019-08-29T16:48:34.000Z</time>
      </trkpt>
      <trkpt lat="46.04129" lon="6.49427">
        <ele>1229</ele>
        <time>2019-08-29T16:48:35.000Z</time>
      </trkpt>
      <trkpt lat="46.04128" lon="6.49429">
        <ele>1229.1999511719</ele>
        <time>2019-08-29T16:48:37.000Z</time>
      </trkpt>
      <trkpt lat="46.04127" lon="6.49429">
        <ele>1229.4000244141</ele>
        <time>2019-08-29T16:48:38.000Z</time>
      </trkpt>
      <trkpt lat="46.04126" lon="6.4943">
        <ele>1230</ele>
        <time>2019-08-29T16:48:40.000Z</time>
      </trkpt>
      <trkpt lat="46.04125" lon="6.49431">
        <ele>1230.1999511719</ele>
        <time>2019-08-29T16:48:41.000Z</time>
      </trkpt>
      <trkpt lat="46.04124" lon="6.49435">
        <ele>1230.5999755859</ele>
        <time>2019-08-29T16:48:45.000Z</time>
      </trkpt>
      <trkpt lat="46.04123" lon="6.49436">
        <ele>1231</ele>
        <time>2019-08-29T16:48:46.000Z</time>
      </trkpt>
      <trkpt lat="46.04123" lon="6.49436">
        <ele>1231.1999511719</ele>
        <time>2019-08-29T16:48:47.000Z</time>
      </trkpt>
      <trkpt lat="46.04123" lon="6.4944">
        <ele>1231.8000488281</ele>
        <time>2019-08-29T16:48:50.000Z</time>
      </trkpt>
      <trkpt lat="46.04124" lon="6.49441">
        <ele>1232.1999511719</ele>
        <time>2019-08-29T16:48:52.000Z</time>
      </trkpt>
      <trkpt lat="46.04124" lon="6.49443">
        <ele>1232.4000244141</ele>
        <time>2019-08-29T16:48:53.000Z</time>
      </trkpt>
      <trkpt lat="46.04124" lon="6.49444">
        <ele>1232.4000244141</ele>
        <time>2019-08-29T16:48:54.000Z</time>
      </trkpt>
      <trkpt lat="46.04124" lon="6.49448">
        <ele>1232.8000488281</ele>
        <time>2019-08-29T16:48:57.000Z</time>
      </trkpt>
      <trkpt lat="46.04124" lon="6.4945">
        <ele>1233</ele>
        <time>2019-08-29T16:48:58.000Z</time>
      </trkpt>
      <trkpt lat="46.04124" lon="6.49452">
        <ele>1233.1999511719</ele>
        <time>2019-08-29T16:49:00.000Z</time>
      </trkpt>
      <trkpt lat="46.04124" lon="6.49454">
        <ele>1233.4000244141</ele>
        <time>2019-08-29T16:49:01.000Z</time>
      </trkpt>
      <trkpt lat="46.04124" lon="6.49455">
        <ele>1233.5999755859</ele>
        <time>2019-08-29T16:49:02.000Z</time>
      </trkpt>
      <trkpt lat="46.04123" lon="6.49456">
        <ele>1233.8000488281</ele>
        <time>2019-08-29T16:49:03.000Z</time>
      </trkpt>
      <trkpt lat="46.04123" lon="6.49458">
        <ele>1234.1999511719</ele>
        <time>2019-08-29T16:49:04.000Z</time>
      </trkpt>
      <trkpt lat="46.04123" lon="6.49459">
        <ele>1234.5999755859</ele>
        <time>2019-08-29T16:49:05.000Z</time>
      </trkpt>
      <trkpt lat="46.04122" lon="6.49461">
        <ele>1235</ele>
        <time>2019-08-29T16:49:07.000Z</time>
      </trkpt>
      <trkpt lat="46.04121" lon="6.49462">
        <ele>1235.1999511719</ele>
        <time>2019-08-29T16:49:08.000Z</time>
      </trkpt>
      <trkpt lat="46.0412" lon="6.49464">
        <ele>1235.4000244141</ele>
        <time>2019-08-29T16:49:10.000Z</time>
      </trkpt>
      <trkpt lat="46.04118" lon="6.49468">
        <ele>1235.5999755859</ele>
        <time>2019-08-29T16:49:13.000Z</time>
      </trkpt>
      <trkpt lat="46.04117" lon="6.49469">
        <ele>1236</ele>
        <time>2019-08-29T16:49:15.000Z</time>
      </trkpt>
      <trkpt lat="46.04116" lon="6.49472">
        <ele>1236.8000488281</ele>
        <time>2019-08-29T16:49:19.000Z</time>
      </trkpt>
      <trkpt lat="46.04114" lon="6.49474">
        <ele>1237.1999511719</ele>
        <time>2019-08-29T16:49:21.000Z</time>
      </trkpt>
      <trkpt lat="46.04112" lon="6.49476">
        <ele>1237.8000488281</ele>
        <time>2019-08-29T16:49:23.000Z</time>
      </trkpt>
      <trkpt lat="46.04112" lon="6.49476">
        <ele>1238</ele>
        <time>2019-08-29T16:49:24.000Z</time>
      </trkpt>
      <trkpt lat="46.04111" lon="6.49477">
        <ele>1238.1999511719</ele>
        <time>2019-08-29T16:49:25.000Z</time>
      </trkpt>
      <trkpt lat="46.04109" lon="6.49479">
        <ele>1238.5999755859</ele>
        <time>2019-08-29T16:49:27.000Z</time>
      </trkpt>
      <trkpt lat="46.04108" lon="6.4948">
        <ele>1238.5999755859</ele>
        <time>2019-08-29T16:49:28.000Z</time>
      </trkpt>
      <trkpt lat="46.04105" lon="6.49484">
        <ele>1239.1999511719</ele>
        <time>2019-08-29T16:49:31.000Z</time>
      </trkpt>
      <trkpt lat="46.04103" lon="6.49485">
        <ele>1239.5999755859</ele>
        <time>2019-08-29T16:49:33.000Z</time>
      </trkpt>
      <trkpt lat="46.04102" lon="6.49486">
        <ele>1239.8000488281</ele>
        <time>2019-08-29T16:49:34.000Z</time>
      </trkpt>
      <trkpt lat="46.04101" lon="6.49487">
        <ele>1240.1999511719</ele>
        <time>2019-08-29T16:49:35.000Z</time>
      </trkpt>
      <trkpt lat="46.041" lon="6.49488">
        <ele>1240.4000244141</ele>
        <time>2019-08-29T16:49:36.000Z</time>
      </trkpt>
      <trkpt lat="46.04095" lon="6.49493">
        <ele>1241.5999755859</ele>
        <time>2019-08-29T16:49:41.000Z</time>
      </trkpt>
      <trkpt lat="46.04093" lon="6.49497">
        <ele>1242.5999755859</ele>
        <time>2019-08-29T16:49:46.000Z</time>
      </trkpt>
      <trkpt lat="46.04093" lon="6.49498">
        <ele>1242.8000488281</ele>
        <time>2019-08-29T16:49:47.000Z</time>
      </trkpt>
      <trkpt lat="46.04093" lon="6.49499">
        <ele>1243</ele>
        <time>2019-08-29T16:49:48.000Z</time>
      </trkpt>
      <trkpt lat="46.04093" lon="6.49499">
        <ele>1243</ele>
        <time>2019-08-29T16:49:49.000Z</time>
      </trkpt>
      <trkpt lat="46.04093" lon="6.49501">
        <ele>1243.4000244141</ele>
        <time>2019-08-29T16:49:51.000Z</time>
      </trkpt>
      <trkpt lat="46.04093" lon="6.49502">
        <ele>1243.8000488281</ele>
        <time>2019-08-29T16:49:52.000Z</time>
      </trkpt>
      <trkpt lat="46.04092" lon="6.49505">
        <ele>1244.4000244141</ele>
        <time>2019-08-29T16:49:55.000Z</time>
      </trkpt>
      <trkpt lat="46.0409" lon="6.49509">
        <ele>1245</ele>
        <time>2019-08-29T16:49:58.000Z</time>
      </trkpt>
      <trkpt lat="46.04088" lon="6.49514">
        <ele>1245.8000488281</ele>
        <time>2019-08-29T16:50:02.000Z</time>
      </trkpt>
      <trkpt lat="46.04087" lon="6.49515">
        <ele>1246</ele>
        <time>2019-08-29T16:50:03.000Z</time>
      </trkpt>
      <trkpt lat="46.04086" lon="6.49516">
        <ele>1246.1999511719</ele>
        <time>2019-08-29T16:50:04.000Z</time>
      </trkpt>
      <trkpt lat="46.04083" lon="6.49521">
        <ele>1246.5999755859</ele>
        <time>2019-08-29T16:50:07.000Z</time>
      </trkpt>
      <trkpt lat="46.04082" lon="6.49521">
        <ele>1247</ele>
        <time>2019-08-29T16:50:08.000Z</time>
      </trkpt>
      <trkpt lat="46.04081" lon="6.49522">
        <ele>1247.1999511719</ele>
        <time>2019-08-29T16:50:09.000Z</time>
      </trkpt>
      <trkpt lat="46.0408" lon="6.49522">
        <ele>1247.4000244141</ele>
        <time>2019-08-29T16:50:10.000Z</time>
      </trkpt>
      <trkpt lat="46.04079" lon="6.49523">
        <ele>1247.5999755859</ele>
        <time>2019-08-29T16:50:11.000Z</time>
      </trkpt>
      <trkpt lat="46.04077" lon="6.49523">
        <ele>1248</ele>
        <time>2019-08-29T16:50:13.000Z</time>
      </trkpt>
      <trkpt lat="46.04075" lon="6.49524">
        <ele>1248</ele>
        <time>2019-08-29T16:50:14.000Z</time>
      </trkpt>
      <trkpt lat="46.04073" lon="6.49525">
        <ele>1248.1999511719</ele>
        <time>2019-08-29T16:50:15.000Z</time>
      </trkpt>
      <trkpt lat="46.04072" lon="6.49525">
        <ele>1248.5999755859</ele>
        <time>2019-08-29T16:50:16.000Z</time>
      </trkpt>
      <trkpt lat="46.04069" lon="6.49526">
        <ele>1249.4000244141</ele>
        <time>2019-08-29T16:50:19.000Z</time>
      </trkpt>
      <trkpt lat="46.04067" lon="6.49527">
        <ele>1250.1999511719</ele>
        <time>2019-08-29T16:50:22.000Z</time>
      </trkpt>
      <trkpt lat="46.04066" lon="6.49528">
        <ele>1250.4000244141</ele>
        <time>2019-08-29T16:50:25.000Z</time>
      </trkpt>
      <trkpt lat="46.04065" lon="6.49529">
        <ele>1250.4000244141</ele>
        <time>2019-08-29T16:50:27.000Z</time>
      </trkpt>
      <trkpt lat="46.04064" lon="6.4953">
        <ele>1250.8000488281</ele>
        <time>2019-08-29T16:50:29.000Z</time>
      </trkpt>
      <trkpt lat="46.04061" lon="6.49534">
        <ele>1251.8000488281</ele>
        <time>2019-08-29T16:50:32.000Z</time>
      </trkpt>
      <trkpt lat="46.04059" lon="6.49536">
        <ele>1252.4000244141</ele>
        <time>2019-08-29T16:50:34.000Z</time>
      </trkpt>
      <trkpt lat="46.04056" lon="6.49538">
        <ele>1252.8000488281</ele>
        <time>2019-08-29T16:50:36.000Z</time>
      </trkpt>
      <trkpt lat="46.04054" lon="6.49539">
        <ele>1253.1999511719</ele>
        <time>2019-08-29T16:50:38.000Z</time>
      </trkpt>
      <trkpt lat="46.04052" lon="6.49539">
        <ele>1253.5999755859</ele>
        <time>2019-08-29T16:50:40.000Z</time>
      </trkpt>
      <trkpt lat="46.0405" lon="6.49538">
        <ele>1253.8000488281</ele>
        <time>2019-08-29T16:50:42.000Z</time>
      </trkpt>
      <trkpt lat="46.0405" lon="6.49537">
        <ele>1254</ele>
        <time>2019-08-29T16:50:43.000Z</time>
      </trkpt>
      <trkpt lat="46.04049" lon="6.49536">
        <ele>1254.1999511719</ele>
        <time>2019-08-29T16:50:44.000Z</time>
      </trkpt>
      <trkpt lat="46.04048" lon="6.49536">
        <ele>1254.5999755859</ele>
        <time>2019-08-29T16:50:46.000Z</time>
      </trkpt>
      <trkpt lat="46.04047" lon="6.49537">
        <ele>1255</ele>
        <time>2019-08-29T16:50:48.000Z</time>
      </trkpt>
      <trkpt lat="46.04047" lon="6.4954">
        <ele>1256</ele>
        <time>2019-08-29T16:50:51.000Z</time>
      </trkpt>
      <trkpt lat="46.04047" lon="6.49543">
        <ele>1256.5999755859</ele>
        <time>2019-08-29T16:50:54.000Z</time>
      </trkpt>
      <trkpt lat="46.04048" lon="6.49543">
        <ele>1256.5999755859</ele>
        <time>2019-08-29T16:50:55.000Z</time>
      </trkpt>
      <trkpt lat="46.04048" lon="6.49546">
        <ele>1257.1999511719</ele>
        <time>2019-08-29T16:50:58.000Z</time>
      </trkpt>
      <trkpt lat="46.04048" lon="6.49548">
        <ele>1258</ele>
        <time>2019-08-29T16:51:00.000Z</time>
      </trkpt>
      <trkpt lat="46.04048" lon="6.49549">
        <ele>1258</ele>
        <time>2019-08-29T16:51:01.000Z</time>
      </trkpt>
      <trkpt lat="46.04048" lon="6.4955">
        <ele>1258.1999511719</ele>
        <time>2019-08-29T16:51:02.000Z</time>
      </trkpt>
      <trkpt lat="46.04048" lon="6.49552">
        <ele>1258.8000488281</ele>
        <time>2019-08-29T16:51:05.000Z</time>
      </trkpt>
      <trkpt lat="46.04048" lon="6.49552">
        <ele>1258.8000488281</ele>
        <time>2019-08-29T16:51:06.000Z</time>
      </trkpt>
      <trkpt lat="46.04048" lon="6.49553">
        <ele>1259</ele>
        <time>2019-08-29T16:51:07.000Z</time>
      </trkpt>
      <trkpt lat="46.04048" lon="6.49553">
        <ele>1259.1999511719</ele>
        <time>2019-08-29T16:51:08.000Z</time>
      </trkpt>
      <trkpt lat="46.04048" lon="6.49555">
        <ele>1260</ele>
        <time>2019-08-29T16:51:11.000Z</time>
      </trkpt>
      <trkpt lat="46.04048" lon="6.49555">
        <ele>1260</ele>
        <time>2019-08-29T16:51:12.000Z</time>
      </trkpt>
      <trkpt lat="46.04049" lon="6.49556">
        <ele>1260.4000244141</ele>
        <time>2019-08-29T16:51:14.000Z</time>
      </trkpt>
      <trkpt lat="46.04049" lon="6.49556">
        <ele>1260.5999755859</ele>
        <time>2019-08-29T16:51:15.000Z</time>
      </trkpt>
      <trkpt lat="46.04052" lon="6.49558">
        <ele>1261</ele>
        <time>2019-08-29T16:51:18.000Z</time>
      </trkpt>
      <trkpt lat="46.04053" lon="6.4956">
        <ele>1261.4000244141</ele>
        <time>2019-08-29T16:51:20.000Z</time>
      </trkpt>
      <trkpt lat="46.04056" lon="6.49566">
        <ele>1261.8000488281</ele>
        <time>2019-08-29T16:51:23.000Z</time>
      </trkpt>
      <trkpt lat="46.04057" lon="6.4957">
        <ele>1262</ele>
        <time>2019-08-29T16:51:25.000Z</time>
      </trkpt>
      <trkpt lat="46.04058" lon="6.49572">
        <ele>1262.1999511719</ele>
        <time>2019-08-29T16:51:26.000Z</time>
      </trkpt>
      <trkpt lat="46.04059" lon="6.49574">
        <ele>1262.5999755859</ele>
        <time>2019-08-29T16:51:28.000Z</time>
      </trkpt>
      <trkpt lat="46.0406" lon="6.49575">
        <ele>1263</ele>
        <time>2019-08-29T16:51:30.000Z</time>
      </trkpt>
      <trkpt lat="46.04062" lon="6.49579">
        <ele>1263.4000244141</ele>
        <time>2019-08-29T16:51:33.000Z</time>
      </trkpt>
      <trkpt lat="46.04063" lon="6.49581">
        <ele>1263.4000244141</ele>
        <time>2019-08-29T16:51:34.000Z</time>
      </trkpt>
      <trkpt lat="46.04065" lon="6.49581">
        <ele>1263.5999755859</ele>
        <time>2019-08-29T16:51:36.000Z</time>
      </trkpt>
      <trkpt lat="46.04066" lon="6.49581">
        <ele>1263.8000488281</ele>
        <time>2019-08-29T16:51:37.000Z</time>
      </trkpt>
      <trkpt lat="46.04066" lon="6.49581">
        <ele>1264</ele>
        <time>2019-08-29T16:51:38.000Z</time>
      </trkpt>
      <trkpt lat="46.04069" lon="6.49582">
        <ele>1264.4000244141</ele>
        <time>2019-08-29T16:51:40.000Z</time>
      </trkpt>
      <trkpt lat="46.0407" lon="6.49585">
        <ele>1264.8000488281</ele>
        <time>2019-08-29T16:51:42.000Z</time>
      </trkpt>
      <trkpt lat="46.0407" lon="6.49588">
        <ele>1265.4000244141</ele>
        <time>2019-08-29T16:51:44.000Z</time>
      </trkpt>
      <trkpt lat="46.04072" lon="6.49592">
        <ele>1265.8000488281</ele>
        <time>2019-08-29T16:51:47.000Z</time>
      </trkpt>
      <trkpt lat="46.04073" lon="6.49593">
        <ele>1266.1999511719</ele>
        <time>2019-08-29T16:51:48.000Z</time>
      </trkpt>
      <trkpt lat="46.04073" lon="6.49599">
        <ele>1266.4000244141</ele>
        <time>2019-08-29T16:51:51.000Z</time>
      </trkpt>
      <trkpt lat="46.04074" lon="6.49602">
        <ele>1266.8000488281</ele>
        <time>2019-08-29T16:51:53.000Z</time>
      </trkpt>
      <trkpt lat="46.04074" lon="6.49607">
        <ele>1267.1999511719</ele>
        <time>2019-08-29T16:51:56.000Z</time>
      </trkpt>
      <trkpt lat="46.04074" lon="6.49609">
        <ele>1267.1999511719</ele>
        <time>2019-08-29T16:51:57.000Z</time>
      </trkpt>
      <trkpt lat="46.04074" lon="6.4961">
        <ele>1267.4000244141</ele>
        <time>2019-08-29T16:51:58.000Z</time>
      </trkpt>
      <trkpt lat="46.04075" lon="6.49613">
        <ele>1267.4000244141</ele>
        <time>2019-08-29T16:52:00.000Z</time>
      </trkpt>
      <trkpt lat="46.04075" lon="6.49616">
        <ele>1267.4000244141</ele>
        <time>2019-08-29T16:52:02.000Z</time>
      </trkpt>
      <trkpt lat="46.04075" lon="6.49619">
        <ele>1267.5999755859</ele>
        <time>2019-08-29T16:52:04.000Z</time>
      </trkpt>
      <trkpt lat="46.04075" lon="6.49625">
        <ele>1268.4000244141</ele>
        <time>2019-08-29T16:52:08.000Z</time>
      </trkpt>
      <trkpt lat="46.04074" lon="6.49629">
        <ele>1268</ele>
        <time>2019-08-29T16:52:11.000Z</time>
      </trkpt>
      <trkpt lat="46.04073" lon="6.49631">
        <ele>1268.1999511719</ele>
        <time>2019-08-29T16:52:12.000Z</time>
      </trkpt>
      <trkpt lat="46.04073" lon="6.49633">
        <ele>1268.1999511719</ele>
        <time>2019-08-29T16:52:14.000Z</time>
      </trkpt>
      <trkpt lat="46.04074" lon="6.49635">
        <ele>1267.1999511719</ele>
        <time>2019-08-29T16:52:15.000Z</time>
      </trkpt>
      <trkpt lat="46.04075" lon="6.49637">
        <ele>1268</ele>
        <time>2019-08-29T16:52:17.000Z</time>
      </trkpt>
      <trkpt lat="46.04076" lon="6.4964">
        <ele>1266.8000488281</ele>
        <time>2019-08-29T16:52:19.000Z</time>
      </trkpt>
      <trkpt lat="46.04076" lon="6.49642">
        <ele>1267.4000244141</ele>
        <time>2019-08-29T16:52:20.000Z</time>
      </trkpt>
      <trkpt lat="46.04077" lon="6.49644">
        <ele>1267.5999755859</ele>
        <time>2019-08-29T16:52:21.000Z</time>
      </trkpt>
      <trkpt lat="46.04078" lon="6.49652">
        <ele>1267.5999755859</ele>
        <time>2019-08-29T16:52:26.000Z</time>
      </trkpt>
      <trkpt lat="46.04077" lon="6.49653">
        <ele>1267.8000488281</ele>
        <time>2019-08-29T16:52:27.000Z</time>
      </trkpt>
      <trkpt lat="46.04077" lon="6.49654">
        <ele>1267.8000488281</ele>
        <time>2019-08-29T16:52:30.000Z</time>
      </trkpt>
      <trkpt lat="46.04075" lon="6.49657">
        <ele>1268.1999511719</ele>
        <time>2019-08-29T16:52:33.000Z</time>
      </trkpt>
      <trkpt lat="46.04074" lon="6.49657">
        <ele>1268.4000244141</ele>
        <time>2019-08-29T16:52:34.000Z</time>
      </trkpt>
      <trkpt lat="46.0407" lon="6.49657">
        <ele>1268.8000488281</ele>
        <time>2019-08-29T16:52:36.000Z</time>
      </trkpt>
      <trkpt lat="46.04068" lon="6.49656">
        <ele>1267.1999511719</ele>
        <time>2019-08-29T16:52:37.000Z</time>
      </trkpt>
      <trkpt lat="46.04067" lon="6.49656">
        <ele>1267.1999511719</ele>
        <time>2019-08-29T16:52:38.000Z</time>
      </trkpt>
      <trkpt lat="46.04064" lon="6.49656">
        <ele>1268.4000244141</ele>
        <time>2019-08-29T16:52:40.000Z</time>
      </trkpt>
      <trkpt lat="46.04062" lon="6.49655">
        <ele>1269.1999511719</ele>
        <time>2019-08-29T16:52:42.000Z</time>
      </trkpt>
      <trkpt lat="46.04059" lon="6.49655">
        <ele>1269.5999755859</ele>
        <time>2019-08-29T16:52:44.000Z</time>
      </trkpt>
      <trkpt lat="46.04057" lon="6.49655">
        <ele>1269.8000488281</ele>
        <time>2019-08-29T16:52:46.000Z</time>
      </trkpt>
      <trkpt lat="46.04055" lon="6.49656">
        <ele>1269.8000488281</ele>
        <time>2019-08-29T16:52:48.000Z</time>
      </trkpt>
      <trkpt lat="46.0405" lon="6.49658">
        <ele>1270.5999755859</ele>
        <time>2019-08-29T16:52:53.000Z</time>
      </trkpt>
      <trkpt lat="46.04049" lon="6.49658">
        <ele>1270.8000488281</ele>
        <time>2019-08-29T16:52:54.000Z</time>
      </trkpt>
      <trkpt lat="46.04047" lon="6.49658">
        <ele>1270.8000488281</ele>
        <time>2019-08-29T16:52:55.000Z</time>
      </trkpt>
      <trkpt lat="46.04046" lon="6.49657">
        <ele>1271</ele>
        <time>2019-08-29T16:52:56.000Z</time>
      </trkpt>
      <trkpt lat="46.04041" lon="6.49656">
        <ele>1271.5999755859</ele>
        <time>2019-08-29T16:53:00.000Z</time>
      </trkpt>
      <trkpt lat="46.04036" lon="6.49655">
        <ele>1272.4000244141</ele>
        <time>2019-08-29T16:53:04.000Z</time>
      </trkpt>
      <trkpt lat="46.04035" lon="6.49656">
        <ele>1272.5999755859</ele>
        <time>2019-08-29T16:53:05.000Z</time>
      </trkpt>
      <trkpt lat="46.04033" lon="6.49657">
        <ele>1273</ele>
        <time>2019-08-29T16:53:07.000Z</time>
      </trkpt>
      <trkpt lat="46.04027" lon="6.49658">
        <ele>1274</ele>
        <time>2019-08-29T16:53:12.000Z</time>
      </trkpt>
      <trkpt lat="46.04026" lon="6.49657">
        <ele>1274.1999511719</ele>
        <time>2019-08-29T16:53:13.000Z</time>
      </trkpt>
      <trkpt lat="46.04024" lon="6.49657">
        <ele>1274.5999755859</ele>
        <time>2019-08-29T16:53:15.000Z</time>
      </trkpt>
      <trkpt lat="46.04021" lon="6.49656">
        <ele>1275</ele>
        <time>2019-08-29T16:53:19.000Z</time>
      </trkpt>
      <trkpt lat="46.04018" lon="6.49656">
        <ele>1275.5999755859</ele>
        <time>2019-08-29T16:53:22.000Z</time>
      </trkpt>
      <trkpt lat="46.04015" lon="6.49655">
        <ele>1276</ele>
        <time>2019-08-29T16:53:25.000Z</time>
      </trkpt>
      <trkpt lat="46.04014" lon="6.49654">
        <ele>1276.1999511719</ele>
        <time>2019-08-29T16:53:26.000Z</time>
      </trkpt>
      <trkpt lat="46.04007" lon="6.49652">
        <ele>1277</ele>
        <time>2019-08-29T16:53:31.000Z</time>
      </trkpt>
      <trkpt lat="46.04005" lon="6.49651">
        <ele>1277.1999511719</ele>
        <time>2019-08-29T16:53:32.000Z</time>
      </trkpt>
      <trkpt lat="46.04001" lon="6.4965">
        <ele>1277.4000244141</ele>
        <time>2019-08-29T16:53:35.000Z</time>
      </trkpt>
      <trkpt lat="46.03997" lon="6.4965">
        <ele>1277.8000488281</ele>
        <time>2019-08-29T16:53:38.000Z</time>
      </trkpt>
      <trkpt lat="46.03996" lon="6.4965">
        <ele>1278</ele>
        <time>2019-08-29T16:53:39.000Z</time>
      </trkpt>
      <trkpt lat="46.03995" lon="6.49649">
        <ele>1278</ele>
        <time>2019-08-29T16:53:40.000Z</time>
      </trkpt>
      <trkpt lat="46.03992" lon="6.49647">
        <ele>1278</ele>
        <time>2019-08-29T16:53:43.000Z</time>
      </trkpt>
      <trkpt lat="46.03991" lon="6.49645">
        <ele>1278.1999511719</ele>
        <time>2019-08-29T16:53:44.000Z</time>
      </trkpt>
      <trkpt lat="46.03988" lon="6.49642">
        <ele>1278.4000244141</ele>
        <time>2019-08-29T16:53:47.000Z</time>
      </trkpt>
      <trkpt lat="46.03986" lon="6.4964">
        <ele>1278.4000244141</ele>
        <time>2019-08-29T16:53:48.000Z</time>
      </trkpt>
      <trkpt lat="46.03982" lon="6.49637">
        <ele>1278.8000488281</ele>
        <time>2019-08-29T16:53:51.000Z</time>
      </trkpt>
      <trkpt lat="46.03981" lon="6.49636">
        <ele>1278.8000488281</ele>
        <time>2019-08-29T16:53:52.000Z</time>
      </trkpt>
      <trkpt lat="46.03979" lon="6.49636">
        <ele>1279.4000244141</ele>
        <time>2019-08-29T16:53:54.000Z</time>
      </trkpt>
      <trkpt lat="46.03978" lon="6.49635">
        <ele>1279.5999755859</ele>
        <time>2019-08-29T16:53:56.000Z</time>
      </trkpt>
      <trkpt lat="46.03977" lon="6.49635">
        <ele>1279.5999755859</ele>
        <time>2019-08-29T16:53:57.000Z</time>
      </trkpt>
      <trkpt lat="46.03975" lon="6.49634">
        <ele>1279.8000488281</ele>
        <time>2019-08-29T16:53:59.000Z</time>
      </trkpt>
      <trkpt lat="46.03974" lon="6.49634">
        <ele>1280</ele>
        <time>2019-08-29T16:54:00.000Z</time>
      </trkpt>
      <trkpt lat="46.03972" lon="6.49634">
        <ele>1280</ele>
        <time>2019-08-29T16:54:01.000Z</time>
      </trkpt>
      <trkpt lat="46.03971" lon="6.49635">
        <ele>1280.4000244141</ele>
        <time>2019-08-29T16:54:03.000Z</time>
      </trkpt>
      <trkpt lat="46.0397" lon="6.49635">
        <ele>1280.4000244141</ele>
        <time>2019-08-29T16:54:04.000Z</time>
      </trkpt>
      <trkpt lat="46.03969" lon="6.49638">
        <ele>1280.8000488281</ele>
        <time>2019-08-29T16:54:06.000Z</time>
      </trkpt>
      <trkpt lat="46.03968" lon="6.4964">
        <ele>1281.1999511719</ele>
        <time>2019-08-29T16:54:08.000Z</time>
      </trkpt>
      <trkpt lat="46.03968" lon="6.49641">
        <ele>1281.4000244141</ele>
        <time>2019-08-29T16:54:09.000Z</time>
      </trkpt>
      <trkpt lat="46.03969" lon="6.49642">
        <ele>1281.4000244141</ele>
        <time>2019-08-29T16:54:10.000Z</time>
      </trkpt>
      <trkpt lat="46.03969" lon="6.49643">
        <ele>1281.5999755859</ele>
        <time>2019-08-29T16:54:11.000Z</time>
      </trkpt>
      <trkpt lat="46.03969" lon="6.49647">
        <ele>1282</ele>
        <time>2019-08-29T16:54:15.000Z</time>
      </trkpt>
      <trkpt lat="46.0397" lon="6.49647">
        <ele>1282.1999511719</ele>
        <time>2019-08-29T16:54:16.000Z</time>
      </trkpt>
      <trkpt lat="46.03971" lon="6.49648">
        <ele>1282.5999755859</ele>
        <time>2019-08-29T16:54:18.000Z</time>
      </trkpt>
      <trkpt lat="46.03972" lon="6.49648">
        <ele>1282.8000488281</ele>
        <time>2019-08-29T16:54:19.000Z</time>
      </trkpt>
      <trkpt lat="46.03973" lon="6.4965">
        <ele>1283.1999511719</ele>
        <time>2019-08-29T16:54:21.000Z</time>
      </trkpt>
      <trkpt lat="46.03974" lon="6.4965">
        <ele>1283.1999511719</ele>
        <time>2019-08-29T16:54:22.000Z</time>
      </trkpt>
      <trkpt lat="46.03975" lon="6.49652">
        <ele>1283.5999755859</ele>
        <time>2019-08-29T16:54:24.000Z</time>
      </trkpt>
      <trkpt lat="46.03976" lon="6.49652">
        <ele>1284</ele>
        <time>2019-08-29T16:54:26.000Z</time>
      </trkpt>
      <trkpt lat="46.03977" lon="6.49654">
        <ele>1284.1999511719</ele>
        <time>2019-08-29T16:54:28.000Z</time>
      </trkpt>
      <trkpt lat="46.03977" lon="6.49656">
        <ele>1284.5999755859</ele>
        <time>2019-08-29T16:54:30.000Z</time>
      </trkpt>
      <trkpt lat="46.03977" lon="6.49657">
        <ele>1284.5999755859</ele>
        <time>2019-08-29T16:54:31.000Z</time>
      </trkpt>
      <trkpt lat="46.03977" lon="6.49658">
        <ele>1284.5999755859</ele>
        <time>2019-08-29T16:54:32.000Z</time>
      </trkpt>
      <trkpt lat="46.03979" lon="6.49663">
        <ele>1285</ele>
        <time>2019-08-29T16:54:36.000Z</time>
      </trkpt>
      <trkpt lat="46.0398" lon="6.49665">
        <ele>1285</ele>
        <time>2019-08-29T16:54:37.000Z</time>
      </trkpt>
      <trkpt lat="46.03982" lon="6.49667">
        <ele>1285.8000488281</ele>
        <time>2019-08-29T16:54:39.000Z</time>
      </trkpt>
      <trkpt lat="46.03982" lon="6.49669">
        <ele>1286.1999511719</ele>
        <time>2019-08-29T16:54:40.000Z</time>
      </trkpt>
      <trkpt lat="46.03983" lon="6.49673">
        <ele>1286.8000488281</ele>
        <time>2019-08-29T16:54:42.000Z</time>
      </trkpt>
      <trkpt lat="46.03984" lon="6.49675">
        <ele>1287</ele>
        <time>2019-08-29T16:54:43.000Z</time>
      </trkpt>
      <trkpt lat="46.03984" lon="6.49678">
        <ele>1287.4000244141</ele>
        <time>2019-08-29T16:54:45.000Z</time>
      </trkpt>
      <trkpt lat="46.03984" lon="6.4968">
        <ele>1287.8000488281</ele>
        <time>2019-08-29T16:54:47.000Z</time>
      </trkpt>
      <trkpt lat="46.03984" lon="6.49681">
        <ele>1288</ele>
        <time>2019-08-29T16:54:48.000Z</time>
      </trkpt>
      <trkpt lat="46.03984" lon="6.49682">
        <ele>1288</ele>
        <time>2019-08-29T16:54:49.000Z</time>
      </trkpt>
      <trkpt lat="46.03984" lon="6.49685">
        <ele>1288.5999755859</ele>
        <time>2019-08-29T16:54:52.000Z</time>
      </trkpt>
      <trkpt lat="46.03984" lon="6.49689">
        <ele>1289.1999511719</ele>
        <time>2019-08-29T16:54:54.000Z</time>
      </trkpt>
      <trkpt lat="46.03984" lon="6.4969">
        <ele>1289.1999511719</ele>
        <time>2019-08-29T16:54:55.000Z</time>
      </trkpt>
      <trkpt lat="46.03985" lon="6.49693">
        <ele>1289.8000488281</ele>
        <time>2019-08-29T16:54:58.000Z</time>
      </trkpt>
      <trkpt lat="46.03986" lon="6.49696">
        <ele>1290.1999511719</ele>
        <time>2019-08-29T16:55:01.000Z</time>
      </trkpt>
      <trkpt lat="46.03987" lon="6.49697">
        <ele>1290.4000244141</ele>
        <time>2019-08-29T16:55:02.000Z</time>
      </trkpt>
      <trkpt lat="46.03987" lon="6.49698">
        <ele>1290.4000244141</ele>
        <time>2019-08-29T16:55:03.000Z</time>
      </trkpt>
      <trkpt lat="46.03987" lon="6.49699">
        <ele>1290.5999755859</ele>
        <time>2019-08-29T16:55:04.000Z</time>
      </trkpt>
      <trkpt lat="46.03986" lon="6.49703">
        <ele>1291.1999511719</ele>
        <time>2019-08-29T16:55:08.000Z</time>
      </trkpt>
      <trkpt lat="46.03985" lon="6.49706">
        <ele>1291.8000488281</ele>
        <time>2019-08-29T16:55:10.000Z</time>
      </trkpt>
      <trkpt lat="46.03984" lon="6.49707">
        <ele>1292</ele>
        <time>2019-08-29T16:55:11.000Z</time>
      </trkpt>
      <trkpt lat="46.03983" lon="6.49709">
        <ele>1292.4000244141</ele>
        <time>2019-08-29T16:55:13.000Z</time>
      </trkpt>
      <trkpt lat="46.03981" lon="6.49714">
        <ele>1293.4000244141</ele>
        <time>2019-08-29T16:55:17.000Z</time>
      </trkpt>
      <trkpt lat="46.03981" lon="6.49717">
        <ele>1293.5999755859</ele>
        <time>2019-08-29T16:55:19.000Z</time>
      </trkpt>
      <trkpt lat="46.03982" lon="6.49724">
        <ele>1294.5999755859</ele>
        <time>2019-08-29T16:55:23.000Z</time>
      </trkpt>
      <trkpt lat="46.03985" lon="6.49728">
        <ele>1295</ele>
        <time>2019-08-29T16:55:27.000Z</time>
      </trkpt>
      <trkpt lat="46.03987" lon="6.49733">
        <ele>1295.5999755859</ele>
        <time>2019-08-29T16:55:31.000Z</time>
      </trkpt>
      <trkpt lat="46.03986" lon="6.49734">
        <ele>1296</ele>
        <time>2019-08-29T16:55:32.000Z</time>
      </trkpt>
      <trkpt lat="46.03986" lon="6.49736">
        <ele>1296.1999511719</ele>
        <time>2019-08-29T16:55:33.000Z</time>
      </trkpt>
      <trkpt lat="46.03982" lon="6.49744">
        <ele>1297.1999511719</ele>
        <time>2019-08-29T16:55:40.000Z</time>
      </trkpt>
      <trkpt lat="46.03981" lon="6.49748">
        <ele>1297.4000244141</ele>
        <time>2019-08-29T16:55:41.000Z</time>
      </trkpt>
      <trkpt lat="46.0398" lon="6.49749">
        <ele>1297.5999755859</ele>
        <time>2019-08-29T16:55:42.000Z</time>
      </trkpt>
      <trkpt lat="46.03979" lon="6.49749">
        <ele>1297.8000488281</ele>
        <time>2019-08-29T16:55:43.000Z</time>
      </trkpt>
      <trkpt lat="46.03978" lon="6.4975">
        <ele>1298.4000244141</ele>
        <time>2019-08-29T16:55:45.000Z</time>
      </trkpt>
      <trkpt lat="46.03977" lon="6.49752">
        <ele>1299.4000244141</ele>
        <time>2019-08-29T16:55:49.000Z</time>
      </trkpt>
      <trkpt lat="46.03973" lon="6.49756">
        <ele>1300.5999755859</ele>
        <time>2019-08-29T16:55:55.000Z</time>
      </trkpt>
      <trkpt lat="46.0397" lon="6.49757">
        <ele>1301.4000244141</ele>
        <time>2019-08-29T16:55:59.000Z</time>
      </trkpt>
      <trkpt lat="46.03969" lon="6.49759">
        <ele>1301.5999755859</ele>
        <time>2019-08-29T16:56:01.000Z</time>
      </trkpt>
      <trkpt lat="46.03969" lon="6.4976">
        <ele>1301.8000488281</ele>
        <time>2019-08-29T16:56:02.000Z</time>
      </trkpt>
      <trkpt lat="46.03969" lon="6.49761">
        <ele>1301.8000488281</ele>
        <time>2019-08-29T16:56:03.000Z</time>
      </trkpt>
      <trkpt lat="46.03968" lon="6.49765">
        <ele>1302.5999755859</ele>
        <time>2019-08-29T16:56:06.000Z</time>
      </trkpt>
      <trkpt lat="46.03967" lon="6.49766">
        <ele>1302.8000488281</ele>
        <time>2019-08-29T16:56:07.000Z</time>
      </trkpt>
      <trkpt lat="46.03966" lon="6.49768">
        <ele>1303</ele>
        <time>2019-08-29T16:56:09.000Z</time>
      </trkpt>
      <trkpt lat="46.03964" lon="6.49773">
        <ele>1304</ele>
        <time>2019-08-29T16:56:14.000Z</time>
      </trkpt>
      <trkpt lat="46.0396" lon="6.4978">
        <ele>1305</ele>
        <time>2019-08-29T16:56:18.000Z</time>
      </trkpt>
      <trkpt lat="46.03958" lon="6.49783">
        <ele>1305.1999511719</ele>
        <time>2019-08-29T16:56:20.000Z</time>
      </trkpt>
      <trkpt lat="46.03952" lon="6.49794">
        <ele>1306</ele>
        <time>2019-08-29T16:56:25.000Z</time>
      </trkpt>
      <trkpt lat="46.03951" lon="6.49796">
        <ele>1306.1999511719</ele>
        <time>2019-08-29T16:56:26.000Z</time>
      </trkpt>
      <trkpt lat="46.03948" lon="6.49805">
        <ele>1307</ele>
        <time>2019-08-29T16:56:31.000Z</time>
      </trkpt>
      <trkpt lat="46.03948" lon="6.49806">
        <ele>1307.1999511719</ele>
        <time>2019-08-29T16:56:32.000Z</time>
      </trkpt>
      <trkpt lat="46.03946" lon="6.49809">
        <ele>1307.4000244141</ele>
        <time>2019-08-29T16:56:34.000Z</time>
      </trkpt>
      <trkpt lat="46.03945" lon="6.49817">
        <ele>1308.4000244141</ele>
        <time>2019-08-29T16:56:38.000Z</time>
      </trkpt>
      <trkpt lat="46.03941" lon="6.49824">
        <ele>1308.8000488281</ele>
        <time>2019-08-29T16:56:42.000Z</time>
      </trkpt>
      <trkpt lat="46.03937" lon="6.49827">
        <ele>1309</ele>
        <time>2019-08-29T16:56:45.000Z</time>
      </trkpt>
      <trkpt lat="46.03936" lon="6.49828">
        <ele>1309.4000244141</ele>
        <time>2019-08-29T16:56:46.000Z</time>
      </trkpt>
      <trkpt lat="46.03934" lon="6.49832">
        <ele>1310</ele>
        <time>2019-08-29T16:56:49.000Z</time>
      </trkpt>
      <trkpt lat="46.03932" lon="6.49837">
        <ele>1310.4000244141</ele>
        <time>2019-08-29T16:56:53.000Z</time>
      </trkpt>
      <trkpt lat="46.03932" lon="6.49839">
        <ele>1310.5999755859</ele>
        <time>2019-08-29T16:56:54.000Z</time>
      </trkpt>
      <trkpt lat="46.03931" lon="6.4984">
        <ele>1311</ele>
        <time>2019-08-29T16:56:56.000Z</time>
      </trkpt>
      <trkpt lat="46.03927" lon="6.49842">
        <ele>1311.5999755859</ele>
        <time>2019-08-29T16:57:00.000Z</time>
      </trkpt>
      <trkpt lat="46.03925" lon="6.49839">
        <ele>1312.1999511719</ele>
        <time>2019-08-29T16:57:02.000Z</time>
      </trkpt>
      <trkpt lat="46.03924" lon="6.49841">
        <ele>1312.8000488281</ele>
        <time>2019-08-29T16:57:05.000Z</time>
      </trkpt>
      <trkpt lat="46.03925" lon="6.49845">
        <ele>1313.8000488281</ele>
        <time>2019-08-29T16:57:09.000Z</time>
      </trkpt>
      <trkpt lat="46.03925" lon="6.49846">
        <ele>1314</ele>
        <time>2019-08-29T16:57:10.000Z</time>
      </trkpt>
      <trkpt lat="46.03922" lon="6.49855">
        <ele>1314.8000488281</ele>
        <time>2019-08-29T16:57:17.000Z</time>
      </trkpt>
      <trkpt lat="46.03921" lon="6.49855">
        <ele>1314.8000488281</ele>
        <time>2019-08-29T16:57:18.000Z</time>
      </trkpt>
      <trkpt lat="46.03921" lon="6.49854">
        <ele>1314.8000488281</ele>
        <time>2019-08-29T16:57:19.000Z</time>
      </trkpt>
      <trkpt lat="46.0392" lon="6.49857">
        <ele>1315.4000244141</ele>
        <time>2019-08-29T16:57:25.000Z</time>
      </trkpt>
      <trkpt lat="46.0392" lon="6.49857">
        <ele>1315.5999755859</ele>
        <time>2019-08-29T16:57:26.000Z</time>
      </trkpt>
      <trkpt lat="46.0392" lon="6.49856">
        <ele>1316</ele>
        <time>2019-08-29T16:57:27.000Z</time>
      </trkpt>
      <trkpt lat="46.03921" lon="6.49856">
        <ele>1316.5999755859</ele>
        <time>2019-08-29T16:57:29.000Z</time>
      </trkpt>
      <trkpt lat="46.03918" lon="6.49854">
        <ele>1316.8000488281</ele>
        <time>2019-08-29T16:57:31.000Z</time>
      </trkpt>
      <trkpt lat="46.03917" lon="6.49852">
        <ele>1316.8000488281</ele>
        <time>2019-08-29T16:57:32.000Z</time>
      </trkpt>
      <trkpt lat="46.03915" lon="6.49853">
        <ele>1317</ele>
        <time>2019-08-29T16:57:34.000Z</time>
      </trkpt>
      <trkpt lat="46.03915" lon="6.49858">
        <ele>1317.4000244141</ele>
        <time>2019-08-29T16:57:38.000Z</time>
      </trkpt>
      <trkpt lat="46.03913" lon="6.4986">
        <ele>1318.1999511719</ele>
        <time>2019-08-29T16:57:44.000Z</time>
      </trkpt>
      <trkpt lat="46.03912" lon="6.49862">
        <ele>1318.5999755859</ele>
        <time>2019-08-29T16:57:46.000Z</time>
      </trkpt>
      <trkpt lat="46.03912" lon="6.49867">
        <ele>1319</ele>
        <time>2019-08-29T16:57:50.000Z</time>
      </trkpt>
      <trkpt lat="46.03913" lon="6.49868">
        <ele>1319.4000244141</ele>
        <time>2019-08-29T16:57:51.000Z</time>
      </trkpt>
      <trkpt lat="46.03914" lon="6.49871">
        <ele>1319.8000488281</ele>
        <time>2019-08-29T16:57:53.000Z</time>
      </trkpt>
      <trkpt lat="46.03915" lon="6.49872">
        <ele>1320</ele>
        <time>2019-08-29T16:57:54.000Z</time>
      </trkpt>
      <trkpt lat="46.03914" lon="6.49873">
        <ele>1320</ele>
        <time>2019-08-29T16:57:56.000Z</time>
      </trkpt>
      <trkpt lat="46.03913" lon="6.49876">
        <ele>1320.1999511719</ele>
        <time>2019-08-29T16:57:58.000Z</time>
      </trkpt>
      <trkpt lat="46.03913" lon="6.49877">
        <ele>1320.4000244141</ele>
        <time>2019-08-29T16:57:59.000Z</time>
      </trkpt>
      <trkpt lat="46.03913" lon="6.4988">
        <ele>1320.8000488281</ele>
        <time>2019-08-29T16:58:01.000Z</time>
      </trkpt>
      <trkpt lat="46.03914" lon="6.49882">
        <ele>1321.1999511719</ele>
        <time>2019-08-29T16:58:03.000Z</time>
      </trkpt>
      <trkpt lat="46.03913" lon="6.49884">
        <ele>1321.5999755859</ele>
        <time>2019-08-29T16:58:06.000Z</time>
      </trkpt>
      <trkpt lat="46.03907" lon="6.49892">
        <ele>1322.5999755859</ele>
        <time>2019-08-29T16:58:13.000Z</time>
      </trkpt>
      <trkpt lat="46.03905" lon="6.49892">
        <ele>1322.8000488281</ele>
        <time>2019-08-29T16:58:15.000Z</time>
      </trkpt>
      <trkpt lat="46.03902" lon="6.49895">
        <ele>1323.5999755859</ele>
        <time>2019-08-29T16:58:19.000Z</time>
      </trkpt>
      <trkpt lat="46.03902" lon="6.49897">
        <ele>1323.8000488281</ele>
        <time>2019-08-29T16:58:20.000Z</time>
      </trkpt>
      <trkpt lat="46.03901" lon="6.49898">
        <ele>1324.4000244141</ele>
        <time>2019-08-29T16:58:22.000Z</time>
      </trkpt>
      <trkpt lat="46.03898" lon="6.49903">
        <ele>1324.8000488281</ele>
        <time>2019-08-29T16:58:26.000Z</time>
      </trkpt>
      <trkpt lat="46.03897" lon="6.49905">
        <ele>1325</ele>
        <time>2019-08-29T16:58:27.000Z</time>
      </trkpt>
      <trkpt lat="46.03896" lon="6.49906">
        <ele>1325.4000244141</ele>
        <time>2019-08-29T16:58:29.000Z</time>
      </trkpt>
      <trkpt lat="46.03891" lon="6.49911">
        <ele>1326</ele>
        <time>2019-08-29T16:58:35.000Z</time>
      </trkpt>
      <trkpt lat="46.0389" lon="6.49911">
        <ele>1326.1999511719</ele>
        <time>2019-08-29T16:58:36.000Z</time>
      </trkpt>
      <trkpt lat="46.03888" lon="6.49914">
        <ele>1327</ele>
        <time>2019-08-29T16:58:39.000Z</time>
      </trkpt>
      <trkpt lat="46.03885" lon="6.49915">
        <ele>1327.4000244141</ele>
        <time>2019-08-29T16:58:42.000Z</time>
      </trkpt>
      <trkpt lat="46.03883" lon="6.49916">
        <ele>1327.8000488281</ele>
        <time>2019-08-29T16:58:44.000Z</time>
      </trkpt>
      <trkpt lat="46.03882" lon="6.49917">
        <ele>1328.1999511719</ele>
        <time>2019-08-29T16:58:45.000Z</time>
      </trkpt>
      <trkpt lat="46.03881" lon="6.49918">
        <ele>1328.4000244141</ele>
        <time>2019-08-29T16:58:46.000Z</time>
      </trkpt>
      <trkpt lat="46.0388" lon="6.4992">
        <ele>1328.8000488281</ele>
        <time>2019-08-29T16:58:48.000Z</time>
      </trkpt>
      <trkpt lat="46.03879" lon="6.49924">
        <ele>1329</ele>
        <time>2019-08-29T16:58:51.000Z</time>
      </trkpt>
      <trkpt lat="46.03878" lon="6.49925">
        <ele>1329</ele>
        <time>2019-08-29T16:58:52.000Z</time>
      </trkpt>
      <trkpt lat="46.03878" lon="6.49927">
        <ele>1329.5999755859</ele>
        <time>2019-08-29T16:58:54.000Z</time>
      </trkpt>
      <trkpt lat="46.03877" lon="6.49933">
        <ele>1330.1999511719</ele>
        <time>2019-08-29T16:58:58.000Z</time>
      </trkpt>
      <trkpt lat="46.03875" lon="6.49937">
        <ele>1330.5999755859</ele>
        <time>2019-08-29T16:59:01.000Z</time>
      </trkpt>
      <trkpt lat="46.03872" lon="6.4994">
        <ele>1331</ele>
        <time>2019-08-29T16:59:06.000Z</time>
      </trkpt>
      <trkpt lat="46.03871" lon="6.49942">
        <ele>1331.4000244141</ele>
        <time>2019-08-29T16:59:09.000Z</time>
      </trkpt>
      <trkpt lat="46.0387" lon="6.49942">
        <ele>1331.5999755859</ele>
        <time>2019-08-29T16:59:10.000Z</time>
      </trkpt>
      <trkpt lat="46.03869" lon="6.49945">
        <ele>1332.1999511719</ele>
        <time>2019-08-29T16:59:14.000Z</time>
      </trkpt>
      <trkpt lat="46.03869" lon="6.49947">
        <ele>1332.8000488281</ele>
        <time>2019-08-29T16:59:16.000Z</time>
      </trkpt>
      <trkpt lat="46.03869" lon="6.49949">
        <ele>1333.1999511719</ele>
        <time>2019-08-29T16:59:19.000Z</time>
      </trkpt>
      <trkpt lat="46.03869" lon="6.49952">
        <ele>1333.5999755859</ele>
        <time>2019-08-29T16:59:21.000Z</time>
      </trkpt>
      <trkpt lat="46.03869" lon="6.49953">
        <ele>1333.8000488281</ele>
        <time>2019-08-29T16:59:22.000Z</time>
      </trkpt>
      <trkpt lat="46.03868" lon="6.49954">
        <ele>1333.8000488281</ele>
        <time>2019-08-29T16:59:23.000Z</time>
      </trkpt>
      <trkpt lat="46.03866" lon="6.49958">
        <ele>1334.4000244141</ele>
        <time>2019-08-29T16:59:26.000Z</time>
      </trkpt>
      <trkpt lat="46.03865" lon="6.49959">
        <ele>1334.8000488281</ele>
        <time>2019-08-29T16:59:28.000Z</time>
      </trkpt>
      <trkpt lat="46.03864" lon="6.4996">
        <ele>1335</ele>
        <time>2019-08-29T16:59:29.000Z</time>
      </trkpt>
      <trkpt lat="46.03858" lon="6.49965">
        <ele>1335.8000488281</ele>
        <time>2019-08-29T16:59:35.000Z</time>
      </trkpt>
      <trkpt lat="46.03858" lon="6.49966">
        <ele>1336.1999511719</ele>
        <time>2019-08-29T16:59:36.000Z</time>
      </trkpt>
      <trkpt lat="46.03854" lon="6.49972">
        <ele>1337</ele>
        <time>2019-08-29T16:59:41.000Z</time>
      </trkpt>
      <trkpt lat="46.03852" lon="6.49974">
        <ele>1337.1999511719</ele>
        <time>2019-08-29T16:59:43.000Z</time>
      </trkpt>
      <trkpt lat="46.0385" lon="6.49979">
        <ele>1338.1999511719</ele>
        <time>2019-08-29T16:59:47.000Z</time>
      </trkpt>
      <trkpt lat="46.03848" lon="6.49982">
        <ele>1338.4000244141</ele>
        <time>2019-08-29T16:59:49.000Z</time>
      </trkpt>
      <trkpt lat="46.03845" lon="6.49988">
        <ele>1339.4000244141</ele>
        <time>2019-08-29T16:59:55.000Z</time>
      </trkpt>
      <trkpt lat="46.03842" lon="6.49996">
        <ele>1340.4000244141</ele>
        <time>2019-08-29T17:00:01.000Z</time>
      </trkpt>
      <trkpt lat="46.03841" lon="6.49998">
        <ele>1340.5999755859</ele>
        <time>2019-08-29T17:00:03.000Z</time>
      </trkpt>
      <trkpt lat="46.0384" lon="6.49999">
        <ele>1340.8000488281</ele>
        <time>2019-08-29T17:00:04.000Z</time>
      </trkpt>
      <trkpt lat="46.03837" lon="6.5">
        <ele>1341.4000244141</ele>
        <time>2019-08-29T17:00:07.000Z</time>
      </trkpt>
      <trkpt lat="46.03836" lon="6.5">
        <ele>1341.5999755859</ele>
        <time>2019-08-29T17:00:08.000Z</time>
      </trkpt>
      <trkpt lat="46.03832" lon="6.5">
        <ele>1342.1999511719</ele>
        <time>2019-08-29T17:00:11.000Z</time>
      </trkpt>
      <trkpt lat="46.03831" lon="6.5">
        <ele>1342.4000244141</ele>
        <time>2019-08-29T17:00:12.000Z</time>
      </trkpt>
      <trkpt lat="46.03828" lon="6.50002">
        <ele>1342.8000488281</ele>
        <time>2019-08-29T17:00:14.000Z</time>
      </trkpt>
      <trkpt lat="46.03827" lon="6.50003">
        <ele>1343</ele>
        <time>2019-08-29T17:00:16.000Z</time>
      </trkpt>
      <trkpt lat="46.03826" lon="6.50004">
        <ele>1343.4000244141</ele>
        <time>2019-08-29T17:00:18.000Z</time>
      </trkpt>
      <trkpt lat="46.03824" lon="6.50005">
        <ele>1344</ele>
        <time>2019-08-29T17:00:20.000Z</time>
      </trkpt>
      <trkpt lat="46.03821" lon="6.50006">
        <ele>1344.5999755859</ele>
        <time>2019-08-29T17:00:24.000Z</time>
      </trkpt>
      <trkpt lat="46.03819" lon="6.50006">
        <ele>1345</ele>
        <time>2019-08-29T17:00:26.000Z</time>
      </trkpt>
      <trkpt lat="46.03818" lon="6.50007">
        <ele>1345.8000488281</ele>
        <time>2019-08-29T17:00:30.000Z</time>
      </trkpt>
      <trkpt lat="46.03817" lon="6.50008">
        <ele>1346</ele>
        <time>2019-08-29T17:00:31.000Z</time>
      </trkpt>
      <trkpt lat="46.03816" lon="6.50009">
        <ele>1346.4000244141</ele>
        <time>2019-08-29T17:00:33.000Z</time>
      </trkpt>
      <trkpt lat="46.03815" lon="6.50011">
        <ele>1346.8000488281</ele>
        <time>2019-08-29T17:00:36.000Z</time>
      </trkpt>
      <trkpt lat="46.03814" lon="6.50014">
        <ele>1347.1999511719</ele>
        <time>2019-08-29T17:00:38.000Z</time>
      </trkpt>
      <trkpt lat="46.03813" lon="6.50014">
        <ele>1347.4000244141</ele>
        <time>2019-08-29T17:00:39.000Z</time>
      </trkpt>
      <trkpt lat="46.03808" lon="6.50016">
        <ele>1348.4000244141</ele>
        <time>2019-08-29T17:00:44.000Z</time>
      </trkpt>
      <trkpt lat="46.03806" lon="6.50017">
        <ele>1348.8000488281</ele>
        <time>2019-08-29T17:00:46.000Z</time>
      </trkpt>
      <trkpt lat="46.03804" lon="6.5002">
        <ele>1349.1999511719</ele>
        <time>2019-08-29T17:00:49.000Z</time>
      </trkpt>
      <trkpt lat="46.03803" lon="6.5002">
        <ele>1349.4000244141</ele>
        <time>2019-08-29T17:00:50.000Z</time>
      </trkpt>
      <trkpt lat="46.03802" lon="6.50021">
        <ele>1349.5999755859</ele>
        <time>2019-08-29T17:00:52.000Z</time>
      </trkpt>
      <trkpt lat="46.038" lon="6.50021">
        <ele>1350</ele>
        <time>2019-08-29T17:00:54.000Z</time>
      </trkpt>
      <trkpt lat="46.03799" lon="6.50021">
        <ele>1350.1999511719</ele>
        <time>2019-08-29T17:00:55.000Z</time>
      </trkpt>
      <trkpt lat="46.03797" lon="6.50021">
        <ele>1350.4000244141</ele>
        <time>2019-08-29T17:00:56.000Z</time>
      </trkpt>
      <trkpt lat="46.03789" lon="6.50025">
        <ele>1351.1999511719</ele>
        <time>2019-08-29T17:01:02.000Z</time>
      </trkpt>
      <trkpt lat="46.03788" lon="6.50025">
        <ele>1351.5999755859</ele>
        <time>2019-08-29T17:01:03.000Z</time>
      </trkpt>
      <trkpt lat="46.03787" lon="6.50025">
        <ele>1351.8000488281</ele>
        <time>2019-08-29T17:01:04.000Z</time>
      </trkpt>
      <trkpt lat="46.03782" lon="6.50027">
        <ele>1352.1999511719</ele>
        <time>2019-08-29T17:01:08.000Z</time>
      </trkpt>
      <trkpt lat="46.03781" lon="6.50028">
        <ele>1352.5999755859</ele>
        <time>2019-08-29T17:01:11.000Z</time>
      </trkpt>
      <trkpt lat="46.03779" lon="6.5003">
        <ele>1353</ele>
        <time>2019-08-29T17:01:14.000Z</time>
      </trkpt>
      <trkpt lat="46.03777" lon="6.50032">
        <ele>1353.5999755859</ele>
        <time>2019-08-29T17:01:17.000Z</time>
      </trkpt>
      <trkpt lat="46.03772" lon="6.50034">
        <ele>1354.4000244141</ele>
        <time>2019-08-29T17:01:22.000Z</time>
      </trkpt>
      <trkpt lat="46.03771" lon="6.50034">
        <ele>1354.8000488281</ele>
        <time>2019-08-29T17:01:24.000Z</time>
      </trkpt>
      <trkpt lat="46.03768" lon="6.50036">
        <ele>1355.8000488281</ele>
        <time>2019-08-29T17:01:29.000Z</time>
      </trkpt>
      <trkpt lat="46.03764" lon="6.50035">
        <ele>1356.4000244141</ele>
        <time>2019-08-29T17:01:33.000Z</time>
      </trkpt>
      <trkpt lat="46.03762" lon="6.50036">
        <ele>1357</ele>
        <time>2019-08-29T17:01:36.000Z</time>
      </trkpt>
      <trkpt lat="46.03759" lon="6.50037">
        <ele>1357.1999511719</ele>
        <time>2019-08-29T17:01:40.000Z</time>
      </trkpt>
      <trkpt lat="46.03758" lon="6.5004">
        <ele>1358</ele>
        <time>2019-08-29T17:01:43.000Z</time>
      </trkpt>
      <trkpt lat="46.03756" lon="6.50042">
        <ele>1358.5999755859</ele>
        <time>2019-08-29T17:01:45.000Z</time>
      </trkpt>
      <trkpt lat="46.03754" lon="6.50044">
        <ele>1359.1999511719</ele>
        <time>2019-08-29T17:01:48.000Z</time>
      </trkpt>
      <trkpt lat="46.03753" lon="6.50045">
        <ele>1359.4000244141</ele>
        <time>2019-08-29T17:01:49.000Z</time>
      </trkpt>
      <trkpt lat="46.03752" lon="6.50047">
        <ele>1359.5999755859</ele>
        <time>2019-08-29T17:01:51.000Z</time>
      </trkpt>
      <trkpt lat="46.03751" lon="6.50047">
        <ele>1359.8000488281</ele>
        <time>2019-08-29T17:01:53.000Z</time>
      </trkpt>
      <trkpt lat="46.0375" lon="6.50048">
        <ele>1360.1999511719</ele>
        <time>2019-08-29T17:01:55.000Z</time>
      </trkpt>
      <trkpt lat="46.0375" lon="6.50048">
        <ele>1360.4000244141</ele>
        <time>2019-08-29T17:01:56.000Z</time>
      </trkpt>
      <trkpt lat="46.03749" lon="6.50048">
        <ele>1360.5999755859</ele>
        <time>2019-08-29T17:01:57.000Z</time>
      </trkpt>
      <trkpt lat="46.03749" lon="6.50048">
        <ele>1361.1999511719</ele>
        <time>2019-08-29T17:01:59.000Z</time>
      </trkpt>
      <trkpt lat="46.0375" lon="6.50048">
        <ele>1361.4000244141</ele>
        <time>2019-08-29T17:02:00.000Z</time>
      </trkpt>
      <trkpt lat="46.03751" lon="6.50049">
        <ele>1361.4000244141</ele>
        <time>2019-08-29T17:02:02.000Z</time>
      </trkpt>
      <trkpt lat="46.03748" lon="6.50048">
        <ele>1361.8000488281</ele>
        <time>2019-08-29T17:02:08.000Z</time>
      </trkpt>
      <trkpt lat="46.03743" lon="6.5005">
        <ele>1362.4000244141</ele>
        <time>2019-08-29T17:02:13.000Z</time>
      </trkpt>
      <trkpt lat="46.03738" lon="6.5005">
        <ele>1363</ele>
        <time>2019-08-29T17:02:16.000Z</time>
      </trkpt>
      <trkpt lat="46.03736" lon="6.50051">
        <ele>1363.4000244141</ele>
        <time>2019-08-29T17:02:18.000Z</time>
      </trkpt>
      <trkpt lat="46.03731" lon="6.50055">
        <ele>1364</ele>
        <time>2019-08-29T17:02:24.000Z</time>
      </trkpt>
      <trkpt lat="46.0373" lon="6.50055">
        <ele>1364.4000244141</ele>
        <time>2019-08-29T17:02:26.000Z</time>
      </trkpt>
      <trkpt lat="46.03726" lon="6.50056">
        <ele>1365.1999511719</ele>
        <time>2019-08-29T17:02:31.000Z</time>
      </trkpt>
      <trkpt lat="46.03724" lon="6.50057">
        <ele>1365.4000244141</ele>
        <time>2019-08-29T17:02:33.000Z</time>
      </trkpt>
      <trkpt lat="46.03721" lon="6.50059">
        <ele>1366.1999511719</ele>
        <time>2019-08-29T17:02:37.000Z</time>
      </trkpt>
      <trkpt lat="46.0372" lon="6.5006">
        <ele>1366.5999755859</ele>
        <time>2019-08-29T17:02:39.000Z</time>
      </trkpt>
      <trkpt lat="46.03718" lon="6.50063">
        <ele>1367.8000488281</ele>
        <time>2019-08-29T17:02:45.000Z</time>
      </trkpt>
      <trkpt lat="46.03716" lon="6.50065">
        <ele>1368.4000244141</ele>
        <time>2019-08-29T17:02:48.000Z</time>
      </trkpt>
      <trkpt lat="46.03713" lon="6.50069">
        <ele>1368.5999755859</ele>
        <time>2019-08-29T17:02:52.000Z</time>
      </trkpt>
      <trkpt lat="46.03711" lon="6.50071">
        <ele>1368.8000488281</ele>
        <time>2019-08-29T17:02:54.000Z</time>
      </trkpt>
      <trkpt lat="46.03709" lon="6.50072">
        <ele>1369.4000244141</ele>
        <time>2019-08-29T17:02:57.000Z</time>
      </trkpt>
      <trkpt lat="46.03706" lon="6.50076">
        <ele>1369.8000488281</ele>
        <time>2019-08-29T17:03:02.000Z</time>
      </trkpt>
      <trkpt lat="46.03705" lon="6.50077">
        <ele>1370</ele>
        <time>2019-08-29T17:03:04.000Z</time>
      </trkpt>
      <trkpt lat="46.03699" lon="6.5008">
        <ele>1371</ele>
        <time>2019-08-29T17:03:10.000Z</time>
      </trkpt>
      <trkpt lat="46.03697" lon="6.5008">
        <ele>1371.1999511719</ele>
        <time>2019-08-29T17:03:11.000Z</time>
      </trkpt>
      <trkpt lat="46.03694" lon="6.50082">
        <ele>1371.5999755859</ele>
        <time>2019-08-29T17:03:14.000Z</time>
      </trkpt>
      <trkpt lat="46.03693" lon="6.50083">
        <ele>1371.5999755859</ele>
        <time>2019-08-29T17:03:15.000Z</time>
      </trkpt>
      <trkpt lat="46.0369" lon="6.50084">
        <ele>1372</ele>
        <time>2019-08-29T17:03:18.000Z</time>
      </trkpt>
      <trkpt lat="46.0369" lon="6.50083">
        <ele>1372</ele>
        <time>2019-08-29T17:03:19.000Z</time>
      </trkpt>
      <trkpt lat="46.03689" lon="6.50082">
        <ele>1372.1999511719</ele>
        <time>2019-08-29T17:03:20.000Z</time>
      </trkpt>
      <trkpt lat="46.03687" lon="6.50082">
        <ele>1372.1999511719</ele>
        <time>2019-08-29T17:03:22.000Z</time>
      </trkpt>
      <trkpt lat="46.03684" lon="6.50083">
        <ele>1372.8000488281</ele>
        <time>2019-08-29T17:03:25.000Z</time>
      </trkpt>
      <trkpt lat="46.03682" lon="6.50082">
        <ele>1373.1999511719</ele>
        <time>2019-08-29T17:03:28.000Z</time>
      </trkpt>
      <trkpt lat="46.03678" lon="6.50082">
        <ele>1373.4000244141</ele>
        <time>2019-08-29T17:03:32.000Z</time>
      </trkpt>
      <trkpt lat="46.03677" lon="6.50082">
        <ele>1374</ele>
        <time>2019-08-29T17:03:34.000Z</time>
      </trkpt>
      <trkpt lat="46.03676" lon="6.50082">
        <ele>1374.4000244141</ele>
        <time>2019-08-29T17:03:35.000Z</time>
      </trkpt>
      <trkpt lat="46.03673" lon="6.50083">
        <ele>1375</ele>
        <time>2019-08-29T17:03:39.000Z</time>
      </trkpt>
      <trkpt lat="46.0367" lon="6.50084">
        <ele>1375.1999511719</ele>
        <time>2019-08-29T17:03:42.000Z</time>
      </trkpt>
      <trkpt lat="46.0367" lon="6.50085">
        <ele>1375.4000244141</ele>
        <time>2019-08-29T17:03:43.000Z</time>
      </trkpt>
      <trkpt lat="46.03669" lon="6.50085">
        <ele>1376</ele>
        <time>2019-08-29T17:03:45.000Z</time>
      </trkpt>
      <trkpt lat="46.03667" lon="6.50083">
        <ele>1376.4000244141</ele>
        <time>2019-08-29T17:03:47.000Z</time>
      </trkpt>
      <trkpt lat="46.03663" lon="6.50084">
        <ele>1377.4000244141</ele>
        <time>2019-08-29T17:03:53.000Z</time>
      </trkpt>
      <trkpt lat="46.03662" lon="6.50085">
        <ele>1377.5999755859</ele>
        <time>2019-08-29T17:03:54.000Z</time>
      </trkpt>
      <trkpt lat="46.03661" lon="6.50085">
        <ele>1378</ele>
        <time>2019-08-29T17:03:56.000Z</time>
      </trkpt>
      <trkpt lat="46.03661" lon="6.50085">
        <ele>1378.1999511719</ele>
        <time>2019-08-29T17:03:57.000Z</time>
      </trkpt>
      <trkpt lat="46.0366" lon="6.50085">
        <ele>1378.4000244141</ele>
        <time>2019-08-29T17:03:58.000Z</time>
      </trkpt>
      <trkpt lat="46.03659" lon="6.50085">
        <ele>1378.5999755859</ele>
        <time>2019-08-29T17:03:59.000Z</time>
      </trkpt>
      <trkpt lat="46.03656" lon="6.50084">
        <ele>1379</ele>
        <time>2019-08-29T17:04:02.000Z</time>
      </trkpt>
      <trkpt lat="46.03652" lon="6.50084">
        <ele>1379.5999755859</ele>
        <time>2019-08-29T17:04:07.000Z</time>
      </trkpt>
      <trkpt lat="46.03649" lon="6.50083">
        <ele>1380</ele>
        <time>2019-08-29T17:04:09.000Z</time>
      </trkpt>
      <trkpt lat="46.03647" lon="6.50083">
        <ele>1380.5999755859</ele>
        <time>2019-08-29T17:04:11.000Z</time>
      </trkpt>
      <trkpt lat="46.03642" lon="6.50083">
        <ele>1381.5999755859</ele>
        <time>2019-08-29T17:04:16.000Z</time>
      </trkpt>
      <trkpt lat="46.03641" lon="6.50084">
        <ele>1381.8000488281</ele>
        <time>2019-08-29T17:04:17.000Z</time>
      </trkpt>
      <trkpt lat="46.03637" lon="6.50083">
        <ele>1382.5999755859</ele>
        <time>2019-08-29T17:04:22.000Z</time>
      </trkpt>
      <trkpt lat="46.03634" lon="6.50082">
        <ele>1383.1999511719</ele>
        <time>2019-08-29T17:04:25.000Z</time>
      </trkpt>
      <trkpt lat="46.03631" lon="6.50081">
        <ele>1383.8000488281</ele>
        <time>2019-08-29T17:04:28.000Z</time>
      </trkpt>
      <trkpt lat="46.03626" lon="6.50081">
        <ele>1384.5999755859</ele>
        <time>2019-08-29T17:04:33.000Z</time>
      </trkpt>
      <trkpt lat="46.03624" lon="6.50081">
        <ele>1384.8000488281</ele>
        <time>2019-08-29T17:04:35.000Z</time>
      </trkpt>
      <trkpt lat="46.0362" lon="6.50083">
        <ele>1385.4000244141</ele>
        <time>2019-08-29T17:04:40.000Z</time>
      </trkpt>
      <trkpt lat="46.03616" lon="6.50086">
        <ele>1386</ele>
        <time>2019-08-29T17:04:44.000Z</time>
      </trkpt>
      <trkpt lat="46.0361" lon="6.50086">
        <ele>1386.5999755859</ele>
        <time>2019-08-29T17:04:48.000Z</time>
      </trkpt>
      <trkpt lat="46.03607" lon="6.50086">
        <ele>1387.1999511719</ele>
        <time>2019-08-29T17:04:51.000Z</time>
      </trkpt>
      <trkpt lat="46.036" lon="6.5009">
        <ele>1387.1999511719</ele>
        <time>2019-08-29T17:04:57.000Z</time>
      </trkpt>
      <trkpt lat="46.03592" lon="6.50092">
        <ele>1387.8000488281</ele>
        <time>2019-08-29T17:05:05.000Z</time>
      </trkpt>
      <trkpt lat="46.03588" lon="6.50094">
        <ele>1388.1999511719</ele>
        <time>2019-08-29T17:05:09.000Z</time>
      </trkpt>
      <trkpt lat="46.03586" lon="6.50094">
        <ele>1388.4000244141</ele>
        <time>2019-08-29T17:05:11.000Z</time>
      </trkpt>
      <trkpt lat="46.0358" lon="6.50097">
        <ele>1389.4000244141</ele>
        <time>2019-08-29T17:05:18.000Z</time>
      </trkpt>
      <trkpt lat="46.03579" lon="6.50097">
        <ele>1389.5999755859</ele>
        <time>2019-08-29T17:05:19.000Z</time>
      </trkpt>
      <trkpt lat="46.03575" lon="6.50099">
        <ele>1390</ele>
        <time>2019-08-29T17:05:24.000Z</time>
      </trkpt>
      <trkpt lat="46.03574" lon="6.50099">
        <ele>1390.1999511719</ele>
        <time>2019-08-29T17:05:25.000Z</time>
      </trkpt>
      <trkpt lat="46.03573" lon="6.50099">
        <ele>1390.4000244141</ele>
        <time>2019-08-29T17:05:26.000Z</time>
      </trkpt>
      <trkpt lat="46.03571" lon="6.50099">
        <ele>1390.5999755859</ele>
        <time>2019-08-29T17:05:28.000Z</time>
      </trkpt>
      <trkpt lat="46.03566" lon="6.501">
        <ele>1391.1999511719</ele>
        <time>2019-08-29T17:05:32.000Z</time>
      </trkpt>
      <trkpt lat="46.03565" lon="6.501">
        <ele>1391.4000244141</ele>
        <time>2019-08-29T17:05:34.000Z</time>
      </trkpt>
      <trkpt lat="46.03563" lon="6.501">
        <ele>1391.4000244141</ele>
        <time>2019-08-29T17:05:36.000Z</time>
      </trkpt>
      <trkpt lat="46.03561" lon="6.501">
        <ele>1391.4000244141</ele>
        <time>2019-08-29T17:05:38.000Z</time>
      </trkpt>
      <trkpt lat="46.03556" lon="6.50099">
        <ele>1391.8000488281</ele>
        <time>2019-08-29T17:05:42.000Z</time>
      </trkpt>
      <trkpt lat="46.03555" lon="6.501">
        <ele>1392</ele>
        <time>2019-08-29T17:05:43.000Z</time>
      </trkpt>
      <trkpt lat="46.03554" lon="6.501">
        <ele>1392.1999511719</ele>
        <time>2019-08-29T17:05:44.000Z</time>
      </trkpt>
      <trkpt lat="46.03552" lon="6.501">
        <ele>1392.1999511719</ele>
        <time>2019-08-29T17:05:46.000Z</time>
      </trkpt>
      <trkpt lat="46.03543" lon="6.50099">
        <ele>1392.8000488281</ele>
        <time>2019-08-29T17:05:55.000Z</time>
      </trkpt>
      <trkpt lat="46.03542" lon="6.50099">
        <ele>1393</ele>
        <time>2019-08-29T17:05:56.000Z</time>
      </trkpt>
      <trkpt lat="46.0354" lon="6.501">
        <ele>1393.4000244141</ele>
        <time>2019-08-29T17:06:00.000Z</time>
      </trkpt>
      <trkpt lat="46.03538" lon="6.501">
        <ele>1393.5999755859</ele>
        <time>2019-08-29T17:06:02.000Z</time>
      </trkpt>
      <trkpt lat="46.03538" lon="6.501">
        <ele>1393.4000244141</ele>
        <time>2019-08-29T17:06:03.000Z</time>
      </trkpt>
      <trkpt lat="46.03534" lon="6.50101">
        <ele>1394</ele>
        <time>2019-08-29T17:06:07.000Z</time>
      </trkpt>
      <trkpt lat="46.03531" lon="6.50102">
        <ele>1394.1999511719</ele>
        <time>2019-08-29T17:06:09.000Z</time>
      </trkpt>
      <trkpt lat="46.03524" lon="6.50104">
        <ele>1395</ele>
        <time>2019-08-29T17:06:16.000Z</time>
      </trkpt>
      <trkpt lat="46.03523" lon="6.50104">
        <ele>1395</ele>
        <time>2019-08-29T17:06:17.000Z</time>
      </trkpt>
      <trkpt lat="46.03516" lon="6.50108">
        <ele>1395.8000488281</ele>
        <time>2019-08-29T17:06:23.000Z</time>
      </trkpt>
      <trkpt lat="46.03512" lon="6.5011">
        <ele>1396</ele>
        <time>2019-08-29T17:06:26.000Z</time>
      </trkpt>
      <trkpt lat="46.03508" lon="6.50111">
        <ele>1396.4000244141</ele>
        <time>2019-08-29T17:06:30.000Z</time>
      </trkpt>
      <trkpt lat="46.03502" lon="6.50116">
        <ele>1396.8000488281</ele>
        <time>2019-08-29T17:06:35.000Z</time>
      </trkpt>
      <trkpt lat="46.035" lon="6.50116">
        <ele>1397</ele>
        <time>2019-08-29T17:06:37.000Z</time>
      </trkpt>
      <trkpt lat="46.03498" lon="6.50116">
        <ele>1397.1999511719</ele>
        <time>2019-08-29T17:06:39.000Z</time>
      </trkpt>
      <trkpt lat="46.03494" lon="6.50116">
        <ele>1397.8000488281</ele>
        <time>2019-08-29T17:06:44.000Z</time>
      </trkpt>
      <trkpt lat="46.03492" lon="6.50115">
        <ele>1398</ele>
        <time>2019-08-29T17:06:46.000Z</time>
      </trkpt>
      <trkpt lat="46.03491" lon="6.50116">
        <ele>1398.4000244141</ele>
        <time>2019-08-29T17:06:47.000Z</time>
      </trkpt>
      <trkpt lat="46.03487" lon="6.50117">
        <ele>1399.1999511719</ele>
        <time>2019-08-29T17:06:51.000Z</time>
      </trkpt>
      <trkpt lat="46.03485" lon="6.50117">
        <ele>1399.4000244141</ele>
        <time>2019-08-29T17:06:52.000Z</time>
      </trkpt>
      <trkpt lat="46.03484" lon="6.50117">
        <ele>1399.5999755859</ele>
        <time>2019-08-29T17:06:53.000Z</time>
      </trkpt>
      <trkpt lat="46.03479" lon="6.50118">
        <ele>1400.4000244141</ele>
        <time>2019-08-29T17:06:57.000Z</time>
      </trkpt>
      <trkpt lat="46.03478" lon="6.50119">
        <ele>1400.5999755859</ele>
        <time>2019-08-29T17:06:58.000Z</time>
      </trkpt>
      <trkpt lat="46.03476" lon="6.50118">
        <ele>1400.8000488281</ele>
        <time>2019-08-29T17:07:00.000Z</time>
      </trkpt>
      <trkpt lat="46.03469" lon="6.50119">
        <ele>1401.1999511719</ele>
        <time>2019-08-29T17:07:07.000Z</time>
      </trkpt>
      <trkpt lat="46.03467" lon="6.5012">
        <ele>1401.8000488281</ele>
        <time>2019-08-29T17:07:11.000Z</time>
      </trkpt>
      <trkpt lat="46.03462" lon="6.50123">
        <ele>1402.5999755859</ele>
        <time>2019-08-29T17:07:16.000Z</time>
      </trkpt>
      <trkpt lat="46.03458" lon="6.50123">
        <ele>1402.8000488281</ele>
        <time>2019-08-29T17:07:19.000Z</time>
      </trkpt>
      <trkpt lat="46.03454" lon="6.50124">
        <ele>1403.4000244141</ele>
        <time>2019-08-29T17:07:23.000Z</time>
      </trkpt>
      <trkpt lat="46.03453" lon="6.50125">
        <ele>1403.5999755859</ele>
        <time>2019-08-29T17:07:24.000Z</time>
      </trkpt>
      <trkpt lat="46.03452" lon="6.50125">
        <ele>1403.8000488281</ele>
        <time>2019-08-29T17:07:25.000Z</time>
      </trkpt>
      <trkpt lat="46.03446" lon="6.50127">
        <ele>1404.5999755859</ele>
        <time>2019-08-29T17:07:30.000Z</time>
      </trkpt>
      <trkpt lat="46.03442" lon="6.50128">
        <ele>1405</ele>
        <time>2019-08-29T17:07:33.000Z</time>
      </trkpt>
      <trkpt lat="46.03439" lon="6.50128">
        <ele>1405.5999755859</ele>
        <time>2019-08-29T17:07:36.000Z</time>
      </trkpt>
      <trkpt lat="46.03436" lon="6.50128">
        <ele>1406</ele>
        <time>2019-08-29T17:07:39.000Z</time>
      </trkpt>
      <trkpt lat="46.03432" lon="6.50128">
        <ele>1406.5999755859</ele>
        <time>2019-08-29T17:07:44.000Z</time>
      </trkpt>
      <trkpt lat="46.03429" lon="6.50127">
        <ele>1407</ele>
        <time>2019-08-29T17:07:47.000Z</time>
      </trkpt>
      <trkpt lat="46.03423" lon="6.50126">
        <ele>1407.8000488281</ele>
        <time>2019-08-29T17:07:53.000Z</time>
      </trkpt>
      <trkpt lat="46.0342" lon="6.50126">
        <ele>1408.1999511719</ele>
        <time>2019-08-29T17:07:56.000Z</time>
      </trkpt>
      <trkpt lat="46.03419" lon="6.50127">
        <ele>1408.4000244141</ele>
        <time>2019-08-29T17:07:58.000Z</time>
      </trkpt>
      <trkpt lat="46.03418" lon="6.50129">
        <ele>1408.5999755859</ele>
        <time>2019-08-29T17:07:59.000Z</time>
      </trkpt>
      <trkpt lat="46.03416" lon="6.50131">
        <ele>1409.1999511719</ele>
        <time>2019-08-29T17:08:04.000Z</time>
      </trkpt>
      <trkpt lat="46.03416" lon="6.50131">
        <ele>1409.5999755859</ele>
        <time>2019-08-29T17:08:05.000Z</time>
      </trkpt>
      <trkpt lat="46.03414" lon="6.50135">
        <ele>1410.1999511719</ele>
        <time>2019-08-29T17:08:09.000Z</time>
      </trkpt>
      <trkpt lat="46.03411" lon="6.50137">
        <ele>1410.1999511719</ele>
        <time>2019-08-29T17:08:12.000Z</time>
      </trkpt>
      <trkpt lat="46.03409" lon="6.50139">
        <ele>1410.1999511719</ele>
        <time>2019-08-29T17:08:14.000Z</time>
      </trkpt>
      <trkpt lat="46.03406" lon="6.50145">
        <ele>1411</ele>
        <time>2019-08-29T17:08:19.000Z</time>
      </trkpt>
      <trkpt lat="46.03405" lon="6.50148">
        <ele>1411.4000244141</ele>
        <time>2019-08-29T17:08:21.000Z</time>
      </trkpt>
      <trkpt lat="46.03403" lon="6.50156">
        <ele>1412</ele>
        <time>2019-08-29T17:08:26.000Z</time>
      </trkpt>
      <trkpt lat="46.03403" lon="6.50161">
        <ele>1412.4000244141</ele>
        <time>2019-08-29T17:08:29.000Z</time>
      </trkpt>
      <trkpt lat="46.03396" lon="6.50169">
        <ele>1413.1999511719</ele>
        <time>2019-08-29T17:08:35.000Z</time>
      </trkpt>
      <trkpt lat="46.03392" lon="6.5017">
        <ele>1413.5999755859</ele>
        <time>2019-08-29T17:08:37.000Z</time>
      </trkpt>
      <trkpt lat="46.03389" lon="6.50175">
        <ele>1414.4000244141</ele>
        <time>2019-08-29T17:08:41.000Z</time>
      </trkpt>
      <trkpt lat="46.03388" lon="6.50177">
        <ele>1414.8000488281</ele>
        <time>2019-08-29T17:08:42.000Z</time>
      </trkpt>
      <trkpt lat="46.03387" lon="6.50182">
        <ele>1415.8000488281</ele>
        <time>2019-08-29T17:08:46.000Z</time>
      </trkpt>
      <trkpt lat="46.03387" lon="6.50183">
        <ele>1416</ele>
        <time>2019-08-29T17:08:47.000Z</time>
      </trkpt>
      <trkpt lat="46.03383" lon="6.50194">
        <ele>1416.5999755859</ele>
        <time>2019-08-29T17:08:54.000Z</time>
      </trkpt>
      <trkpt lat="46.03383" lon="6.50196">
        <ele>1417</ele>
        <time>2019-08-29T17:08:55.000Z</time>
      </trkpt>
      <trkpt lat="46.03381" lon="6.502">
        <ele>1417.8000488281</ele>
        <time>2019-08-29T17:08:59.000Z</time>
      </trkpt>
      <trkpt lat="46.03379" lon="6.50202">
        <ele>1418</ele>
        <time>2019-08-29T17:09:01.000Z</time>
      </trkpt>
      <trkpt lat="46.03377" lon="6.50206">
        <ele>1418.4000244141</ele>
        <time>2019-08-29T17:09:03.000Z</time>
      </trkpt>
      <trkpt lat="46.03375" lon="6.5021">
        <ele>1418.8000488281</ele>
        <time>2019-08-29T17:09:05.000Z</time>
      </trkpt>
      <trkpt lat="46.03374" lon="6.50215">
        <ele>1419</ele>
        <time>2019-08-29T17:09:07.000Z</time>
      </trkpt>
      <trkpt lat="46.03372" lon="6.50222">
        <ele>1419.8000488281</ele>
        <time>2019-08-29T17:09:10.000Z</time>
      </trkpt>
      <trkpt lat="46.0337" lon="6.50226">
        <ele>1420.1999511719</ele>
        <time>2019-08-29T17:09:12.000Z</time>
      </trkpt>
      <trkpt lat="46.03365" lon="6.50236">
        <ele>1421.1999511719</ele>
        <time>2019-08-29T17:09:17.000Z</time>
      </trkpt>
      <trkpt lat="46.0336" lon="6.50239">
        <ele>1421.4000244141</ele>
        <time>2019-08-29T17:09:20.000Z</time>
      </trkpt>
      <trkpt lat="46.03347" lon="6.50244">
        <ele>1422.4000244141</ele>
        <time>2019-08-29T17:09:26.000Z</time>
      </trkpt>
      <trkpt lat="46.03343" lon="6.50245">
        <ele>1422.8000488281</ele>
        <time>2019-08-29T17:09:28.000Z</time>
      </trkpt>
      <trkpt lat="46.03339" lon="6.50249">
        <ele>1423.1999511719</ele>
        <time>2019-08-29T17:09:32.000Z</time>
      </trkpt>
      <trkpt lat="46.03338" lon="6.50249">
        <ele>1423.1999511719</ele>
        <time>2019-08-29T17:09:33.000Z</time>
      </trkpt>
      <trkpt lat="46.03338" lon="6.50251">
        <ele>1423.4000244141</ele>
        <time>2019-08-29T17:09:35.000Z</time>
      </trkpt>
      <trkpt lat="46.03338" lon="6.50252">
        <ele>1424.1999511719</ele>
        <time>2019-08-29T17:09:38.000Z</time>
      </trkpt>
      <trkpt lat="46.03336" lon="6.50252">
        <ele>1424.1999511719</ele>
        <time>2019-08-29T17:09:39.000Z</time>
      </trkpt>
      <trkpt lat="46.03335" lon="6.5025">
        <ele>1424.5999755859</ele>
        <time>2019-08-29T17:09:42.000Z</time>
      </trkpt>
      <trkpt lat="46.0333" lon="6.50249">
        <ele>1425.4000244141</ele>
        <time>2019-08-29T17:09:45.000Z</time>
      </trkpt>
      <trkpt lat="46.03329" lon="6.50249">
        <ele>1425.5999755859</ele>
        <time>2019-08-29T17:09:46.000Z</time>
      </trkpt>
      <trkpt lat="46.0333" lon="6.50249">
        <ele>1425.8000488281</ele>
        <time>2019-08-29T17:09:47.000Z</time>
      </trkpt>
      <trkpt lat="46.03328" lon="6.50251">
        <ele>1426</ele>
        <time>2019-08-29T17:09:50.000Z</time>
      </trkpt>
      <trkpt lat="46.03327" lon="6.50253">
        <ele>1426.4000244141</ele>
        <time>2019-08-29T17:09:53.000Z</time>
      </trkpt>
      <trkpt lat="46.03327" lon="6.50253">
        <ele>1426.4000244141</ele>
        <time>2019-08-29T17:09:54.000Z</time>
      </trkpt>
      <trkpt lat="46.03325" lon="6.50257">
        <ele>1426.8000488281</ele>
        <time>2019-08-29T17:09:57.000Z</time>
      </trkpt>
      <trkpt lat="46.03325" lon="6.50258">
        <ele>1427.1999511719</ele>
        <time>2019-08-29T17:09:58.000Z</time>
      </trkpt>
      <trkpt lat="46.03324" lon="6.50261">
        <ele>1427.5999755859</ele>
        <time>2019-08-29T17:10:00.000Z</time>
      </trkpt>
      <trkpt lat="46.03323" lon="6.50263">
        <ele>1428</ele>
        <time>2019-08-29T17:10:02.000Z</time>
      </trkpt>
      <trkpt lat="46.03322" lon="6.50264">
        <ele>1428.4000244141</ele>
        <time>2019-08-29T17:10:04.000Z</time>
      </trkpt>
      <trkpt lat="46.03322" lon="6.50265">
        <ele>1428.5999755859</ele>
        <time>2019-08-29T17:10:05.000Z</time>
      </trkpt>
      <trkpt lat="46.03321" lon="6.50265">
        <ele>1429</ele>
        <time>2019-08-29T17:10:07.000Z</time>
      </trkpt>
      <trkpt lat="46.03321" lon="6.50266">
        <ele>1429.1999511719</ele>
        <time>2019-08-29T17:10:08.000Z</time>
      </trkpt>
      <trkpt lat="46.0332" lon="6.50267">
        <ele>1429.4000244141</ele>
        <time>2019-08-29T17:10:09.000Z</time>
      </trkpt>
      <trkpt lat="46.03318" lon="6.50271">
        <ele>1430</ele>
        <time>2019-08-29T17:10:13.000Z</time>
      </trkpt>
      <trkpt lat="46.03317" lon="6.50273">
        <ele>1430.1999511719</ele>
        <time>2019-08-29T17:10:14.000Z</time>
      </trkpt>
      <trkpt lat="46.03317" lon="6.50273">
        <ele>1430.4000244141</ele>
        <time>2019-08-29T17:10:16.000Z</time>
      </trkpt>
      <trkpt lat="46.03317" lon="6.50273">
        <ele>1430.5999755859</ele>
        <time>2019-08-29T17:10:18.000Z</time>
      </trkpt>
      <trkpt lat="46.03316" lon="6.50273">
        <ele>1430.8000488281</ele>
        <time>2019-08-29T17:10:19.000Z</time>
      </trkpt>
      <trkpt lat="46.03314" lon="6.50273">
        <ele>1431.1999511719</ele>
        <time>2019-08-29T17:10:21.000Z</time>
      </trkpt>
      <trkpt lat="46.03311" lon="6.50275">
        <ele>1432.1999511719</ele>
        <time>2019-08-29T17:10:25.000Z</time>
      </trkpt>
      <trkpt lat="46.03311" lon="6.50276">
        <ele>1432.1999511719</ele>
        <time>2019-08-29T17:10:26.000Z</time>
      </trkpt>
      <trkpt lat="46.0331" lon="6.50277">
        <ele>1432.4000244141</ele>
        <time>2019-08-29T17:10:27.000Z</time>
      </trkpt>
      <trkpt lat="46.03309" lon="6.50282">
        <ele>1432.8000488281</ele>
        <time>2019-08-29T17:10:31.000Z</time>
      </trkpt>
      <trkpt lat="46.03309" lon="6.50283">
        <ele>1433.1999511719</ele>
        <time>2019-08-29T17:10:33.000Z</time>
      </trkpt>
      <trkpt lat="46.03309" lon="6.50285">
        <ele>1433.4000244141</ele>
        <time>2019-08-29T17:10:34.000Z</time>
      </trkpt>
      <trkpt lat="46.03303" lon="6.50292">
        <ele>1434.4000244141</ele>
        <time>2019-08-29T17:10:41.000Z</time>
      </trkpt>
      <trkpt lat="46.03302" lon="6.50293">
        <ele>1434.5999755859</ele>
        <time>2019-08-29T17:10:42.000Z</time>
      </trkpt>
      <trkpt lat="46.03301" lon="6.50293">
        <ele>1434.8000488281</ele>
        <time>2019-08-29T17:10:44.000Z</time>
      </trkpt>
      <trkpt lat="46.03301" lon="6.50295">
        <ele>1435</ele>
        <time>2019-08-29T17:10:47.000Z</time>
      </trkpt>
      <trkpt lat="46.033" lon="6.50296">
        <ele>1435</ele>
        <time>2019-08-29T17:10:48.000Z</time>
      </trkpt>
      <trkpt lat="46.03297" lon="6.50299">
        <ele>1435.4000244141</ele>
        <time>2019-08-29T17:10:51.000Z</time>
      </trkpt>
      <trkpt lat="46.03297" lon="6.503">
        <ele>1435.4000244141</ele>
        <time>2019-08-29T17:10:52.000Z</time>
      </trkpt>
      <trkpt lat="46.03296" lon="6.50301">
        <ele>1435.4000244141</ele>
        <time>2019-08-29T17:10:53.000Z</time>
      </trkpt>
      <trkpt lat="46.03293" lon="6.50304">
        <ele>1435.4000244141</ele>
        <time>2019-08-29T17:10:57.000Z</time>
      </trkpt>
      <trkpt lat="46.03291" lon="6.50305">
        <ele>1435.5999755859</ele>
        <time>2019-08-29T17:10:59.000Z</time>
      </trkpt>
      <trkpt lat="46.03289" lon="6.50306">
        <ele>1436.4000244141</ele>
        <time>2019-08-29T17:11:03.000Z</time>
      </trkpt>
      <trkpt lat="46.03288" lon="6.50307">
        <ele>1436.8000488281</ele>
        <time>2019-08-29T17:11:04.000Z</time>
      </trkpt>
      <trkpt lat="46.03288" lon="6.50307">
        <ele>1437</ele>
        <time>2019-08-29T17:11:05.000Z</time>
      </trkpt>
      <trkpt lat="46.03286" lon="6.50308">
        <ele>1437.1999511719</ele>
        <time>2019-08-29T17:11:08.000Z</time>
      </trkpt>
      <trkpt lat="46.03286" lon="6.50309">
        <ele>1437</ele>
        <time>2019-08-29T17:11:09.000Z</time>
      </trkpt>
      <trkpt lat="46.03285" lon="6.50312">
        <ele>1436.8000488281</ele>
        <time>2019-08-29T17:11:11.000Z</time>
      </trkpt>
      <trkpt lat="46.03284" lon="6.50317">
        <ele>1436.8000488281</ele>
        <time>2019-08-29T17:11:14.000Z</time>
      </trkpt>
      <trkpt lat="46.0328" lon="6.5032">
        <ele>1437.5999755859</ele>
        <time>2019-08-29T17:11:18.000Z</time>
      </trkpt>
      <trkpt lat="46.03279" lon="6.50321">
        <ele>1437.8000488281</ele>
        <time>2019-08-29T17:11:19.000Z</time>
      </trkpt>
      <trkpt lat="46.03278" lon="6.50322">
        <ele>1437.8000488281</ele>
        <time>2019-08-29T17:11:20.000Z</time>
      </trkpt>
      <trkpt lat="46.03276" lon="6.50323">
        <ele>1438</ele>
        <time>2019-08-29T17:11:24.000Z</time>
      </trkpt>
      <trkpt lat="46.03275" lon="6.50325">
        <ele>1438.1999511719</ele>
        <time>2019-08-29T17:11:27.000Z</time>
      </trkpt>
      <trkpt lat="46.03274" lon="6.50328">
        <ele>1438.1999511719</ele>
        <time>2019-08-29T17:11:30.000Z</time>
      </trkpt>
      <trkpt lat="46.03275" lon="6.50333">
        <ele>1438</ele>
        <time>2019-08-29T17:11:33.000Z</time>
      </trkpt>
      <trkpt lat="46.03274" lon="6.50334">
        <ele>1438</ele>
        <time>2019-08-29T17:11:34.000Z</time>
      </trkpt>
      <trkpt lat="46.03274" lon="6.50336">
        <ele>1438</ele>
        <time>2019-08-29T17:11:35.000Z</time>
      </trkpt>
      <trkpt lat="46.03274" lon="6.50339">
        <ele>1438</ele>
        <time>2019-08-29T17:11:37.000Z</time>
      </trkpt>
      <trkpt lat="46.03273" lon="6.5034">
        <ele>1438</ele>
        <time>2019-08-29T17:11:38.000Z</time>
      </trkpt>
      <trkpt lat="46.03271" lon="6.50342">
        <ele>1438</ele>
        <time>2019-08-29T17:11:40.000Z</time>
      </trkpt>
      <trkpt lat="46.0327" lon="6.50343">
        <ele>1438</ele>
        <time>2019-08-29T17:11:41.000Z</time>
      </trkpt>
      <trkpt lat="46.03267" lon="6.50347">
        <ele>1437.8000488281</ele>
        <time>2019-08-29T17:11:45.000Z</time>
      </trkpt>
      <trkpt lat="46.03266" lon="6.50348">
        <ele>1437.5999755859</ele>
        <time>2019-08-29T17:11:47.000Z</time>
      </trkpt>
      <trkpt lat="46.03266" lon="6.5035">
        <ele>1437.4000244141</ele>
        <time>2019-08-29T17:11:49.000Z</time>
      </trkpt>
      <trkpt lat="46.03266" lon="6.50351">
        <ele>1437.1999511719</ele>
        <time>2019-08-29T17:11:50.000Z</time>
      </trkpt>
      <trkpt lat="46.03261" lon="6.50353">
        <ele>1437</ele>
        <time>2019-08-29T17:11:53.000Z</time>
      </trkpt>
      <trkpt lat="46.03258" lon="6.50353">
        <ele>1437</ele>
        <time>2019-08-29T17:11:54.000Z</time>
      </trkpt>
      <trkpt lat="46.03246" lon="6.50357">
        <ele>1437</ele>
        <time>2019-08-29T17:11:59.000Z</time>
      </trkpt>
      <trkpt lat="46.03243" lon="6.50357">
        <ele>1436.5999755859</ele>
        <time>2019-08-29T17:12:02.000Z</time>
      </trkpt>
      <trkpt lat="46.03239" lon="6.50357">
        <ele>1436</ele>
        <time>2019-08-29T17:12:05.000Z</time>
      </trkpt>
      <trkpt lat="46.03237" lon="6.50358">
        <ele>1436</ele>
        <time>2019-08-29T17:12:06.000Z</time>
      </trkpt>
      <trkpt lat="46.03232" lon="6.50356">
        <ele>1435.8000488281</ele>
        <time>2019-08-29T17:12:09.000Z</time>
      </trkpt>
      <trkpt lat="46.0323" lon="6.50356">
        <ele>1435.8000488281</ele>
        <time>2019-08-29T17:12:10.000Z</time>
      </trkpt>
      <trkpt lat="46.03221" lon="6.50352">
        <ele>1435.5999755859</ele>
        <time>2019-08-29T17:12:15.000Z</time>
      </trkpt>
      <trkpt lat="46.03219" lon="6.50352">
        <ele>1435</ele>
        <time>2019-08-29T17:12:18.000Z</time>
      </trkpt>
      <trkpt lat="46.0322" lon="6.50354">
        <ele>1434.4000244141</ele>
        <time>2019-08-29T17:12:20.000Z</time>
      </trkpt>
      <trkpt lat="46.03222" lon="6.50356">
        <ele>1434</ele>
        <time>2019-08-29T17:12:21.000Z</time>
      </trkpt>
      <trkpt lat="46.03226" lon="6.5036">
        <ele>1433.8000488281</ele>
        <time>2019-08-29T17:12:23.000Z</time>
      </trkpt>
      <trkpt lat="46.03228" lon="6.50362">
        <ele>1433.4000244141</ele>
        <time>2019-08-29T17:12:24.000Z</time>
      </trkpt>
      <trkpt lat="46.0323" lon="6.50364">
        <ele>1433.1999511719</ele>
        <time>2019-08-29T17:12:25.000Z</time>
      </trkpt>
      <trkpt lat="46.03235" lon="6.50365">
        <ele>1432.5999755859</ele>
        <time>2019-08-29T17:12:28.000Z</time>
      </trkpt>
      <trkpt lat="46.03243" lon="6.5037">
        <ele>1432.4000244141</ele>
        <time>2019-08-29T17:12:36.000Z</time>
      </trkpt>
      <trkpt lat="46.03244" lon="6.50373">
        <ele>1431.8000488281</ele>
        <time>2019-08-29T17:12:39.000Z</time>
      </trkpt>
      <trkpt lat="46.03252" lon="6.50383">
        <ele>1431.4000244141</ele>
        <time>2019-08-29T17:12:46.000Z</time>
      </trkpt>
      <trkpt lat="46.03258" lon="6.5039">
        <ele>1431.4000244141</ele>
        <time>2019-08-29T17:12:52.000Z</time>
      </trkpt>
      <trkpt lat="46.03264" lon="6.50398">
        <ele>1431.4000244141</ele>
        <time>2019-08-29T17:12:57.000Z</time>
      </trkpt>
      <trkpt lat="46.03264" lon="6.50399">
        <ele>1431.5999755859</ele>
        <time>2019-08-29T17:12:58.000Z</time>
      </trkpt>
      <trkpt lat="46.03269" lon="6.50394">
        <ele>1431.4000244141</ele>
        <time>2019-08-29T17:13:02.000Z</time>
      </trkpt>
      <trkpt lat="46.03272" lon="6.50396">
        <ele>1431</ele>
        <time>2019-08-29T17:13:06.000Z</time>
      </trkpt>
      <trkpt lat="46.03274" lon="6.50401">
        <ele>1430.8000488281</ele>
        <time>2019-08-29T17:13:09.000Z</time>
      </trkpt>
      <trkpt lat="46.03276" lon="6.50406">
        <ele>1430.8000488281</ele>
        <time>2019-08-29T17:13:14.000Z</time>
      </trkpt>
      <trkpt lat="46.03277" lon="6.50406">
        <ele>1431</ele>
        <time>2019-08-29T17:13:17.000Z</time>
      </trkpt>
      <trkpt lat="46.03276" lon="6.50403">
        <ele>1431</ele>
        <time>2019-08-29T17:13:22.000Z</time>
      </trkpt>
      <trkpt lat="46.03283" lon="6.50389">
        <ele>1431</ele>
        <time>2019-08-29T17:13:27.000Z</time>
      </trkpt>
      <trkpt lat="46.03284" lon="6.50388">
        <ele>1431.1999511719</ele>
        <time>2019-08-29T17:13:33.000Z</time>
      </trkpt>
      <trkpt lat="46.03281" lon="6.50398">
        <ele>1431.1999511719</ele>
        <time>2019-08-29T17:13:38.000Z</time>
      </trkpt>
      <trkpt lat="46.0328" lon="6.50397">
        <ele>1431</ele>
        <time>2019-08-29T17:13:41.000Z</time>
      </trkpt>
      <trkpt lat="46.03278" lon="6.50399">
        <ele>1431</ele>
        <time>2019-08-29T17:13:45.000Z</time>
      </trkpt>
      <trkpt lat="46.03273" lon="6.50402">
        <ele>1431</ele>
        <time>2019-08-29T17:13:55.000Z</time>
      </trkpt>
      <trkpt lat="46.03265" lon="6.50403">
        <ele>1431.1999511719</ele>
        <time>2019-08-29T17:14:05.000Z</time>
      </trkpt>
      <trkpt lat="46.03258" lon="6.50399">
        <ele>1431.1999511719</ele>
        <time>2019-08-29T17:14:12.000Z</time>
      </trkpt>
      <trkpt lat="46.03248" lon="6.50395">
        <ele>1431.1999511719</ele>
        <time>2019-08-29T17:14:16.000Z</time>
      </trkpt>
      <trkpt lat="46.03244" lon="6.50392">
        <ele>1432.4000244141</ele>
        <time>2019-08-29T17:14:19.000Z</time>
      </trkpt>
      <trkpt lat="46.0324" lon="6.50385">
        <ele>1432.1999511719</ele>
        <time>2019-08-29T17:14:23.000Z</time>
      </trkpt>
      <trkpt lat="46.03238" lon="6.50383">
        <ele>1432</ele>
        <time>2019-08-29T17:14:25.000Z</time>
      </trkpt>
      <trkpt lat="46.03235" lon="6.5038">
        <ele>1431.4000244141</ele>
        <time>2019-08-29T17:14:28.000Z</time>
      </trkpt>
      <trkpt lat="46.03235" lon="6.50378">
        <ele>1431</ele>
        <time>2019-08-29T17:14:29.000Z</time>
      </trkpt>
      <trkpt lat="46.03233" lon="6.50375">
        <ele>1431.4000244141</ele>
        <time>2019-08-29T17:14:31.000Z</time>
      </trkpt>
      <trkpt lat="46.03231" lon="6.50372">
        <ele>1432.5999755859</ele>
        <time>2019-08-29T17:14:33.000Z</time>
      </trkpt>
      <trkpt lat="46.03229" lon="6.50371">
        <ele>1433.4000244141</ele>
        <time>2019-08-29T17:14:36.000Z</time>
      </trkpt>
      <trkpt lat="46.03226" lon="6.50367">
        <ele>1433.4000244141</ele>
        <time>2019-08-29T17:14:39.000Z</time>
      </trkpt>
      <trkpt lat="46.03222" lon="6.50359">
        <ele>1433.4000244141</ele>
        <time>2019-08-29T17:14:45.000Z</time>
      </trkpt>
      <trkpt lat="46.03221" lon="6.50356">
        <ele>1433.4000244141</ele>
        <time>2019-08-29T17:14:47.000Z</time>
      </trkpt>
      <trkpt lat="46.03214" lon="6.50351">
        <ele>1433.5999755859</ele>
        <time>2019-08-29T17:14:54.000Z</time>
      </trkpt>
      <trkpt lat="46.03211" lon="6.5035">
        <ele>1433.8000488281</ele>
        <time>2019-08-29T17:14:56.000Z</time>
      </trkpt>
      <trkpt lat="46.03202" lon="6.50345">
        <ele>1433.4000244141</ele>
        <time>2019-08-29T17:15:05.000Z</time>
      </trkpt>
      <trkpt lat="46.03196" lon="6.50344">
        <ele>1433.4000244141</ele>
        <time>2019-08-29T17:15:09.000Z</time>
      </trkpt>
      <trkpt lat="46.03194" lon="6.50345">
        <ele>1433.4000244141</ele>
        <time>2019-08-29T17:15:11.000Z</time>
      </trkpt>
      <trkpt lat="46.03188" lon="6.50346">
        <ele>1433.4000244141</ele>
        <time>2019-08-29T17:15:16.000Z</time>
      </trkpt>
      <trkpt lat="46.03174" lon="6.50345">
        <ele>1432.8000488281</ele>
        <time>2019-08-29T17:15:25.000Z</time>
      </trkpt>
      <trkpt lat="46.03171" lon="6.50344">
        <ele>1432.5999755859</ele>
        <time>2019-08-29T17:15:28.000Z</time>
      </trkpt>
      <trkpt lat="46.03164" lon="6.50343">
        <ele>1432.4000244141</ele>
        <time>2019-08-29T17:15:33.000Z</time>
      </trkpt>
      <trkpt lat="46.03154" lon="6.50341">
        <ele>1432.4000244141</ele>
        <time>2019-08-29T17:15:40.000Z</time>
      </trkpt>
      <trkpt lat="46.03145" lon="6.50335">
        <ele>1432</ele>
        <time>2019-08-29T17:15:47.000Z</time>
      </trkpt>
      <trkpt lat="46.03136" lon="6.50333">
        <ele>1431.5999755859</ele>
        <time>2019-08-29T17:15:54.000Z</time>
      </trkpt>
      <trkpt lat="46.03134" lon="6.50333">
        <ele>1431.5999755859</ele>
        <time>2019-08-29T17:15:56.000Z</time>
      </trkpt>
      <trkpt lat="46.0313" lon="6.50332">
        <ele>1431</ele>
        <time>2019-08-29T17:16:01.000Z</time>
      </trkpt>
      <trkpt lat="46.03122" lon="6.50329">
        <ele>1431.1999511719</ele>
        <time>2019-08-29T17:16:07.000Z</time>
      </trkpt>
      <trkpt lat="46.03115" lon="6.50321">
        <ele>1431.4000244141</ele>
        <time>2019-08-29T17:16:13.000Z</time>
      </trkpt>
      <trkpt lat="46.03103" lon="6.50317">
        <ele>1431</ele>
        <time>2019-08-29T17:16:21.000Z</time>
      </trkpt>
      <trkpt lat="46.03097" lon="6.50316">
        <ele>1430.4000244141</ele>
        <time>2019-08-29T17:16:26.000Z</time>
      </trkpt>
      <trkpt lat="46.03092" lon="6.50315">
        <ele>1430.4000244141</ele>
        <time>2019-08-29T17:16:29.000Z</time>
      </trkpt>
      <trkpt lat="46.03083" lon="6.50313">
        <ele>1430.1999511719</ele>
        <time>2019-08-29T17:16:37.000Z</time>
      </trkpt>
      <trkpt lat="46.03074" lon="6.50313">
        <ele>1429.1999511719</ele>
        <time>2019-08-29T17:16:43.000Z</time>
      </trkpt>
      <trkpt lat="46.03072" lon="6.50313">
        <ele>1429</ele>
        <time>2019-08-29T17:16:44.000Z</time>
      </trkpt>
      <trkpt lat="46.03063" lon="6.50314">
        <ele>1428.4000244141</ele>
        <time>2019-08-29T17:16:50.000Z</time>
      </trkpt>
      <trkpt lat="46.03061" lon="6.50315">
        <ele>1428.1999511719</ele>
        <time>2019-08-29T17:16:51.000Z</time>
      </trkpt>
      <trkpt lat="46.03058" lon="6.50316">
        <ele>1428</ele>
        <time>2019-08-29T17:16:53.000Z</time>
      </trkpt>
      <trkpt lat="46.03053" lon="6.50316">
        <ele>1427.8000488281</ele>
        <time>2019-08-29T17:16:57.000Z</time>
      </trkpt>
      <trkpt lat="46.0305" lon="6.50319">
        <ele>1427.4000244141</ele>
        <time>2019-08-29T17:17:01.000Z</time>
      </trkpt>
      <trkpt lat="46.0305" lon="6.5032">
        <ele>1427.1999511719</ele>
        <time>2019-08-29T17:17:02.000Z</time>
      </trkpt>
      <trkpt lat="46.03049" lon="6.50321">
        <ele>1427</ele>
        <time>2019-08-29T17:17:03.000Z</time>
      </trkpt>
      <trkpt lat="46.03046" lon="6.50324">
        <ele>1426</ele>
        <time>2019-08-29T17:17:07.000Z</time>
      </trkpt>
      <trkpt lat="46.03043" lon="6.50326">
        <ele>1425.8000488281</ele>
        <time>2019-08-29T17:17:09.000Z</time>
      </trkpt>
      <trkpt lat="46.03041" lon="6.50326">
        <ele>1425.8000488281</ele>
        <time>2019-08-29T17:17:10.000Z</time>
      </trkpt>
      <trkpt lat="46.03038" lon="6.50327">
        <ele>1425.8000488281</ele>
        <time>2019-08-29T17:17:12.000Z</time>
      </trkpt>
      <trkpt lat="46.03035" lon="6.50326">
        <ele>1426</ele>
        <time>2019-08-29T17:17:15.000Z</time>
      </trkpt>
      <trkpt lat="46.03034" lon="6.50327">
        <ele>1426</ele>
        <time>2019-08-29T17:17:16.000Z</time>
      </trkpt>
      <trkpt lat="46.03031" lon="6.5033">
        <ele>1425.8000488281</ele>
        <time>2019-08-29T17:17:19.000Z</time>
      </trkpt>
      <trkpt lat="46.03028" lon="6.50333">
        <ele>1425.5999755859</ele>
        <time>2019-08-29T17:17:22.000Z</time>
      </trkpt>
      <trkpt lat="46.03026" lon="6.50338">
        <ele>1424.8000488281</ele>
        <time>2019-08-29T17:17:28.000Z</time>
      </trkpt>
      <trkpt lat="46.03021" lon="6.50344">
        <ele>1424.5999755859</ele>
        <time>2019-08-29T17:17:32.000Z</time>
      </trkpt>
      <trkpt lat="46.0302" lon="6.50345">
        <ele>1424.5999755859</ele>
        <time>2019-08-29T17:17:33.000Z</time>
      </trkpt>
      <trkpt lat="46.03018" lon="6.50346">
        <ele>1424.5999755859</ele>
        <time>2019-08-29T17:17:34.000Z</time>
      </trkpt>
      <trkpt lat="46.03012" lon="6.50347">
        <ele>1424</ele>
        <time>2019-08-29T17:17:37.000Z</time>
      </trkpt>
      <trkpt lat="46.03009" lon="6.50347">
        <ele>1423.5999755859</ele>
        <time>2019-08-29T17:17:38.000Z</time>
      </trkpt>
      <trkpt lat="46.02996" lon="6.50354">
        <ele>1422.5999755859</ele>
        <time>2019-08-29T17:17:45.000Z</time>
      </trkpt>
      <trkpt lat="46.02992" lon="6.50357">
        <ele>1421.5999755859</ele>
        <time>2019-08-29T17:17:48.000Z</time>
      </trkpt>
      <trkpt lat="46.02987" lon="6.50362">
        <ele>1421.1999511719</ele>
        <time>2019-08-29T17:17:53.000Z</time>
      </trkpt>
      <trkpt lat="46.02982" lon="6.50366">
        <ele>1421</ele>
        <time>2019-08-29T17:17:57.000Z</time>
      </trkpt>
      <trkpt lat="46.02977" lon="6.5037">
        <ele>1420.5999755859</ele>
        <time>2019-08-29T17:18:01.000Z</time>
      </trkpt>
      <trkpt lat="46.02974" lon="6.50374">
        <ele>1420.4000244141</ele>
        <time>2019-08-29T17:18:04.000Z</time>
      </trkpt>
      <trkpt lat="46.02968" lon="6.50378">
        <ele>1420.8000488281</ele>
        <time>2019-08-29T17:18:10.000Z</time>
      </trkpt>
      <trkpt lat="46.02961" lon="6.50382">
        <ele>1421</ele>
        <time>2019-08-29T17:18:14.000Z</time>
      </trkpt>
      <trkpt lat="46.02955" lon="6.50384">
        <ele>1420.8000488281</ele>
        <time>2019-08-29T17:18:17.000Z</time>
      </trkpt>
      <trkpt lat="46.02944" lon="6.50387">
        <ele>1420.5999755859</ele>
        <time>2019-08-29T17:18:24.000Z</time>
      </trkpt>
      <trkpt lat="46.02939" lon="6.50388">
        <ele>1420.4000244141</ele>
        <time>2019-08-29T17:18:27.000Z</time>
      </trkpt>
      <trkpt lat="46.02938" lon="6.5039">
        <ele>1420</ele>
        <time>2019-08-29T17:18:31.000Z</time>
      </trkpt>
      <trkpt lat="46.0294" lon="6.50393">
        <ele>1419.8000488281</ele>
        <time>2019-08-29T17:18:33.000Z</time>
      </trkpt>
      <trkpt lat="46.02939" lon="6.50396">
        <ele>1420</ele>
        <time>2019-08-29T17:18:35.000Z</time>
      </trkpt>
      <trkpt lat="46.0294" lon="6.50401">
        <ele>1419.8000488281</ele>
        <time>2019-08-29T17:18:38.000Z</time>
      </trkpt>
      <trkpt lat="46.02943" lon="6.50407">
        <ele>1419.8000488281</ele>
        <time>2019-08-29T17:18:41.000Z</time>
      </trkpt>
      <trkpt lat="46.02943" lon="6.50409">
        <ele>1419.8000488281</ele>
        <time>2019-08-29T17:18:42.000Z</time>
      </trkpt>
      <trkpt lat="46.02945" lon="6.50412">
        <ele>1419.8000488281</ele>
        <time>2019-08-29T17:18:44.000Z</time>
      </trkpt>
      <trkpt lat="46.02946" lon="6.50413">
        <ele>1420</ele>
        <time>2019-08-29T17:18:45.000Z</time>
      </trkpt>
      <trkpt lat="46.02947" lon="6.50415">
        <ele>1420</ele>
        <time>2019-08-29T17:18:47.000Z</time>
      </trkpt>
      <trkpt lat="46.02948" lon="6.50417">
        <ele>1419.8000488281</ele>
        <time>2019-08-29T17:18:50.000Z</time>
      </trkpt>
      <trkpt lat="46.02948" lon="6.50425">
        <ele>1419.4000244141</ele>
        <time>2019-08-29T17:18:54.000Z</time>
      </trkpt>
      <trkpt lat="46.0295" lon="6.50432">
        <ele>1418.4000244141</ele>
        <time>2019-08-29T17:18:58.000Z</time>
      </trkpt>
      <trkpt lat="46.02951" lon="6.50434">
        <ele>1418</ele>
        <time>2019-08-29T17:19:00.000Z</time>
      </trkpt>
      <trkpt lat="46.02952" lon="6.50436">
        <ele>1418</ele>
        <time>2019-08-29T17:19:02.000Z</time>
      </trkpt>
      <trkpt lat="46.02952" lon="6.50438">
        <ele>1417.8000488281</ele>
        <time>2019-08-29T17:19:03.000Z</time>
      </trkpt>
      <trkpt lat="46.02952" lon="6.50442">
        <ele>1417.8000488281</ele>
        <time>2019-08-29T17:19:05.000Z</time>
      </trkpt>
      <trkpt lat="46.02952" lon="6.50445">
        <ele>1417</ele>
        <time>2019-08-29T17:19:07.000Z</time>
      </trkpt>
      <trkpt lat="46.02951" lon="6.50449">
        <ele>1416.4000244141</ele>
        <time>2019-08-29T17:19:09.000Z</time>
      </trkpt>
      <trkpt lat="46.0295" lon="6.50452">
        <ele>1416</ele>
        <time>2019-08-29T17:19:11.000Z</time>
      </trkpt>
      <trkpt lat="46.0295" lon="6.50454">
        <ele>1416</ele>
        <time>2019-08-29T17:19:12.000Z</time>
      </trkpt>
      <trkpt lat="46.02949" lon="6.50458">
        <ele>1415.8000488281</ele>
        <time>2019-08-29T17:19:14.000Z</time>
      </trkpt>
      <trkpt lat="46.02945" lon="6.50465">
        <ele>1415.5999755859</ele>
        <time>2019-08-29T17:19:19.000Z</time>
      </trkpt>
      <trkpt lat="46.02937" lon="6.50471">
        <ele>1415</ele>
        <time>2019-08-29T17:19:25.000Z</time>
      </trkpt>
      <trkpt lat="46.02932" lon="6.50476">
        <ele>1414.4000244141</ele>
        <time>2019-08-29T17:19:29.000Z</time>
      </trkpt>
      <trkpt lat="46.02932" lon="6.50477">
        <ele>1414.1999511719</ele>
        <time>2019-08-29T17:19:30.000Z</time>
      </trkpt>
      <trkpt lat="46.02931" lon="6.50478">
        <ele>1413.8000488281</ele>
        <time>2019-08-29T17:19:31.000Z</time>
      </trkpt>
      <trkpt lat="46.02928" lon="6.50484">
        <ele>1413</ele>
        <time>2019-08-29T17:19:36.000Z</time>
      </trkpt>
      <trkpt lat="46.02927" lon="6.50485">
        <ele>1412.5999755859</ele>
        <time>2019-08-29T17:19:37.000Z</time>
      </trkpt>
      <trkpt lat="46.02924" lon="6.50493">
        <ele>1412.4000244141</ele>
        <time>2019-08-29T17:19:43.000Z</time>
      </trkpt>
      <trkpt lat="46.02923" lon="6.50494">
        <ele>1412.1999511719</ele>
        <time>2019-08-29T17:19:44.000Z</time>
      </trkpt>
      <trkpt lat="46.02923" lon="6.50496">
        <ele>1412.1999511719</ele>
        <time>2019-08-29T17:19:45.000Z</time>
      </trkpt>
      <trkpt lat="46.02921" lon="6.50502">
        <ele>1411.8000488281</ele>
        <time>2019-08-29T17:19:49.000Z</time>
      </trkpt>
      <trkpt lat="46.02918" lon="6.50511">
        <ele>1411.8000488281</ele>
        <time>2019-08-29T17:19:56.000Z</time>
      </trkpt>
      <trkpt lat="46.02915" lon="6.50515">
        <ele>1411.5999755859</ele>
        <time>2019-08-29T17:19:58.000Z</time>
      </trkpt>
      <trkpt lat="46.02913" lon="6.50522">
        <ele>1411.1999511719</ele>
        <time>2019-08-29T17:20:01.000Z</time>
      </trkpt>
      <trkpt lat="46.02912" lon="6.50525">
        <ele>1411</ele>
        <time>2019-08-29T17:20:02.000Z</time>
      </trkpt>
      <trkpt lat="46.02913" lon="6.50528">
        <ele>1410.4000244141</ele>
        <time>2019-08-29T17:20:04.000Z</time>
      </trkpt>
      <trkpt lat="46.02912" lon="6.50534">
        <ele>1409.4000244141</ele>
        <time>2019-08-29T17:20:10.000Z</time>
      </trkpt>
      <trkpt lat="46.02912" lon="6.50536">
        <ele>1409.4000244141</ele>
        <time>2019-08-29T17:20:11.000Z</time>
      </trkpt>
      <trkpt lat="46.02912" lon="6.50538">
        <ele>1409.1999511719</ele>
        <time>2019-08-29T17:20:12.000Z</time>
      </trkpt>
      <trkpt lat="46.02916" lon="6.50546">
        <ele>1408.8000488281</ele>
        <time>2019-08-29T17:20:17.000Z</time>
      </trkpt>
      <trkpt lat="46.02917" lon="6.50554">
        <ele>1408.4000244141</ele>
        <time>2019-08-29T17:20:21.000Z</time>
      </trkpt>
      <trkpt lat="46.02918" lon="6.5056">
        <ele>1407.4000244141</ele>
        <time>2019-08-29T17:20:24.000Z</time>
      </trkpt>
      <trkpt lat="46.02919" lon="6.50564">
        <ele>1407.4000244141</ele>
        <time>2019-08-29T17:20:26.000Z</time>
      </trkpt>
      <trkpt lat="46.02921" lon="6.50573">
        <ele>1406.5999755859</ele>
        <time>2019-08-29T17:20:31.000Z</time>
      </trkpt>
      <trkpt lat="46.02921" lon="6.50575">
        <ele>1406.1999511719</ele>
        <time>2019-08-29T17:20:32.000Z</time>
      </trkpt>
      <trkpt lat="46.02926" lon="6.50584">
        <ele>1405.4000244141</ele>
        <time>2019-08-29T17:20:38.000Z</time>
      </trkpt>
      <trkpt lat="46.02927" lon="6.50586">
        <ele>1405.1999511719</ele>
        <time>2019-08-29T17:20:39.000Z</time>
      </trkpt>
      <trkpt lat="46.0293" lon="6.50593">
        <ele>1404.8000488281</ele>
        <time>2019-08-29T17:20:43.000Z</time>
      </trkpt>
      <trkpt lat="46.02932" lon="6.50596">
        <ele>1404.4000244141</ele>
        <time>2019-08-29T17:20:45.000Z</time>
      </trkpt>
      <trkpt lat="46.02933" lon="6.50599">
        <ele>1404</ele>
        <time>2019-08-29T17:20:47.000Z</time>
      </trkpt>
      <trkpt lat="46.02933" lon="6.50599">
        <ele>1403.8000488281</ele>
        <time>2019-08-29T17:20:48.000Z</time>
      </trkpt>
      <trkpt lat="46.02931" lon="6.50601">
        <ele>1403.5999755859</ele>
        <time>2019-08-29T17:20:51.000Z</time>
      </trkpt>
      <trkpt lat="46.0293" lon="6.50603">
        <ele>1403.5999755859</ele>
        <time>2019-08-29T17:20:52.000Z</time>
      </trkpt>
      <trkpt lat="46.0292" lon="6.50609">
        <ele>1402.5999755859</ele>
        <time>2019-08-29T17:20:57.000Z</time>
      </trkpt>
      <trkpt lat="46.02918" lon="6.50609">
        <ele>1402.4000244141</ele>
        <time>2019-08-29T17:20:58.000Z</time>
      </trkpt>
      <trkpt lat="46.0291" lon="6.5061">
        <ele>1401.1999511719</ele>
        <time>2019-08-29T17:21:02.000Z</time>
      </trkpt>
      <trkpt lat="46.02908" lon="6.5061">
        <ele>1400.5999755859</ele>
        <time>2019-08-29T17:21:03.000Z</time>
      </trkpt>
      <trkpt lat="46.02906" lon="6.50609">
        <ele>1400.1999511719</ele>
        <time>2019-08-29T17:21:04.000Z</time>
      </trkpt>
      <trkpt lat="46.029" lon="6.5061">
        <ele>1399</ele>
        <time>2019-08-29T17:21:08.000Z</time>
      </trkpt>
      <trkpt lat="46.02899" lon="6.50611">
        <ele>1398.5999755859</ele>
        <time>2019-08-29T17:21:09.000Z</time>
      </trkpt>
      <trkpt lat="46.02894" lon="6.50615">
        <ele>1398</ele>
        <time>2019-08-29T17:21:12.000Z</time>
      </trkpt>
      <trkpt lat="46.02893" lon="6.50616">
        <ele>1397.8000488281</ele>
        <time>2019-08-29T17:21:13.000Z</time>
      </trkpt>
      <trkpt lat="46.0289" lon="6.50618">
        <ele>1397.8000488281</ele>
        <time>2019-08-29T17:21:15.000Z</time>
      </trkpt>
      <trkpt lat="46.02884" lon="6.50624">
        <ele>1397.5999755859</ele>
        <time>2019-08-29T17:21:19.000Z</time>
      </trkpt>
      <trkpt lat="46.02882" lon="6.50625">
        <ele>1397.5999755859</ele>
        <time>2019-08-29T17:21:20.000Z</time>
      </trkpt>
      <trkpt lat="46.02876" lon="6.50626">
        <ele>1397.5999755859</ele>
        <time>2019-08-29T17:21:23.000Z</time>
      </trkpt>
      <trkpt lat="46.0287" lon="6.50626">
        <ele>1397.1999511719</ele>
        <time>2019-08-29T17:21:26.000Z</time>
      </trkpt>
      <trkpt lat="46.02866" lon="6.50626">
        <ele>1396.8000488281</ele>
        <time>2019-08-29T17:21:28.000Z</time>
      </trkpt>
      <trkpt lat="46.02864" lon="6.50625">
        <ele>1396.5999755859</ele>
        <time>2019-08-29T17:21:29.000Z</time>
      </trkpt>
      <trkpt lat="46.0286" lon="6.50626">
        <ele>1396.1999511719</ele>
        <time>2019-08-29T17:21:32.000Z</time>
      </trkpt>
      <trkpt lat="46.02857" lon="6.50628">
        <ele>1395.8000488281</ele>
        <time>2019-08-29T17:21:34.000Z</time>
      </trkpt>
      <trkpt lat="46.02855" lon="6.50628">
        <ele>1396</ele>
        <time>2019-08-29T17:21:35.000Z</time>
      </trkpt>
      <trkpt lat="46.02852" lon="6.50629">
        <ele>1395.8000488281</ele>
        <time>2019-08-29T17:21:38.000Z</time>
      </trkpt>
      <trkpt lat="46.02849" lon="6.50635">
        <ele>1395.8000488281</ele>
        <time>2019-08-29T17:21:41.000Z</time>
      </trkpt>
      <trkpt lat="46.02804" lon="6.50646">
        <ele>1463.6</ele>
        <time>2019-08-29T17:29:46.000Z</time>
      </trkpt>
      <trkpt lat="46.0277" lon="6.50624">
        <ele>1466</ele>
        <time>2019-08-29T17:29:48.000Z</time>
      </trkpt>
      <trkpt lat="46.02738" lon="6.50588">
        <ele>1471</ele>
        <time>2019-08-29T17:29:52.000Z</time>
      </trkpt>
      <trkpt lat="46.02725" lon="6.50539">
        <ele>1465</ele>
        <time>2019-08-29T17:29:57.000Z</time>
      </trkpt>
      <trkpt lat="46.02714" lon="6.50514">
        <ele>1464.6</ele>
        <time>2019-08-29T17:29:59.000Z</time>
      </trkpt>
      <trkpt lat="46.02698" lon="6.50517">
        <ele>1466.8</ele>
        <time>2019-08-29T17:30:07.000Z</time>
      </trkpt>
      <trkpt lat="46.02671" lon="6.50457">
        <ele>1461</ele>
        <time>2019-08-29T17:30:14.000Z</time>
      </trkpt>
      <trkpt lat="46.02647" lon="6.50392">
        <ele>1472</ele>
        <time>2019-08-29T17:30:19.000Z</time>
      </trkpt>
      <trkpt lat="46.02663" lon="6.50337">
        <ele>1399</ele>
        <time>2019-08-29T17:30:23.000Z</time>
      </trkpt>
      <trkpt lat="46.02661" lon="6.5034">
        <ele>1398.8000488281</ele>
        <time>2019-08-29T17:30:26.000Z</time>
      </trkpt>
      <trkpt lat="46.02663" lon="6.5034">
        <ele>1399</ele>
        <time>2019-08-29T17:30:29.000Z</time>
      </trkpt>
      <trkpt lat="46.02668" lon="6.5034">
        <ele>1399.1999511719</ele>
        <time>2019-08-29T17:30:30.000Z</time>
      </trkpt>
      <trkpt lat="46.02667" lon="6.50342">
        <ele>1399</ele>
        <time>2019-08-29T17:30:33.000Z</time>
      </trkpt>
      <trkpt lat="46.02665" lon="6.50343">
        <ele>1398.5999755859</ele>
        <time>2019-08-29T17:30:37.000Z</time>
      </trkpt>
      <trkpt lat="46.0266" lon="6.50354">
        <ele>1398.5999755859</ele>
        <time>2019-08-29T17:30:46.000Z</time>
      </trkpt>
      <trkpt lat="46.02678" lon="6.50341">
        <ele>1398.8000488281</ele>
        <time>2019-08-29T17:30:54.000Z</time>
      </trkpt>
      <trkpt lat="46.02675" lon="6.50338">
        <ele>1398.5999755859</ele>
        <time>2019-08-29T17:30:58.000Z</time>
      </trkpt>
      <trkpt lat="46.02675" lon="6.50338">
        <ele>1398.8000488281</ele>
        <time>2019-08-29T17:31:04.000Z</time>
      </trkpt>
      <trkpt lat="46.02673" lon="6.50337">
        <ele>1399.1999511719</ele>
        <time>2019-08-29T17:31:06.000Z</time>
      </trkpt>
      <trkpt lat="46.02673" lon="6.50336">
        <ele>1399.1999511719</ele>
        <time>2019-08-29T17:31:08.000Z</time>
      </trkpt>
      <trkpt lat="46.02673" lon="6.50337">
        <ele>1398.8000488281</ele>
        <time>2019-08-29T17:31:13.000Z</time>
      </trkpt>
      <trkpt lat="46.02673" lon="6.50342">
        <ele>1398.1999511719</ele>
        <time>2019-08-29T17:31:16.000Z</time>
      </trkpt>
      <trkpt lat="46.02667" lon="6.50347">
        <ele>1398.1999511719</ele>
        <time>2019-08-29T17:31:18.000Z</time>
      </trkpt>
      <trkpt lat="46.02661" lon="6.50342">
        <ele>1398.5999755859</ele>
        <time>2019-08-29T17:31:20.000Z</time>
      </trkpt>
      <trkpt lat="46.02665" lon="6.5034">
        <ele>1399</ele>
        <time>2019-08-29T17:31:21.000Z</time>
      </trkpt>
      <trkpt lat="46.02662" lon="6.50339">
        <ele>1399.5999755859</ele>
        <time>2019-08-29T17:31:23.000Z</time>
      </trkpt>
      <trkpt lat="46.02661" lon="6.50337">
        <ele>1400</ele>
        <time>2019-08-29T17:31:25.000Z</time>
      </trkpt>
      <trkpt lat="46.02661" lon="6.50336">
        <ele>1400.4000244141</ele>
        <time>2019-08-29T17:31:26.000Z</time>
      </trkpt>
      <trkpt lat="46.02663" lon="6.50328">
        <ele>1400.8000488281</ele>
        <time>2019-08-29T17:31:31.000Z</time>
      </trkpt>
      <trkpt lat="46.02665" lon="6.50324">
        <ele>1400.8000488281</ele>
        <time>2019-08-29T17:31:32.000Z</time>
      </trkpt>
      <trkpt lat="46.02667" lon="6.50321">
        <ele>1400.8000488281</ele>
        <time>2019-08-29T17:31:34.000Z</time>
      </trkpt>
      <trkpt lat="46.02669" lon="6.50317">
        <ele>1401</ele>
        <time>2019-08-29T17:31:36.000Z</time>
      </trkpt>
      <trkpt lat="46.02669" lon="6.50317">
        <ele>1401.1999511719</ele>
        <time>2019-08-29T17:31:40.000Z</time>
      </trkpt>
      <trkpt lat="46.0267" lon="6.50317">
        <ele>1401.4000244141</ele>
        <time>2019-08-29T17:31:43.000Z</time>
      </trkpt>
      <trkpt lat="46.0267" lon="6.50313">
        <ele>1401.4000244141</ele>
        <time>2019-08-29T17:31:47.000Z</time>
      </trkpt>
      <trkpt lat="46.0267" lon="6.50311">
        <ele>1401.4000244141</ele>
        <time>2019-08-29T17:31:48.000Z</time>
      </trkpt>
      <trkpt lat="46.02671" lon="6.50301">
        <ele>1400.4000244141</ele>
        <time>2019-08-29T17:31:51.000Z</time>
      </trkpt>
      <trkpt lat="46.02671" lon="6.503">
        <ele>1400.4000244141</ele>
        <time>2019-08-29T17:31:53.000Z</time>
      </trkpt>
      <trkpt lat="46.02672" lon="6.50298">
        <ele>1400.1999511719</ele>
        <time>2019-08-29T17:32:00.000Z</time>
      </trkpt>
      <trkpt lat="46.02672" lon="6.50296">
        <ele>1400</ele>
        <time>2019-08-29T17:32:04.000Z</time>
      </trkpt>
      <trkpt lat="46.02673" lon="6.5029">
        <ele>1400.1999511719</ele>
        <time>2019-08-29T17:32:06.000Z</time>
      </trkpt>
      <trkpt lat="46.02674" lon="6.50285">
        <ele>1400.1999511719</ele>
        <time>2019-08-29T17:32:07.000Z</time>
      </trkpt>
      <trkpt lat="46.02673" lon="6.5028">
        <ele>1400.1999511719</ele>
        <time>2019-08-29T17:32:09.000Z</time>
      </trkpt>
      <trkpt lat="46.02673" lon="6.5028">
        <ele>1400.4000244141</ele>
        <time>2019-08-29T17:32:10.000Z</time>
      </trkpt>
      <trkpt lat="46.02672" lon="6.50282">
        <ele>1400.5999755859</ele>
        <time>2019-08-29T17:32:12.000Z</time>
      </trkpt>
      <trkpt lat="46.02673" lon="6.50281">
        <ele>1400.5999755859</ele>
        <time>2019-08-29T17:32:14.000Z</time>
      </trkpt>
      <trkpt lat="46.02676" lon="6.5027">
        <ele>1400.8000488281</ele>
        <time>2019-08-29T17:32:15.000Z</time>
      </trkpt>
      <trkpt lat="46.02678" lon="6.50268">
        <ele>1401</ele>
        <time>2019-08-29T17:32:17.000Z</time>
      </trkpt>
      <trkpt lat="46.02679" lon="6.50267">
        <ele>1401.4000244141</ele>
        <time>2019-08-29T17:32:19.000Z</time>
      </trkpt>
      <trkpt lat="46.02679" lon="6.50267">
        <ele>1401.5999755859</ele>
        <time>2019-08-29T17:32:21.000Z</time>
      </trkpt>
      <trkpt lat="46.0268" lon="6.50266">
        <ele>1401.8000488281</ele>
        <time>2019-08-29T17:32:22.000Z</time>
      </trkpt>
      <trkpt lat="46.02681" lon="6.50266">
        <ele>1402</ele>
        <time>2019-08-29T17:32:23.000Z</time>
      </trkpt>
      <trkpt lat="46.02681" lon="6.50265">
        <ele>1402.4000244141</ele>
        <time>2019-08-29T17:32:24.000Z</time>
      </trkpt>
      <trkpt lat="46.02683" lon="6.50264">
        <ele>1403</ele>
        <time>2019-08-29T17:32:27.000Z</time>
      </trkpt>
      <trkpt lat="46.02684" lon="6.50262">
        <ele>1403.1999511719</ele>
        <time>2019-08-29T17:32:30.000Z</time>
      </trkpt>
      <trkpt lat="46.02685" lon="6.50261">
        <ele>1403.5999755859</ele>
        <time>2019-08-29T17:32:33.000Z</time>
      </trkpt>
      <trkpt lat="46.02686" lon="6.50261">
        <ele>1403.5999755859</ele>
        <time>2019-08-29T17:32:34.000Z</time>
      </trkpt>
      <trkpt lat="46.02688" lon="6.5026">
        <ele>1404</ele>
        <time>2019-08-29T17:32:39.000Z</time>
      </trkpt>
      <trkpt lat="46.02688" lon="6.50259">
        <ele>1404.1999511719</ele>
        <time>2019-08-29T17:32:40.000Z</time>
      </trkpt>
      <trkpt lat="46.02689" lon="6.50258">
        <ele>1404.4000244141</ele>
        <time>2019-08-29T17:32:44.000Z</time>
      </trkpt>
      <trkpt lat="46.0269" lon="6.50256">
        <ele>1404.5999755859</ele>
        <time>2019-08-29T17:32:46.000Z</time>
      </trkpt>
      <trkpt lat="46.02691" lon="6.50249">
        <ele>1405</ele>
        <time>2019-08-29T17:32:48.000Z</time>
      </trkpt>
      <trkpt lat="46.02697" lon="6.50247">
        <ele>1405.4000244141</ele>
        <time>2019-08-29T17:32:49.000Z</time>
      </trkpt>
      <trkpt lat="46.02702" lon="6.50249">
        <ele>1405.5999755859</ele>
        <time>2019-08-29T17:32:52.000Z</time>
      </trkpt>
      <trkpt lat="46.02703" lon="6.50251">
        <ele>1405.4000244141</ele>
        <time>2019-08-29T17:32:53.000Z</time>
      </trkpt>
      <trkpt lat="46.02708" lon="6.50257">
        <ele>1404.1999511719</ele>
        <time>2019-08-29T17:32:56.000Z</time>
      </trkpt>
      <trkpt lat="46.02709" lon="6.50258">
        <ele>1403.8000488281</ele>
        <time>2019-08-29T17:32:59.000Z</time>
      </trkpt>
      <trkpt lat="46.02712" lon="6.5026">
        <ele>1403.4000244141</ele>
        <time>2019-08-29T17:33:03.000Z</time>
      </trkpt>
      <trkpt lat="46.02712" lon="6.50262">
        <ele>1403.1999511719</ele>
        <time>2019-08-29T17:33:04.000Z</time>
      </trkpt>
      <trkpt lat="46.02712" lon="6.50264">
        <ele>1402.8000488281</ele>
        <time>2019-08-29T17:33:05.000Z</time>
      </trkpt>
      <trkpt lat="46.02711" lon="6.50265">
        <ele>1402.8000488281</ele>
        <time>2019-08-29T17:33:11.000Z</time>
      </trkpt>
      <trkpt lat="46.02704" lon="6.5027">
        <ele>1402.8000488281</ele>
        <time>2019-08-29T17:33:17.000Z</time>
      </trkpt>
      <trkpt lat="46.02703" lon="6.50271">
        <ele>1402.5999755859</ele>
        <time>2019-08-29T17:33:18.000Z</time>
      </trkpt>
      <trkpt lat="46.02703" lon="6.50268">
        <ele>1402</ele>
        <time>2019-08-29T17:33:19.000Z</time>
      </trkpt>
      <trkpt lat="46.02703" lon="6.50261">
        <ele>1400.8000488281</ele>
        <time>2019-08-29T17:33:21.000Z</time>
      </trkpt>
      <trkpt lat="46.02706" lon="6.50252">
        <ele>1401</ele>
        <time>2019-08-29T17:33:22.000Z</time>
      </trkpt>
      <trkpt lat="46.02707" lon="6.5025">
        <ele>1401</ele>
        <time>2019-08-29T17:33:24.000Z</time>
      </trkpt>
      <trkpt lat="46.02708" lon="6.50248">
        <ele>1401</ele>
        <time>2019-08-29T17:33:34.000Z</time>
      </trkpt>
      <trkpt lat="46.02713" lon="6.50241">
        <ele>1401</ele>
        <time>2019-08-29T17:33:38.000Z</time>
      </trkpt>
      <trkpt lat="46.02717" lon="6.50237">
        <ele>1401.1999511719</ele>
        <time>2019-08-29T17:33:40.000Z</time>
      </trkpt>
      <trkpt lat="46.02718" lon="6.50237">
        <ele>1401.4000244141</ele>
        <time>2019-08-29T17:33:44.000Z</time>
      </trkpt>
      <trkpt lat="46.02718" lon="6.50237">
        <ele>1401.4000244141</ele>
        <time>2019-08-29T17:33:45.000Z</time>
      </trkpt>
      <trkpt lat="46.02719" lon="6.50237">
        <ele>1401.8000488281</ele>
        <time>2019-08-29T17:33:46.000Z</time>
      </trkpt>
      <trkpt lat="46.02719" lon="6.50238">
        <ele>1401.8000488281</ele>
        <time>2019-08-29T17:33:47.000Z</time>
      </trkpt>
      <trkpt lat="46.02719" lon="6.50241">
        <ele>1402.1999511719</ele>
        <time>2019-08-29T17:33:48.000Z</time>
      </trkpt>
      <trkpt lat="46.02718" lon="6.50249">
        <ele>1402.1999511719</ele>
        <time>2019-08-29T17:33:50.000Z</time>
      </trkpt>
      <trkpt lat="46.02723" lon="6.50249">
        <ele>1402.4000244141</ele>
        <time>2019-08-29T17:33:54.000Z</time>
      </trkpt>
      <trkpt lat="46.02725" lon="6.50248">
        <ele>1402.5999755859</ele>
        <time>2019-08-29T17:33:55.000Z</time>
      </trkpt>
      <trkpt lat="46.02729" lon="6.50248">
        <ele>1402.8000488281</ele>
        <time>2019-08-29T17:33:56.000Z</time>
      </trkpt>
      <trkpt lat="46.0273" lon="6.50248">
        <ele>1402.8000488281</ele>
        <time>2019-08-29T17:34:00.000Z</time>
      </trkpt>
      <trkpt lat="46.02731" lon="6.50248">
        <ele>1402.8000488281</ele>
        <time>2019-08-29T17:34:02.000Z</time>
      </trkpt>
      <trkpt lat="46.02732" lon="6.50249">
        <ele>1403</ele>
        <time>2019-08-29T17:34:05.000Z</time>
      </trkpt>
      <trkpt lat="46.02733" lon="6.50249">
        <ele>1403.1999511719</ele>
        <time>2019-08-29T17:34:09.000Z</time>
      </trkpt>
      <trkpt lat="46.02736" lon="6.50252">
        <ele>1403.4000244141</ele>
        <time>2019-08-29T17:34:10.000Z</time>
      </trkpt>
      <trkpt lat="46.0274" lon="6.50258">
        <ele>1403.5999755859</ele>
        <time>2019-08-29T17:34:13.000Z</time>
      </trkpt>
      <trkpt lat="46.02741" lon="6.50259">
        <ele>1403.5999755859</ele>
        <time>2019-08-29T17:34:14.000Z</time>
      </trkpt>
      <trkpt lat="46.02742" lon="6.50259">
        <ele>1403.5999755859</ele>
        <time>2019-08-29T17:34:15.000Z</time>
      </trkpt>
      <trkpt lat="46.02746" lon="6.50263">
        <ele>1403.8000488281</ele>
        <time>2019-08-29T17:34:18.000Z</time>
      </trkpt>
      <trkpt lat="46.02748" lon="6.50266">
        <ele>1403.5999755859</ele>
        <time>2019-08-29T17:34:21.000Z</time>
      </trkpt>
      <trkpt lat="46.02751" lon="6.50269">
        <ele>1403.4000244141</ele>
        <time>2019-08-29T17:34:27.000Z</time>
      </trkpt>
      <trkpt lat="46.02752" lon="6.50266">
        <ele>1403.1999511719</ele>
        <time>2019-08-29T17:34:31.000Z</time>
      </trkpt>
      <trkpt lat="46.02752" lon="6.50264">
        <ele>1403.1999511719</ele>
        <time>2019-08-29T17:34:34.000Z</time>
      </trkpt>
      <trkpt lat="46.02753" lon="6.50265">
        <ele>1403.1999511719</ele>
        <time>2019-08-29T17:34:36.000Z</time>
      </trkpt>
      <trkpt lat="46.02753" lon="6.50266">
        <ele>1403.1999511719</ele>
        <time>2019-08-29T17:34:39.000Z</time>
      </trkpt>
      <trkpt lat="46.02753" lon="6.50267">
        <ele>1403.4000244141</ele>
        <time>2019-08-29T17:34:44.000Z</time>
      </trkpt>
      <trkpt lat="46.02754" lon="6.50267">
        <ele>1404</ele>
        <time>2019-08-29T17:34:46.000Z</time>
      </trkpt>
      <trkpt lat="46.02753" lon="6.50266">
        <ele>1404.1999511719</ele>
        <time>2019-08-29T17:34:51.000Z</time>
      </trkpt>
      <trkpt lat="46.02755" lon="6.50271">
        <ele>1404.4000244141</ele>
        <time>2019-08-29T17:34:52.000Z</time>
      </trkpt>
      <trkpt lat="46.02759" lon="6.50276">
        <ele>1405</ele>
        <time>2019-08-29T17:34:56.000Z</time>
      </trkpt>
      <trkpt lat="46.0276" lon="6.50277">
        <ele>1405.8000488281</ele>
        <time>2019-08-29T17:34:57.000Z</time>
      </trkpt>
      <trkpt lat="46.02761" lon="6.50277">
        <ele>1406</ele>
        <time>2019-08-29T17:35:02.000Z</time>
      </trkpt>
      <trkpt lat="46.02761" lon="6.50276">
        <ele>1406</ele>
        <time>2019-08-29T17:35:05.000Z</time>
      </trkpt>
      <trkpt lat="46.0276" lon="6.50279">
        <ele>1406.1999511719</ele>
        <time>2019-08-29T17:35:06.000Z</time>
      </trkpt>
      <trkpt lat="46.02759" lon="6.5028">
        <ele>1406.1999511719</ele>
        <time>2019-08-29T17:35:08.000Z</time>
      </trkpt>
      <trkpt lat="46.02756" lon="6.50283">
        <ele>1405.5999755859</ele>
        <time>2019-08-29T17:35:11.000Z</time>
      </trkpt>
      <trkpt lat="46.02756" lon="6.50284">
        <ele>1405</ele>
        <time>2019-08-29T17:35:13.000Z</time>
      </trkpt>
      <trkpt lat="46.02758" lon="6.50289">
        <ele>1404.1999511719</ele>
        <time>2019-08-29T17:35:15.000Z</time>
      </trkpt>
      <trkpt lat="46.02758" lon="6.5029">
        <ele>1404.1999511719</ele>
        <time>2019-08-29T17:35:17.000Z</time>
      </trkpt>
      <trkpt lat="46.02762" lon="6.50298">
        <ele>1404.4000244141</ele>
        <time>2019-08-29T17:35:19.000Z</time>
      </trkpt>
      <trkpt lat="46.02766" lon="6.50302">
        <ele>1404.8000488281</ele>
        <time>2019-08-29T17:35:21.000Z</time>
      </trkpt>
      <trkpt lat="46.02767" lon="6.50304">
        <ele>1404.8000488281</ele>
        <time>2019-08-29T17:35:23.000Z</time>
      </trkpt>
      <trkpt lat="46.0276" lon="6.50303">
        <ele>1405</ele>
        <time>2019-08-29T17:35:24.000Z</time>
      </trkpt>
      <trkpt lat="46.02773" lon="6.50312">
        <ele>1405.1999511719</ele>
        <time>2019-08-29T17:35:28.000Z</time>
      </trkpt>
      <trkpt lat="46.02774" lon="6.50313">
        <ele>1405.4000244141</ele>
        <time>2019-08-29T17:35:31.000Z</time>
      </trkpt>
      <trkpt lat="46.02776" lon="6.50314">
        <ele>1405.5999755859</ele>
        <time>2019-08-29T17:35:32.000Z</time>
      </trkpt>
      <trkpt lat="46.02778" lon="6.50316">
        <ele>1406</ele>
        <time>2019-08-29T17:35:33.000Z</time>
      </trkpt>
      <trkpt lat="46.0278" lon="6.50318">
        <ele>1406</ele>
        <time>2019-08-29T17:35:36.000Z</time>
      </trkpt>
      <trkpt lat="46.02781" lon="6.50319">
        <ele>1406</ele>
        <time>2019-08-29T17:35:39.000Z</time>
      </trkpt>
      <trkpt lat="46.02782" lon="6.50321">
        <ele>1406</ele>
        <time>2019-08-29T17:35:42.000Z</time>
      </trkpt>
      <trkpt lat="46.02783" lon="6.50322">
        <ele>1406</ele>
        <time>2019-08-29T17:35:45.000Z</time>
      </trkpt>
      <trkpt lat="46.02783" lon="6.50326">
        <ele>1404.5999755859</ele>
        <time>2019-08-29T17:35:49.000Z</time>
      </trkpt>
      <trkpt lat="46.02783" lon="6.50327">
        <ele>1403.8000488281</ele>
        <time>2019-08-29T17:35:51.000Z</time>
      </trkpt>
      <trkpt lat="46.02783" lon="6.50327">
        <ele>1403.5999755859</ele>
        <time>2019-08-29T17:35:53.000Z</time>
      </trkpt>
      <trkpt lat="46.02783" lon="6.50328">
        <ele>1403.1999511719</ele>
        <time>2019-08-29T17:35:55.000Z</time>
      </trkpt>
      <trkpt lat="46.02785" lon="6.50328">
        <ele>1403</ele>
        <time>2019-08-29T17:35:56.000Z</time>
      </trkpt>
      <trkpt lat="46.02788" lon="6.50327">
        <ele>1403</ele>
        <time>2019-08-29T17:35:57.000Z</time>
      </trkpt>
      <trkpt lat="46.02792" lon="6.50328">
        <ele>1403.5999755859</ele>
        <time>2019-08-29T17:36:03.000Z</time>
      </trkpt>
      <trkpt lat="46.02796" lon="6.50327">
        <ele>1404.8000488281</ele>
        <time>2019-08-29T17:36:05.000Z</time>
      </trkpt>
      <trkpt lat="46.02799" lon="6.50327">
        <ele>1405.8000488281</ele>
        <time>2019-08-29T17:36:08.000Z</time>
      </trkpt>
      <trkpt lat="46.02801" lon="6.50326">
        <ele>1405.8000488281</ele>
        <time>2019-08-29T17:36:09.000Z</time>
      </trkpt>
      <trkpt lat="46.02804" lon="6.50325">
        <ele>1405.8000488281</ele>
        <time>2019-08-29T17:36:16.000Z</time>
      </trkpt>
      <trkpt lat="46.02806" lon="6.50323">
        <ele>1405.8000488281</ele>
        <time>2019-08-29T17:36:17.000Z</time>
      </trkpt>
      <trkpt lat="46.02807" lon="6.50322">
        <ele>1406</ele>
        <time>2019-08-29T17:36:19.000Z</time>
      </trkpt>
      <trkpt lat="46.02808" lon="6.50321">
        <ele>1406</ele>
        <time>2019-08-29T17:36:23.000Z</time>
      </trkpt>
      <trkpt lat="46.02816" lon="6.50317">
        <ele>1406</ele>
        <time>2019-08-29T17:36:25.000Z</time>
      </trkpt>
      <trkpt lat="46.02818" lon="6.50317">
        <ele>1406</ele>
        <time>2019-08-29T17:36:26.000Z</time>
      </trkpt>
      <trkpt lat="46.02821" lon="6.50316">
        <ele>1406.4000244141</ele>
        <time>2019-08-29T17:36:28.000Z</time>
      </trkpt>
      <trkpt lat="46.02822" lon="6.50316">
        <ele>1406.4000244141</ele>
        <time>2019-08-29T17:36:32.000Z</time>
      </trkpt>
      <trkpt lat="46.02824" lon="6.50316">
        <ele>1406.4000244141</ele>
        <time>2019-08-29T17:36:33.000Z</time>
      </trkpt>
      <trkpt lat="46.02824" lon="6.50317">
        <ele>1406.4000244141</ele>
        <time>2019-08-29T17:36:34.000Z</time>
      </trkpt>
      <trkpt lat="46.02824" lon="6.50319">
        <ele>1406.4000244141</ele>
        <time>2019-08-29T17:36:35.000Z</time>
      </trkpt>
      <trkpt lat="46.02827" lon="6.50322">
        <ele>1407</ele>
        <time>2019-08-29T17:36:36.000Z</time>
      </trkpt>
      <trkpt lat="46.0283" lon="6.50325">
        <ele>1407.1999511719</ele>
        <time>2019-08-29T17:36:37.000Z</time>
      </trkpt>
      <trkpt lat="46.02831" lon="6.50326">
        <ele>1407.1999511719</ele>
        <time>2019-08-29T17:36:38.000Z</time>
      </trkpt>
      <trkpt lat="46.02834" lon="6.50329">
        <ele>1407</ele>
        <time>2019-08-29T17:36:39.000Z</time>
      </trkpt>
      <trkpt lat="46.0284" lon="6.50337">
        <ele>1405.8000488281</ele>
        <time>2019-08-29T17:36:41.000Z</time>
      </trkpt>
      <trkpt lat="46.02841" lon="6.50339">
        <ele>1406</ele>
        <time>2019-08-29T17:36:42.000Z</time>
      </trkpt>
      <trkpt lat="46.02843" lon="6.5034">
        <ele>1406.1999511719</ele>
        <time>2019-08-29T17:36:44.000Z</time>
      </trkpt>
      <trkpt lat="46.02844" lon="6.50341">
        <ele>1406.1999511719</ele>
        <time>2019-08-29T17:36:49.000Z</time>
      </trkpt>
      <trkpt lat="46.02845" lon="6.50342">
        <ele>1406.4000244141</ele>
        <time>2019-08-29T17:36:50.000Z</time>
      </trkpt>
      <trkpt lat="46.02846" lon="6.50343">
        <ele>1406.5999755859</ele>
        <time>2019-08-29T17:36:51.000Z</time>
      </trkpt>
      <trkpt lat="46.02848" lon="6.50343">
        <ele>1406.8000488281</ele>
        <time>2019-08-29T17:36:53.000Z</time>
      </trkpt>
      <trkpt lat="46.0285" lon="6.50343">
        <ele>1407.1999511719</ele>
        <time>2019-08-29T17:36:55.000Z</time>
      </trkpt>
      <trkpt lat="46.02852" lon="6.50345">
        <ele>1407.1999511719</ele>
        <time>2019-08-29T17:36:56.000Z</time>
      </trkpt>
      <trkpt lat="46.02854" lon="6.50346">
        <ele>1407.1999511719</ele>
        <time>2019-08-29T17:36:57.000Z</time>
      </trkpt>
      <trkpt lat="46.02857" lon="6.50347">
        <ele>1406.8000488281</ele>
        <time>2019-08-29T17:36:59.000Z</time>
      </trkpt>
      <trkpt lat="46.02862" lon="6.50349">
        <ele>1406.8000488281</ele>
        <time>2019-08-29T17:37:00.000Z</time>
      </trkpt>
      <trkpt lat="46.02863" lon="6.50349">
        <ele>1406.8000488281</ele>
        <time>2019-08-29T17:37:03.000Z</time>
      </trkpt>
      <trkpt lat="46.02863" lon="6.50349">
        <ele>1406.8000488281</ele>
        <time>2019-08-29T17:37:05.000Z</time>
      </trkpt>
      <trkpt lat="46.02865" lon="6.50352">
        <ele>1406.4000244141</ele>
        <time>2019-08-29T17:37:08.000Z</time>
      </trkpt>
      <trkpt lat="46.02867" lon="6.50356">
        <ele>1406.4000244141</ele>
        <time>2019-08-29T17:37:10.000Z</time>
      </trkpt>
      <trkpt lat="46.02868" lon="6.50357">
        <ele>1406.1999511719</ele>
        <time>2019-08-29T17:37:11.000Z</time>
      </trkpt>
      <trkpt lat="46.02869" lon="6.50359">
        <ele>1406.1999511719</ele>
        <time>2019-08-29T17:37:13.000Z</time>
      </trkpt>
      <trkpt lat="46.0287" lon="6.50361">
        <ele>1406</ele>
        <time>2019-08-29T17:37:15.000Z</time>
      </trkpt>
      <trkpt lat="46.0287" lon="6.50362">
        <ele>1406</ele>
        <time>2019-08-29T17:37:22.000Z</time>
      </trkpt>
      <trkpt lat="46.02872" lon="6.50367">
        <ele>1405.4000244141</ele>
        <time>2019-08-29T17:37:25.000Z</time>
      </trkpt>
      <trkpt lat="46.02873" lon="6.5037">
        <ele>1405.1999511719</ele>
        <time>2019-08-29T17:37:28.000Z</time>
      </trkpt>
      <trkpt lat="46.02875" lon="6.50375">
        <ele>1404.5999755859</ele>
        <time>2019-08-29T17:37:34.000Z</time>
      </trkpt>
      <trkpt lat="46.02877" lon="6.50378">
        <ele>1404.1999511719</ele>
        <time>2019-08-29T17:37:38.000Z</time>
      </trkpt>
      <trkpt lat="46.02877" lon="6.50379">
        <ele>1404</ele>
        <time>2019-08-29T17:37:40.000Z</time>
      </trkpt>
      <trkpt lat="46.02878" lon="6.50381">
        <ele>1404</ele>
        <time>2019-08-29T17:37:43.000Z</time>
      </trkpt>
      <trkpt lat="46.0288" lon="6.50383">
        <ele>1404.1999511719</ele>
        <time>2019-08-29T17:37:44.000Z</time>
      </trkpt>
      <trkpt lat="46.02887" lon="6.50391">
        <ele>1404.5999755859</ele>
        <time>2019-08-29T17:37:52.000Z</time>
      </trkpt>
      <trkpt lat="46.02889" lon="6.50396">
        <ele>1404.5999755859</ele>
        <time>2019-08-29T17:37:53.000Z</time>
      </trkpt>
      <trkpt lat="46.02891" lon="6.50404">
        <ele>1404.5999755859</ele>
        <time>2019-08-29T17:37:56.000Z</time>
      </trkpt>
      <trkpt lat="46.02892" lon="6.5041">
        <ele>1404.5999755859</ele>
        <time>2019-08-29T17:37:58.000Z</time>
      </trkpt>
      <trkpt lat="46.02894" lon="6.50409">
        <ele>1404.4000244141</ele>
        <time>2019-08-29T17:38:00.000Z</time>
      </trkpt>
      <trkpt lat="46.02895" lon="6.5041">
        <ele>1404.1999511719</ele>
        <time>2019-08-29T17:38:01.000Z</time>
      </trkpt>
      <trkpt lat="46.02897" lon="6.50412">
        <ele>1404</ele>
        <time>2019-08-29T17:38:02.000Z</time>
      </trkpt>
      <trkpt lat="46.02897" lon="6.50413">
        <ele>1404.1999511719</ele>
        <time>2019-08-29T17:38:03.000Z</time>
      </trkpt>
      <trkpt lat="46.02898" lon="6.5042">
        <ele>1404.1999511719</ele>
        <time>2019-08-29T17:38:06.000Z</time>
      </trkpt>
      <trkpt lat="46.02897" lon="6.5042">
        <ele>1404.1999511719</ele>
        <time>2019-08-29T17:38:07.000Z</time>
      </trkpt>
      <trkpt lat="46.02894" lon="6.50423">
        <ele>1404.1999511719</ele>
        <time>2019-08-29T17:38:08.000Z</time>
      </trkpt>
      <trkpt lat="46.02896" lon="6.50418">
        <ele>1404.4000244141</ele>
        <time>2019-08-29T17:38:09.000Z</time>
      </trkpt>
      <trkpt lat="46.02888" lon="6.50429">
        <ele>1404.5999755859</ele>
        <time>2019-08-29T17:38:11.000Z</time>
      </trkpt>
      <trkpt lat="46.02886" lon="6.50432">
        <ele>1404.8000488281</ele>
        <time>2019-08-29T17:38:14.000Z</time>
      </trkpt>
      <trkpt lat="46.02885" lon="6.50435">
        <ele>1404.8000488281</ele>
        <time>2019-08-29T17:38:17.000Z</time>
      </trkpt>
      <trkpt lat="46.02883" lon="6.50437">
        <ele>1404.8000488281</ele>
        <time>2019-08-29T17:47:09.000Z</time>
      </trkpt>
      <trkpt lat="46.02878" lon="6.5044">
        <ele>1403.1999511719</ele>
        <time>2019-08-29T17:47:15.000Z</time>
      </trkpt>
      <trkpt lat="46.02877" lon="6.50441">
        <ele>1402.8000488281</ele>
        <time>2019-08-29T17:47:18.000Z</time>
      </trkpt>
      <trkpt lat="46.02875" lon="6.50442">
        <ele>1402.8000488281</ele>
        <time>2019-08-29T17:47:19.000Z</time>
      </trkpt>
      <trkpt lat="46.02875" lon="6.50443">
        <ele>1402.5999755859</ele>
        <time>2019-08-29T17:47:22.000Z</time>
      </trkpt>
      <trkpt lat="46.02873" lon="6.50446">
        <ele>1402.5999755859</ele>
        <time>2019-08-29T17:47:27.000Z</time>
      </trkpt>
      <trkpt lat="46.02872" lon="6.50445">
        <ele>1402.4000244141</ele>
        <time>2019-08-29T17:47:29.000Z</time>
      </trkpt>
      <trkpt lat="46.02872" lon="6.50457">
        <ele>1402.1999511719</ele>
        <time>2019-08-29T17:47:33.000Z</time>
      </trkpt>
      <trkpt lat="46.02903" lon="6.50602">
        <ele>1409.4000244141</ele>
        <time>2019-08-29T17:47:35.000Z</time>
      </trkpt>
      <trkpt lat="46.02899" lon="6.50593">
        <ele>1409.8000488281</ele>
        <time>2019-08-29T17:47:36.000Z</time>
      </trkpt>
      <trkpt lat="46.029" lon="6.50587">
        <ele>1410.5999755859</ele>
        <time>2019-08-29T17:47:37.000Z</time>
      </trkpt>
      <trkpt lat="46.02901" lon="6.50585">
        <ele>1410.8000488281</ele>
        <time>2019-08-29T17:47:39.000Z</time>
      </trkpt>
      <trkpt lat="46.02901" lon="6.50581">
        <ele>1411.1999511719</ele>
        <time>2019-08-29T17:47:41.000Z</time>
      </trkpt>
      <trkpt lat="46.029" lon="6.50573">
        <ele>1411.5999755859</ele>
        <time>2019-08-29T17:47:42.000Z</time>
      </trkpt>
      <trkpt lat="46.029" lon="6.50571">
        <ele>1411.8000488281</ele>
        <time>2019-08-29T17:47:45.000Z</time>
      </trkpt>
      <trkpt lat="46.029" lon="6.50565">
        <ele>1412.1999511719</ele>
        <time>2019-08-29T17:47:46.000Z</time>
      </trkpt>
      <trkpt lat="46.02901" lon="6.50562">
        <ele>1412.4000244141</ele>
        <time>2019-08-29T17:47:49.000Z</time>
      </trkpt>
      <trkpt lat="46.02901" lon="6.50561">
        <ele>1412.5999755859</ele>
        <time>2019-08-29T17:47:50.000Z</time>
      </trkpt>
      <trkpt lat="46.02901" lon="6.5056">
        <ele>1412.5999755859</ele>
        <time>2019-08-29T17:47:51.000Z</time>
      </trkpt>
      <trkpt lat="46.02902" lon="6.50557">
        <ele>1412.8000488281</ele>
        <time>2019-08-29T17:47:53.000Z</time>
      </trkpt>
      <trkpt lat="46.02903" lon="6.50553">
        <ele>1413.4000244141</ele>
        <time>2019-08-29T17:47:55.000Z</time>
      </trkpt>
      <trkpt lat="46.02903" lon="6.50551">
        <ele>1413.5999755859</ele>
        <time>2019-08-29T17:47:58.000Z</time>
      </trkpt>
      <trkpt lat="46.02904" lon="6.50547">
        <ele>1414.1999511719</ele>
        <time>2019-08-29T17:48:01.000Z</time>
      </trkpt>
      <trkpt lat="46.02905" lon="6.50545">
        <ele>1414.4000244141</ele>
        <time>2019-08-29T17:48:04.000Z</time>
      </trkpt>
      <trkpt lat="46.02905" lon="6.5054">
        <ele>1414.4000244141</ele>
        <time>2019-08-29T17:48:05.000Z</time>
      </trkpt>
      <trkpt lat="46.02905" lon="6.50539">
        <ele>1414.4000244141</ele>
        <time>2019-08-29T17:48:06.000Z</time>
      </trkpt>
      <trkpt lat="46.02905" lon="6.50538">
        <ele>1414.5999755859</ele>
        <time>2019-08-29T17:48:10.000Z</time>
      </trkpt>
      <trkpt lat="46.02905" lon="6.50536">
        <ele>1414.8000488281</ele>
        <time>2019-08-29T17:48:11.000Z</time>
      </trkpt>
      <trkpt lat="46.02905" lon="6.50534">
        <ele>1415</ele>
        <time>2019-08-29T17:48:15.000Z</time>
      </trkpt>
      <trkpt lat="46.02907" lon="6.5053">
        <ele>1415.4000244141</ele>
        <time>2019-08-29T17:48:22.000Z</time>
      </trkpt>
      <trkpt lat="46.02909" lon="6.50525">
        <ele>1415.8000488281</ele>
        <time>2019-08-29T17:48:24.000Z</time>
      </trkpt>
      <trkpt lat="46.0291" lon="6.5052">
        <ele>1416.1999511719</ele>
        <time>2019-08-29T17:48:25.000Z</time>
      </trkpt>
      <trkpt lat="46.02911" lon="6.50519">
        <ele>1416.1999511719</ele>
        <time>2019-08-29T17:48:28.000Z</time>
      </trkpt>
      <trkpt lat="46.02911" lon="6.50517">
        <ele>1416.1999511719</ele>
        <time>2019-08-29T17:48:34.000Z</time>
      </trkpt>
      <trkpt lat="46.02912" lon="6.5051">
        <ele>1416.8000488281</ele>
        <time>2019-08-29T17:48:35.000Z</time>
      </trkpt>
      <trkpt lat="46.02913" lon="6.50509">
        <ele>1416.8000488281</ele>
        <time>2019-08-29T17:48:36.000Z</time>
      </trkpt>
      <trkpt lat="46.02916" lon="6.50505">
        <ele>1417</ele>
        <time>2019-08-29T17:48:41.000Z</time>
      </trkpt>
      <trkpt lat="46.0292" lon="6.50498">
        <ele>1417.4000244141</ele>
        <time>2019-08-29T17:48:43.000Z</time>
      </trkpt>
      <trkpt lat="46.02921" lon="6.50495">
        <ele>1417.5999755859</ele>
        <time>2019-08-29T17:48:45.000Z</time>
      </trkpt>
      <trkpt lat="46.02921" lon="6.50493">
        <ele>1417.5999755859</ele>
        <time>2019-08-29T17:48:46.000Z</time>
      </trkpt>
      <trkpt lat="46.02921" lon="6.50489">
        <ele>1417.8000488281</ele>
        <time>2019-08-29T17:48:50.000Z</time>
      </trkpt>
      <trkpt lat="46.02925" lon="6.50484">
        <ele>1417.8000488281</ele>
        <time>2019-08-29T17:48:52.000Z</time>
      </trkpt>
      <trkpt lat="46.02925" lon="6.50482">
        <ele>1417.8000488281</ele>
        <time>2019-08-29T17:48:56.000Z</time>
      </trkpt>
      <trkpt lat="46.02925" lon="6.5048">
        <ele>1418</ele>
        <time>2019-08-29T17:48:59.000Z</time>
      </trkpt>
      <trkpt lat="46.02929" lon="6.50476">
        <ele>1418.5999755859</ele>
        <time>2019-08-29T17:49:05.000Z</time>
      </trkpt>
      <trkpt lat="46.0293" lon="6.50475">
        <ele>1418.5999755859</ele>
        <time>2019-08-29T17:49:06.000Z</time>
      </trkpt>
      <trkpt lat="46.02931" lon="6.50473">
        <ele>1418.8000488281</ele>
        <time>2019-08-29T17:49:10.000Z</time>
      </trkpt>
      <trkpt lat="46.02932" lon="6.50473">
        <ele>1419</ele>
        <time>2019-08-29T17:49:13.000Z</time>
      </trkpt>
      <trkpt lat="46.02932" lon="6.50465">
        <ele>1419.4000244141</ele>
        <time>2019-08-29T17:49:15.000Z</time>
      </trkpt>
      <trkpt lat="46.02933" lon="6.50462">
        <ele>1419.5999755859</ele>
        <time>2019-08-29T17:49:17.000Z</time>
      </trkpt>
      <trkpt lat="46.02934" lon="6.50456">
        <ele>1420.1999511719</ele>
        <time>2019-08-29T17:49:18.000Z</time>
      </trkpt>
      <trkpt lat="46.02935" lon="6.50452">
        <ele>1420.1999511719</ele>
        <time>2019-08-29T17:49:22.000Z</time>
      </trkpt>
      <trkpt lat="46.0294" lon="6.50445">
        <ele>1420.8000488281</ele>
        <time>2019-08-29T17:49:24.000Z</time>
      </trkpt>
      <trkpt lat="46.02941" lon="6.50443">
        <ele>1420.8000488281</ele>
        <time>2019-08-29T17:49:28.000Z</time>
      </trkpt>
      <trkpt lat="46.02941" lon="6.50438">
        <ele>1420.1999511719</ele>
        <time>2019-08-29T17:49:29.000Z</time>
      </trkpt>
      <trkpt lat="46.02939" lon="6.50433">
        <ele>1420.4000244141</ele>
        <time>2019-08-29T17:49:36.000Z</time>
      </trkpt>
      <trkpt lat="46.02937" lon="6.50429">
        <ele>1420.8000488281</ele>
        <time>2019-08-29T17:49:38.000Z</time>
      </trkpt>
      <trkpt lat="46.02937" lon="6.50426">
        <ele>1421.4000244141</ele>
        <time>2019-08-29T17:49:42.000Z</time>
      </trkpt>
      <trkpt lat="46.02938" lon="6.50424">
        <ele>1421.5999755859</ele>
        <time>2019-08-29T17:49:43.000Z</time>
      </trkpt>
      <trkpt lat="46.02939" lon="6.50418">
        <ele>1422.1999511719</ele>
        <time>2019-08-29T17:49:48.000Z</time>
      </trkpt>
      <trkpt lat="46.0294" lon="6.50415">
        <ele>1422.8000488281</ele>
        <time>2019-08-29T17:49:54.000Z</time>
      </trkpt>
      <trkpt lat="46.02941" lon="6.50408">
        <ele>1423.8000488281</ele>
        <time>2019-08-29T17:49:59.000Z</time>
      </trkpt>
      <trkpt lat="46.0294" lon="6.50406">
        <ele>1423.8000488281</ele>
        <time>2019-08-29T17:50:00.000Z</time>
      </trkpt>
      <trkpt lat="46.02937" lon="6.50396">
        <ele>1424.5999755859</ele>
        <time>2019-08-29T17:50:03.000Z</time>
      </trkpt>
      <trkpt lat="46.02936" lon="6.50393">
        <ele>1424.5999755859</ele>
        <time>2019-08-29T17:50:06.000Z</time>
      </trkpt>
      <trkpt lat="46.02936" lon="6.50388">
        <ele>1424.8000488281</ele>
        <time>2019-08-29T17:50:08.000Z</time>
      </trkpt>
      <trkpt lat="46.02936" lon="6.50387">
        <ele>1425</ele>
        <time>2019-08-29T17:50:10.000Z</time>
      </trkpt>
      <trkpt lat="46.02936" lon="6.50382">
        <ele>1424.1999511719</ele>
        <time>2019-08-29T17:50:11.000Z</time>
      </trkpt>
      <trkpt lat="46.02944" lon="6.50382">
        <ele>1424.1999511719</ele>
        <time>2019-08-29T17:50:12.000Z</time>
      </trkpt>
      <trkpt lat="46.02954" lon="6.50383">
        <ele>1424.1999511719</ele>
        <time>2019-08-29T17:50:15.000Z</time>
      </trkpt>
      <trkpt lat="46.02955" lon="6.50384">
        <ele>1424.1999511719</ele>
        <time>2019-08-29T17:50:20.000Z</time>
      </trkpt>
      <trkpt lat="46.0296" lon="6.50384">
        <ele>1424.1999511719</ele>
        <time>2019-08-29T17:50:21.000Z</time>
      </trkpt>
      <trkpt lat="46.02963" lon="6.50382">
        <ele>1424</ele>
        <time>2019-08-29T17:50:24.000Z</time>
      </trkpt>
      <trkpt lat="46.02966" lon="6.5038">
        <ele>1424.1999511719</ele>
        <time>2019-08-29T17:50:27.000Z</time>
      </trkpt>
      <trkpt lat="46.02969" lon="6.50378">
        <ele>1424.4000244141</ele>
        <time>2019-08-29T17:50:28.000Z</time>
      </trkpt>
      <trkpt lat="46.02971" lon="6.50377">
        <ele>1424.5999755859</ele>
        <time>2019-08-29T17:50:30.000Z</time>
      </trkpt>
      <trkpt lat="46.02972" lon="6.50376">
        <ele>1424.8000488281</ele>
        <time>2019-08-29T17:50:32.000Z</time>
      </trkpt>
      <trkpt lat="46.02975" lon="6.50374">
        <ele>1425.4000244141</ele>
        <time>2019-08-29T17:50:34.000Z</time>
      </trkpt>
      <trkpt lat="46.02978" lon="6.50368">
        <ele>1425.4000244141</ele>
        <time>2019-08-29T17:50:36.000Z</time>
      </trkpt>
      <trkpt lat="46.02979" lon="6.50367">
        <ele>1425.4000244141</ele>
        <time>2019-08-29T17:50:44.000Z</time>
      </trkpt>
      <trkpt lat="46.02979" lon="6.50362">
        <ele>1425.4000244141</ele>
        <time>2019-08-29T17:50:48.000Z</time>
      </trkpt>
      <trkpt lat="46.02982" lon="6.5036">
        <ele>1425.4000244141</ele>
        <time>2019-08-29T17:50:52.000Z</time>
      </trkpt>
      <trkpt lat="46.02982" lon="6.5036">
        <ele>1425.4000244141</ele>
        <time>2019-08-29T17:50:56.000Z</time>
      </trkpt>
      <trkpt lat="46.02983" lon="6.5036">
        <ele>1425.4000244141</ele>
        <time>2019-08-29T17:50:58.000Z</time>
      </trkpt>
      <trkpt lat="46.02984" lon="6.50359">
        <ele>1424.8000488281</ele>
        <time>2019-08-29T17:50:59.000Z</time>
      </trkpt>
      <trkpt lat="46.02987" lon="6.50359">
        <ele>1424.5999755859</ele>
        <time>2019-08-29T17:51:04.000Z</time>
      </trkpt>
      <trkpt lat="46.0299" lon="6.50359">
        <ele>1424.8000488281</ele>
        <time>2019-08-29T17:51:05.000Z</time>
      </trkpt>
      <trkpt lat="46.03002" lon="6.50349">
        <ele>1425.4000244141</ele>
        <time>2019-08-29T17:51:08.000Z</time>
      </trkpt>
      <trkpt lat="46.03005" lon="6.50343">
        <ele>1426</ele>
        <time>2019-08-29T17:51:10.000Z</time>
      </trkpt>
      <trkpt lat="46.03008" lon="6.5034">
        <ele>1426.1999511719</ele>
        <time>2019-08-29T17:51:18.000Z</time>
      </trkpt>
      <trkpt lat="46.03013" lon="6.50338">
        <ele>1427</ele>
        <time>2019-08-29T17:51:19.000Z</time>
      </trkpt>
      <trkpt lat="46.03016" lon="6.50338">
        <ele>1427.4000244141</ele>
        <time>2019-08-29T17:51:23.000Z</time>
      </trkpt>
      <trkpt lat="46.03017" lon="6.50338">
        <ele>1427.5999755859</ele>
        <time>2019-08-29T17:51:25.000Z</time>
      </trkpt>
      <trkpt lat="46.03023" lon="6.50337">
        <ele>1428.4000244141</ele>
        <time>2019-08-29T17:51:30.000Z</time>
      </trkpt>
      <trkpt lat="46.03023" lon="6.50336">
        <ele>1428.5999755859</ele>
        <time>2019-08-29T17:51:32.000Z</time>
      </trkpt>
      <trkpt lat="46.03023" lon="6.50335">
        <ele>1428.8000488281</ele>
        <time>2019-08-29T17:51:40.000Z</time>
      </trkpt>
      <trkpt lat="46.03024" lon="6.50334">
        <ele>1428.8000488281</ele>
        <time>2019-08-29T17:51:43.000Z</time>
      </trkpt>
      <trkpt lat="46.03033" lon="6.50332">
        <ele>1429.5999755859</ele>
        <time>2019-08-29T17:51:46.000Z</time>
      </trkpt>
      <trkpt lat="46.03033" lon="6.50332">
        <ele>1429.8000488281</ele>
        <time>2019-08-29T17:51:52.000Z</time>
      </trkpt>
      <trkpt lat="46.03036" lon="6.50327">
        <ele>1430</ele>
        <time>2019-08-29T17:51:53.000Z</time>
      </trkpt>
      <trkpt lat="46.03039" lon="6.50326">
        <ele>1430</ele>
        <time>2019-08-29T17:51:57.000Z</time>
      </trkpt>
      <trkpt lat="46.03047" lon="6.50322">
        <ele>1430.5999755859</ele>
        <time>2019-08-29T17:52:02.000Z</time>
      </trkpt>
      <trkpt lat="46.03049" lon="6.50319">
        <ele>1430.8000488281</ele>
        <time>2019-08-29T17:52:03.000Z</time>
      </trkpt>
      <trkpt lat="46.0306" lon="6.50316">
        <ele>1431.5999755859</ele>
        <time>2019-08-29T17:52:05.000Z</time>
      </trkpt>
      <trkpt lat="46.03064" lon="6.50315">
        <ele>1431.8000488281</ele>
        <time>2019-08-29T17:52:06.000Z</time>
      </trkpt>
      <trkpt lat="46.03068" lon="6.50315">
        <ele>1431.8000488281</ele>
        <time>2019-08-29T17:52:10.000Z</time>
      </trkpt>
      <trkpt lat="46.03074" lon="6.50315">
        <ele>1432.4000244141</ele>
        <time>2019-08-29T17:52:14.000Z</time>
      </trkpt>
      <trkpt lat="46.03076" lon="6.50315">
        <ele>1432.8000488281</ele>
        <time>2019-08-29T17:52:17.000Z</time>
      </trkpt>
      <trkpt lat="46.03081" lon="6.50317">
        <ele>1433.4000244141</ele>
        <time>2019-08-29T17:52:19.000Z</time>
      </trkpt>
      <trkpt lat="46.03087" lon="6.50321">
        <ele>1433.8000488281</ele>
        <time>2019-08-29T17:52:23.000Z</time>
      </trkpt>
      <trkpt lat="46.03088" lon="6.50321">
        <ele>1434</ele>
        <time>2019-08-29T17:52:27.000Z</time>
      </trkpt>
      <trkpt lat="46.03091" lon="6.50321">
        <ele>1434.1999511719</ele>
        <time>2019-08-29T17:52:28.000Z</time>
      </trkpt>
      <trkpt lat="46.03092" lon="6.50322">
        <ele>1434.1999511719</ele>
        <time>2019-08-29T17:52:30.000Z</time>
      </trkpt>
      <trkpt lat="46.03101" lon="6.50324">
        <ele>1434.5999755859</ele>
        <time>2019-08-29T17:52:31.000Z</time>
      </trkpt>
      <trkpt lat="46.03103" lon="6.50325">
        <ele>1434.8000488281</ele>
        <time>2019-08-29T17:52:32.000Z</time>
      </trkpt>
      <trkpt lat="46.03105" lon="6.50329">
        <ele>1435</ele>
        <time>2019-08-29T17:52:34.000Z</time>
      </trkpt>
      <trkpt lat="46.03107" lon="6.5033">
        <ele>1434.8000488281</ele>
        <time>2019-08-29T17:52:35.000Z</time>
      </trkpt>
      <trkpt lat="46.03111" lon="6.50332">
        <ele>1435.4000244141</ele>
        <time>2019-08-29T17:52:38.000Z</time>
      </trkpt>
      <trkpt lat="46.03116" lon="6.50333">
        <ele>1435.8000488281</ele>
        <time>2019-08-29T17:52:40.000Z</time>
      </trkpt>
      <trkpt lat="46.03117" lon="6.50333">
        <ele>1435.8000488281</ele>
        <time>2019-08-29T17:52:46.000Z</time>
      </trkpt>
      <trkpt lat="46.03118" lon="6.50334">
        <ele>1435.8000488281</ele>
        <time>2019-08-29T17:52:47.000Z</time>
      </trkpt>
      <trkpt lat="46.03119" lon="6.50335">
        <ele>1435.8000488281</ele>
        <time>2019-08-29T17:52:49.000Z</time>
      </trkpt>
      <trkpt lat="46.03119" lon="6.50335">
        <ele>1436</ele>
        <time>2019-08-29T17:52:52.000Z</time>
      </trkpt>
      <trkpt lat="46.03121" lon="6.50336">
        <ele>1435.8000488281</ele>
        <time>2019-08-29T17:52:53.000Z</time>
      </trkpt>
      <trkpt lat="46.03122" lon="6.50337">
        <ele>1435.8000488281</ele>
        <time>2019-08-29T17:53:00.000Z</time>
      </trkpt>
      <trkpt lat="46.03125" lon="6.50339">
        <ele>1436</ele>
        <time>2019-08-29T17:53:05.000Z</time>
      </trkpt>
      <trkpt lat="46.03126" lon="6.50341">
        <ele>1436.1999511719</ele>
        <time>2019-08-29T17:53:06.000Z</time>
      </trkpt>
      <trkpt lat="46.03134" lon="6.50346">
        <ele>1436.4000244141</ele>
        <time>2019-08-29T17:53:07.000Z</time>
      </trkpt>
      <trkpt lat="46.03135" lon="6.50347">
        <ele>1436.4000244141</ele>
        <time>2019-08-29T17:53:10.000Z</time>
      </trkpt>
      <trkpt lat="46.03137" lon="6.50347">
        <ele>1436.1999511719</ele>
        <time>2019-08-29T17:53:14.000Z</time>
      </trkpt>
      <trkpt lat="46.03141" lon="6.50347">
        <ele>1436</ele>
        <time>2019-08-29T17:53:20.000Z</time>
      </trkpt>
      <trkpt lat="46.03143" lon="6.50348">
        <ele>1436.1999511719</ele>
        <time>2019-08-29T17:53:21.000Z</time>
      </trkpt>
      <trkpt lat="46.03152" lon="6.50349">
        <ele>1436.8000488281</ele>
        <time>2019-08-29T17:53:28.000Z</time>
      </trkpt>
      <trkpt lat="46.03159" lon="6.50349">
        <ele>1436.5999755859</ele>
        <time>2019-08-29T17:53:35.000Z</time>
      </trkpt>
      <trkpt lat="46.0316" lon="6.50349">
        <ele>1436.8000488281</ele>
        <time>2019-08-29T17:53:41.000Z</time>
      </trkpt>
      <trkpt lat="46.03161" lon="6.5035">
        <ele>1436.5999755859</ele>
        <time>2019-08-29T17:53:43.000Z</time>
      </trkpt>
      <trkpt lat="46.03165" lon="6.50353">
        <ele>1436.8000488281</ele>
        <time>2019-08-29T17:53:48.000Z</time>
      </trkpt>
      <trkpt lat="46.03171" lon="6.50356">
        <ele>1436.5999755859</ele>
        <time>2019-08-29T17:53:50.000Z</time>
      </trkpt>
      <trkpt lat="46.0318" lon="6.50358">
        <ele>1437</ele>
        <time>2019-08-29T17:53:54.000Z</time>
      </trkpt>
      <trkpt lat="46.03181" lon="6.50359">
        <ele>1437</ele>
        <time>2019-08-29T17:53:55.000Z</time>
      </trkpt>
      <trkpt lat="46.03188" lon="6.50357">
        <ele>1437.5999755859</ele>
        <time>2019-08-29T17:53:59.000Z</time>
      </trkpt>
      <trkpt lat="46.03195" lon="6.50355">
        <ele>1437.8000488281</ele>
        <time>2019-08-29T17:54:01.000Z</time>
      </trkpt>
      <trkpt lat="46.03204" lon="6.50354">
        <ele>1437.8000488281</ele>
        <time>2019-08-29T17:54:03.000Z</time>
      </trkpt>
      <trkpt lat="46.03207" lon="6.50354">
        <ele>1438</ele>
        <time>2019-08-29T17:54:05.000Z</time>
      </trkpt>
      <trkpt lat="46.03213" lon="6.50354">
        <ele>1438.5999755859</ele>
        <time>2019-08-29T17:54:09.000Z</time>
      </trkpt>
      <trkpt lat="46.03215" lon="6.50355">
        <ele>1438.5999755859</ele>
        <time>2019-08-29T17:54:16.000Z</time>
      </trkpt>
      <trkpt lat="46.03218" lon="6.50359">
        <ele>1438.1999511719</ele>
        <time>2019-08-29T17:54:17.000Z</time>
      </trkpt>
      <trkpt lat="46.03219" lon="6.50359">
        <ele>1438.1999511719</ele>
        <time>2019-08-29T17:54:19.000Z</time>
      </trkpt>
      <trkpt lat="46.03223" lon="6.50359">
        <ele>1438.1999511719</ele>
        <time>2019-08-29T17:54:23.000Z</time>
      </trkpt>
      <trkpt lat="46.03225" lon="6.50358">
        <ele>1438.5999755859</ele>
        <time>2019-08-29T17:54:24.000Z</time>
      </trkpt>
      <trkpt lat="46.03227" lon="6.50357">
        <ele>1439.1999511719</ele>
        <time>2019-08-29T17:54:26.000Z</time>
      </trkpt>
      <trkpt lat="46.0323" lon="6.50356">
        <ele>1439.8000488281</ele>
        <time>2019-08-29T17:54:30.000Z</time>
      </trkpt>
      <trkpt lat="46.03235" lon="6.50356">
        <ele>1440.4000244141</ele>
        <time>2019-08-29T17:54:31.000Z</time>
      </trkpt>
      <trkpt lat="46.03242" lon="6.50357">
        <ele>1441.1999511719</ele>
        <time>2019-08-29T17:54:33.000Z</time>
      </trkpt>
      <trkpt lat="46.03243" lon="6.50356">
        <ele>1441.1999511719</ele>
        <time>2019-08-29T17:54:35.000Z</time>
      </trkpt>
      <trkpt lat="46.03245" lon="6.50356">
        <ele>1441.4000244141</ele>
        <time>2019-08-29T17:54:37.000Z</time>
      </trkpt>
      <trkpt lat="46.03249" lon="6.50355">
        <ele>1441.5999755859</ele>
        <time>2019-08-29T17:54:40.000Z</time>
      </trkpt>
      <trkpt lat="46.03251" lon="6.50355">
        <ele>1441.5999755859</ele>
        <time>2019-08-29T17:54:43.000Z</time>
      </trkpt>
      <trkpt lat="46.03252" lon="6.50354">
        <ele>1441.8000488281</ele>
        <time>2019-08-29T17:54:44.000Z</time>
      </trkpt>
      <trkpt lat="46.03256" lon="6.50349">
        <ele>1442.1999511719</ele>
        <time>2019-08-29T17:54:45.000Z</time>
      </trkpt>
      <trkpt lat="46.03257" lon="6.50349">
        <ele>1442.4000244141</ele>
        <time>2019-08-29T17:54:47.000Z</time>
      </trkpt>
      <trkpt lat="46.0326" lon="6.50347">
        <ele>1442.5999755859</ele>
        <time>2019-08-29T17:54:50.000Z</time>
      </trkpt>
      <trkpt lat="46.03263" lon="6.50344">
        <ele>1442.8000488281</ele>
        <time>2019-08-29T17:54:52.000Z</time>
      </trkpt>
      <trkpt lat="46.03265" lon="6.50341">
        <ele>1442.8000488281</ele>
        <time>2019-08-29T17:54:59.000Z</time>
      </trkpt>
      <trkpt lat="46.03268" lon="6.50337">
        <ele>1442.8000488281</ele>
        <time>2019-08-29T17:55:07.000Z</time>
      </trkpt>
      <trkpt lat="46.03272" lon="6.50334">
        <ele>1443.1999511719</ele>
        <time>2019-08-29T17:55:08.000Z</time>
      </trkpt>
      <trkpt lat="46.03273" lon="6.50333">
        <ele>1443.1999511719</ele>
        <time>2019-08-29T17:55:16.000Z</time>
      </trkpt>
      <trkpt lat="46.03273" lon="6.50332">
        <ele>1443.1999511719</ele>
        <time>2019-08-29T17:55:24.000Z</time>
      </trkpt>
      <trkpt lat="46.03274" lon="6.50331">
        <ele>1443.1999511719</ele>
        <time>2019-08-29T17:55:28.000Z</time>
      </trkpt>
      <trkpt lat="46.03275" lon="6.50329">
        <ele>1443</ele>
        <time>2019-08-29T17:55:30.000Z</time>
      </trkpt>
      <trkpt lat="46.03275" lon="6.50329">
        <ele>1443.1999511719</ele>
        <time>2019-08-29T17:55:32.000Z</time>
      </trkpt>
      <trkpt lat="46.03278" lon="6.50328">
        <ele>1443.1999511719</ele>
        <time>2019-08-29T17:55:33.000Z</time>
      </trkpt>
      <trkpt lat="46.03284" lon="6.50314">
        <ele>1443.1999511719</ele>
        <time>2019-08-29T17:55:36.000Z</time>
      </trkpt>
      <trkpt lat="46.03285" lon="6.50311">
        <ele>1443</ele>
        <time>2019-08-29T17:55:38.000Z</time>
      </trkpt>
      <trkpt lat="46.03287" lon="6.50294">
        <ele>1442.1999511719</ele>
        <time>2019-08-29T17:55:41.000Z</time>
      </trkpt>
      <trkpt lat="46.03296" lon="6.50283">
        <ele>1441.4000244141</ele>
        <time>2019-08-29T17:55:43.000Z</time>
      </trkpt>
      <trkpt lat="46.033" lon="6.50279">
        <ele>1440.5999755859</ele>
        <time>2019-08-29T17:55:44.000Z</time>
      </trkpt>
      <trkpt lat="46.03302" lon="6.50277">
        <ele>1440.1999511719</ele>
        <time>2019-08-29T17:55:45.000Z</time>
      </trkpt>
      <trkpt lat="46.03303" lon="6.50275">
        <ele>1440</ele>
        <time>2019-08-29T17:55:51.000Z</time>
      </trkpt>
      <trkpt lat="46.03304" lon="6.50274">
        <ele>1439.8000488281</ele>
        <time>2019-08-29T17:55:56.000Z</time>
      </trkpt>
      <trkpt lat="46.03306" lon="6.50269">
        <ele>1439.1999511719</ele>
        <time>2019-08-29T17:55:57.000Z</time>
      </trkpt>
      <trkpt lat="46.03308" lon="6.50266">
        <ele>1438.8000488281</ele>
        <time>2019-08-29T17:55:58.000Z</time>
      </trkpt>
      <trkpt lat="46.0331" lon="6.50262">
        <ele>1438.5999755859</ele>
        <time>2019-08-29T17:55:59.000Z</time>
      </trkpt>
      <trkpt lat="46.03312" lon="6.50261">
        <ele>1438</ele>
        <time>2019-08-29T17:56:00.000Z</time>
      </trkpt>
      <trkpt lat="46.03313" lon="6.5026">
        <ele>1437.1999511719</ele>
        <time>2019-08-29T17:56:01.000Z</time>
      </trkpt>
      <trkpt lat="46.03314" lon="6.50259">
        <ele>1436.5999755859</ele>
        <time>2019-08-29T17:56:03.000Z</time>
      </trkpt>
      <trkpt lat="46.03321" lon="6.50232">
        <ele>1435.5999755859</ele>
        <time>2019-08-29T17:56:04.000Z</time>
      </trkpt>
      <trkpt lat="46.03336" lon="6.5023">
        <ele>1434.4000244141</ele>
        <time>2019-08-29T17:56:05.000Z</time>
      </trkpt>
      <trkpt lat="46.03337" lon="6.5023">
        <ele>1433.8000488281</ele>
        <time>2019-08-29T17:56:07.000Z</time>
      </trkpt>
      <trkpt lat="46.03338" lon="6.50229">
        <ele>1433.1999511719</ele>
        <time>2019-08-29T17:56:10.000Z</time>
      </trkpt>
      <trkpt lat="46.03338" lon="6.50229">
        <ele>1432.5999755859</ele>
        <time>2019-08-29T17:56:12.000Z</time>
      </trkpt>
      <trkpt lat="46.03339" lon="6.50229">
        <ele>1432.1999511719</ele>
        <time>2019-08-29T17:56:13.000Z</time>
      </trkpt>
      <trkpt lat="46.0334" lon="6.50228">
        <ele>1432</ele>
        <time>2019-08-29T17:56:18.000Z</time>
      </trkpt>
      <trkpt lat="46.03342" lon="6.50225">
        <ele>1431.5999755859</ele>
        <time>2019-08-29T17:56:19.000Z</time>
      </trkpt>
      <trkpt lat="46.03343" lon="6.50224">
        <ele>1431.4000244141</ele>
        <time>2019-08-29T17:56:22.000Z</time>
      </trkpt>
      <trkpt lat="46.03344" lon="6.50222">
        <ele>1431.4000244141</ele>
        <time>2019-08-29T17:56:24.000Z</time>
      </trkpt>
      <trkpt lat="46.03346" lon="6.5022">
        <ele>1431</ele>
        <time>2019-08-29T17:56:26.000Z</time>
      </trkpt>
      <trkpt lat="46.03349" lon="6.50218">
        <ele>1430.4000244141</ele>
        <time>2019-08-29T17:56:31.000Z</time>
      </trkpt>
      <trkpt lat="46.03351" lon="6.50217">
        <ele>1430</ele>
        <time>2019-08-29T17:56:34.000Z</time>
      </trkpt>
      <trkpt lat="46.03352" lon="6.50217">
        <ele>1429.8000488281</ele>
        <time>2019-08-29T17:56:37.000Z</time>
      </trkpt>
      <trkpt lat="46.03359" lon="6.50208">
        <ele>1428.8000488281</ele>
        <time>2019-08-29T17:56:38.000Z</time>
      </trkpt>
      <trkpt lat="46.0336" lon="6.50207">
        <ele>1428.5999755859</ele>
        <time>2019-08-29T17:56:41.000Z</time>
      </trkpt>
      <trkpt lat="46.03364" lon="6.50202">
        <ele>1427.5999755859</ele>
        <time>2019-08-29T17:56:44.000Z</time>
      </trkpt>
      <trkpt lat="46.03366" lon="6.502">
        <ele>1426.8000488281</ele>
        <time>2019-08-29T17:56:46.000Z</time>
      </trkpt>
      <trkpt lat="46.03368" lon="6.50197">
        <ele>1426.4000244141</ele>
        <time>2019-08-29T17:56:50.000Z</time>
      </trkpt>
      <trkpt lat="46.03376" lon="6.50189">
        <ele>1425.4000244141</ele>
        <time>2019-08-29T17:56:53.000Z</time>
      </trkpt>
      <trkpt lat="46.03379" lon="6.50185">
        <ele>1424</ele>
        <time>2019-08-29T17:56:56.000Z</time>
      </trkpt>
      <trkpt lat="46.03383" lon="6.50179">
        <ele>1422.8000488281</ele>
        <time>2019-08-29T17:56:58.000Z</time>
      </trkpt>
      <trkpt lat="46.03384" lon="6.50177">
        <ele>1422.5999755859</ele>
        <time>2019-08-29T17:57:00.000Z</time>
      </trkpt>
      <trkpt lat="46.03385" lon="6.50173">
        <ele>1421.8000488281</ele>
        <time>2019-08-29T17:57:04.000Z</time>
      </trkpt>
      <trkpt lat="46.03387" lon="6.50167">
        <ele>1421.1999511719</ele>
        <time>2019-08-29T17:57:05.000Z</time>
      </trkpt>
      <trkpt lat="46.0339" lon="6.50166">
        <ele>1421.1999511719</ele>
        <time>2019-08-29T17:57:07.000Z</time>
      </trkpt>
      <trkpt lat="46.03396" lon="6.50161">
        <ele>1420.8000488281</ele>
        <time>2019-08-29T17:57:08.000Z</time>
      </trkpt>
      <trkpt lat="46.03399" lon="6.50157">
        <ele>1420.1999511719</ele>
        <time>2019-08-29T17:57:10.000Z</time>
      </trkpt>
      <trkpt lat="46.03401" lon="6.50154">
        <ele>1419.4000244141</ele>
        <time>2019-08-29T17:57:13.000Z</time>
      </trkpt>
      <trkpt lat="46.03403" lon="6.5015">
        <ele>1418.8000488281</ele>
        <time>2019-08-29T17:57:16.000Z</time>
      </trkpt>
      <trkpt lat="46.03405" lon="6.50148">
        <ele>1418.1999511719</ele>
        <time>2019-08-29T17:57:19.000Z</time>
      </trkpt>
      <trkpt lat="46.03409" lon="6.50141">
        <ele>1417.4000244141</ele>
        <time>2019-08-29T17:57:20.000Z</time>
      </trkpt>
      <trkpt lat="46.03411" lon="6.50139">
        <ele>1417.1999511719</ele>
        <time>2019-08-29T17:57:21.000Z</time>
      </trkpt>
      <trkpt lat="46.03414" lon="6.50136">
        <ele>1416.5999755859</ele>
        <time>2019-08-29T17:57:26.000Z</time>
      </trkpt>
      <trkpt lat="46.03416" lon="6.50135">
        <ele>1415.8000488281</ele>
        <time>2019-08-29T17:57:30.000Z</time>
      </trkpt>
      <trkpt lat="46.0342" lon="6.50135">
        <ele>1414.8000488281</ele>
        <time>2019-08-29T17:57:33.000Z</time>
      </trkpt>
      <trkpt lat="46.03424" lon="6.50134">
        <ele>1414.4000244141</ele>
        <time>2019-08-29T17:57:35.000Z</time>
      </trkpt>
      <trkpt lat="46.03428" lon="6.50133">
        <ele>1413.8000488281</ele>
        <time>2019-08-29T17:57:38.000Z</time>
      </trkpt>
      <trkpt lat="46.03431" lon="6.50133">
        <ele>1413</ele>
        <time>2019-08-29T17:57:39.000Z</time>
      </trkpt>
      <trkpt lat="46.03432" lon="6.50134">
        <ele>1412.8000488281</ele>
        <time>2019-08-29T17:57:41.000Z</time>
      </trkpt>
      <trkpt lat="46.03434" lon="6.50134">
        <ele>1412.5999755859</ele>
        <time>2019-08-29T17:57:45.000Z</time>
      </trkpt>
      <trkpt lat="46.03441" lon="6.50137">
        <ele>1412.1999511719</ele>
        <time>2019-08-29T17:57:50.000Z</time>
      </trkpt>
      <trkpt lat="46.03445" lon="6.50136">
        <ele>1411.4000244141</ele>
        <time>2019-08-29T17:57:52.000Z</time>
      </trkpt>
      <trkpt lat="46.03449" lon="6.50134">
        <ele>1410.8000488281</ele>
        <time>2019-08-29T17:57:53.000Z</time>
      </trkpt>
      <trkpt lat="46.03453" lon="6.50134">
        <ele>1410.4000244141</ele>
        <time>2019-08-29T17:57:55.000Z</time>
      </trkpt>
      <trkpt lat="46.03457" lon="6.50129">
        <ele>1409.4000244141</ele>
        <time>2019-08-29T17:57:57.000Z</time>
      </trkpt>
      <trkpt lat="46.03458" lon="6.50128">
        <ele>1408.8000488281</ele>
        <time>2019-08-29T17:58:04.000Z</time>
      </trkpt>
      <trkpt lat="46.0346" lon="6.50125">
        <ele>1408.4000244141</ele>
        <time>2019-08-29T17:58:08.000Z</time>
      </trkpt>
      <trkpt lat="46.03467" lon="6.50123">
        <ele>1407.8000488281</ele>
        <time>2019-08-29T17:58:10.000Z</time>
      </trkpt>
      <trkpt lat="46.03474" lon="6.50123">
        <ele>1407.4000244141</ele>
        <time>2019-08-29T17:58:13.000Z</time>
      </trkpt>
      <trkpt lat="46.03476" lon="6.50124">
        <ele>1406.5999755859</ele>
        <time>2019-08-29T17:58:17.000Z</time>
      </trkpt>
      <trkpt lat="46.03477" lon="6.50125">
        <ele>1406.1999511719</ele>
        <time>2019-08-29T17:58:23.000Z</time>
      </trkpt>
      <trkpt lat="46.03479" lon="6.50125">
        <ele>1405.8000488281</ele>
        <time>2019-08-29T17:58:25.000Z</time>
      </trkpt>
      <trkpt lat="46.03482" lon="6.50125">
        <ele>1405.5999755859</ele>
        <time>2019-08-29T17:58:27.000Z</time>
      </trkpt>
      <trkpt lat="46.03492" lon="6.50121">
        <ele>1405</ele>
        <time>2019-08-29T17:58:29.000Z</time>
      </trkpt>
      <trkpt lat="46.035" lon="6.50119">
        <ele>1403.8000488281</ele>
        <time>2019-08-29T17:58:32.000Z</time>
      </trkpt>
      <trkpt lat="46.03504" lon="6.50118">
        <ele>1403.1999511719</ele>
        <time>2019-08-29T17:58:35.000Z</time>
      </trkpt>
      <trkpt lat="46.0351" lon="6.50118">
        <ele>1402.4000244141</ele>
        <time>2019-08-29T17:58:40.000Z</time>
      </trkpt>
      <trkpt lat="46.03516" lon="6.50116">
        <ele>1401.8000488281</ele>
        <time>2019-08-29T17:58:47.000Z</time>
      </trkpt>
      <trkpt lat="46.03523" lon="6.50114">
        <ele>1401.4000244141</ele>
        <time>2019-08-29T17:58:52.000Z</time>
      </trkpt>
      <trkpt lat="46.03525" lon="6.50113">
        <ele>1401</ele>
        <time>2019-08-29T17:58:56.000Z</time>
      </trkpt>
      <trkpt lat="46.03527" lon="6.50112">
        <ele>1400.1999511719</ele>
        <time>2019-08-29T17:59:04.000Z</time>
      </trkpt>
      <trkpt lat="46.0353" lon="6.5011">
        <ele>1399.8000488281</ele>
        <time>2019-08-29T17:59:05.000Z</time>
      </trkpt>
      <trkpt lat="46.03534" lon="6.50107">
        <ele>1399.4000244141</ele>
        <time>2019-08-29T17:59:07.000Z</time>
      </trkpt>
      <trkpt lat="46.03539" lon="6.50107">
        <ele>1399.1999511719</ele>
        <time>2019-08-29T17:59:08.000Z</time>
      </trkpt>
      <trkpt lat="46.03548" lon="6.50107">
        <ele>1398</ele>
        <time>2019-08-29T17:59:11.000Z</time>
      </trkpt>
      <trkpt lat="46.03559" lon="6.50108">
        <ele>1397.8000488281</ele>
        <time>2019-08-29T17:59:15.000Z</time>
      </trkpt>
      <trkpt lat="46.03565" lon="6.50106">
        <ele>1397</ele>
        <time>2019-08-29T17:59:16.000Z</time>
      </trkpt>
      <trkpt lat="46.03572" lon="6.50105">
        <ele>1396.4000244141</ele>
        <time>2019-08-29T17:59:17.000Z</time>
      </trkpt>
      <trkpt lat="46.03582" lon="6.50105">
        <ele>1395.5999755859</ele>
        <time>2019-08-29T17:59:20.000Z</time>
      </trkpt>
      <trkpt lat="46.03583" lon="6.50105">
        <ele>1395.4000244141</ele>
        <time>2019-08-29T17:59:22.000Z</time>
      </trkpt>
      <trkpt lat="46.03586" lon="6.50105">
        <ele>1394.8000488281</ele>
        <time>2019-08-29T17:59:24.000Z</time>
      </trkpt>
      <trkpt lat="46.03587" lon="6.50104">
        <ele>1394.5999755859</ele>
        <time>2019-08-29T17:59:31.000Z</time>
      </trkpt>
      <trkpt lat="46.03591" lon="6.50101">
        <ele>1394.1999511719</ele>
        <time>2019-08-29T17:59:38.000Z</time>
      </trkpt>
      <trkpt lat="46.03595" lon="6.50096">
        <ele>1393.5999755859</ele>
        <time>2019-08-29T17:59:41.000Z</time>
      </trkpt>
      <trkpt lat="46.03596" lon="6.50096">
        <ele>1393.4000244141</ele>
        <time>2019-08-29T17:59:45.000Z</time>
      </trkpt>
      <trkpt lat="46.03598" lon="6.50095">
        <ele>1393.4000244141</ele>
        <time>2019-08-29T17:59:46.000Z</time>
      </trkpt>
      <trkpt lat="46.03603" lon="6.50095">
        <ele>1392.8000488281</ele>
        <time>2019-08-29T17:59:52.000Z</time>
      </trkpt>
      <trkpt lat="46.03607" lon="6.50094">
        <ele>1392.5999755859</ele>
        <time>2019-08-29T17:59:53.000Z</time>
      </trkpt>
      <trkpt lat="46.0361" lon="6.50093">
        <ele>1392.4000244141</ele>
        <time>2019-08-29T17:59:56.000Z</time>
      </trkpt>
      <trkpt lat="46.03619" lon="6.50092">
        <ele>1391.4000244141</ele>
        <time>2019-08-29T17:59:59.000Z</time>
      </trkpt>
      <trkpt lat="46.03628" lon="6.50086">
        <ele>1390.8000488281</ele>
        <time>2019-08-29T18:00:00.000Z</time>
      </trkpt>
      <trkpt lat="46.03634" lon="6.50087">
        <ele>1390</ele>
        <time>2019-08-29T18:00:04.000Z</time>
      </trkpt>
      <trkpt lat="46.0364" lon="6.50088">
        <ele>1388.8000488281</ele>
        <time>2019-08-29T18:00:08.000Z</time>
      </trkpt>
      <trkpt lat="46.03642" lon="6.50089">
        <ele>1388.5999755859</ele>
        <time>2019-08-29T18:00:11.000Z</time>
      </trkpt>
      <trkpt lat="46.03649" lon="6.50093">
        <ele>1387.8000488281</ele>
        <time>2019-08-29T18:00:14.000Z</time>
      </trkpt>
      <trkpt lat="46.0365" lon="6.50092">
        <ele>1387.5999755859</ele>
        <time>2019-08-29T18:00:15.000Z</time>
      </trkpt>
      <trkpt lat="46.03655" lon="6.50091">
        <ele>1386.1999511719</ele>
        <time>2019-08-29T18:00:16.000Z</time>
      </trkpt>
      <trkpt lat="46.03659" lon="6.50091">
        <ele>1385.1999511719</ele>
        <time>2019-08-29T18:00:17.000Z</time>
      </trkpt>
      <trkpt lat="46.0366" lon="6.50091">
        <ele>1385</ele>
        <time>2019-08-29T18:00:18.000Z</time>
      </trkpt>
      <trkpt lat="46.03666" lon="6.50091">
        <ele>1384</ele>
        <time>2019-08-29T18:00:19.000Z</time>
      </trkpt>
      <trkpt lat="46.03672" lon="6.50092">
        <ele>1382.8000488281</ele>
        <time>2019-08-29T18:00:20.000Z</time>
      </trkpt>
      <trkpt lat="46.03674" lon="6.50091">
        <ele>1381.5999755859</ele>
        <time>2019-08-29T18:00:21.000Z</time>
      </trkpt>
      <trkpt lat="46.03677" lon="6.50089">
        <ele>1380.4000244141</ele>
        <time>2019-08-29T18:00:23.000Z</time>
      </trkpt>
      <trkpt lat="46.03678" lon="6.50089">
        <ele>1380</ele>
        <time>2019-08-29T18:00:24.000Z</time>
      </trkpt>
      <trkpt lat="46.03679" lon="6.50089">
        <ele>1379.8000488281</ele>
        <time>2019-08-29T18:00:26.000Z</time>
      </trkpt>
      <trkpt lat="46.0368" lon="6.50089">
        <ele>1379.8000488281</ele>
        <time>2019-08-29T18:00:28.000Z</time>
      </trkpt>
      <trkpt lat="46.03681" lon="6.50088">
        <ele>1379.5999755859</ele>
        <time>2019-08-29T18:00:31.000Z</time>
      </trkpt>
      <trkpt lat="46.03683" lon="6.50088">
        <ele>1379.4000244141</ele>
        <time>2019-08-29T18:00:32.000Z</time>
      </trkpt>
      <trkpt lat="46.03684" lon="6.50088">
        <ele>1379</ele>
        <time>2019-08-29T18:00:35.000Z</time>
      </trkpt>
      <trkpt lat="46.03685" lon="6.50089">
        <ele>1378.8000488281</ele>
        <time>2019-08-29T18:00:36.000Z</time>
      </trkpt>
      <trkpt lat="46.0369" lon="6.50087">
        <ele>1378.4000244141</ele>
        <time>2019-08-29T18:00:37.000Z</time>
      </trkpt>
      <trkpt lat="46.03692" lon="6.50087">
        <ele>1378.1999511719</ele>
        <time>2019-08-29T18:00:42.000Z</time>
      </trkpt>
      <trkpt lat="46.03694" lon="6.50085">
        <ele>1378.1999511719</ele>
        <time>2019-08-29T18:00:47.000Z</time>
      </trkpt>
      <trkpt lat="46.03696" lon="6.50084">
        <ele>1378</ele>
        <time>2019-08-29T18:00:49.000Z</time>
      </trkpt>
      <trkpt lat="46.03699" lon="6.50082">
        <ele>1377.4000244141</ele>
        <time>2019-08-29T18:00:54.000Z</time>
      </trkpt>
      <trkpt lat="46.03701" lon="6.50081">
        <ele>1377.1999511719</ele>
        <time>2019-08-29T18:01:01.000Z</time>
      </trkpt>
      <trkpt lat="46.03705" lon="6.50079">
        <ele>1376.4000244141</ele>
        <time>2019-08-29T18:01:03.000Z</time>
      </trkpt>
      <trkpt lat="46.03706" lon="6.50077">
        <ele>1375.8000488281</ele>
        <time>2019-08-29T18:01:06.000Z</time>
      </trkpt>
      <trkpt lat="46.03707" lon="6.50076">
        <ele>1375.4000244141</ele>
        <time>2019-08-29T18:01:07.000Z</time>
      </trkpt>
      <trkpt lat="46.03713" lon="6.50069">
        <ele>1375.4000244141</ele>
        <time>2019-08-29T18:01:08.000Z</time>
      </trkpt>
      <trkpt lat="46.03718" lon="6.50059">
        <ele>1374.4000244141</ele>
        <time>2019-08-29T18:01:10.000Z</time>
      </trkpt>
      <trkpt lat="46.03721" lon="6.50057">
        <ele>1373.1999511719</ele>
        <time>2019-08-29T18:01:13.000Z</time>
      </trkpt>
      <trkpt lat="46.0373" lon="6.50053">
        <ele>1372</ele>
        <time>2019-08-29T18:01:17.000Z</time>
      </trkpt>
      <trkpt lat="46.03739" lon="6.50048">
        <ele>1371.1999511719</ele>
        <time>2019-08-29T18:01:20.000Z</time>
      </trkpt>
      <trkpt lat="46.03742" lon="6.50048">
        <ele>1371</ele>
        <time>2019-08-29T18:01:23.000Z</time>
      </trkpt>
      <trkpt lat="46.03746" lon="6.50046">
        <ele>1370</ele>
        <time>2019-08-29T18:01:24.000Z</time>
      </trkpt>
      <trkpt lat="46.03747" lon="6.50045">
        <ele>1369.5999755859</ele>
        <time>2019-08-29T18:01:26.000Z</time>
      </trkpt>
      <trkpt lat="46.03748" lon="6.50044">
        <ele>1369</ele>
        <time>2019-08-29T18:01:27.000Z</time>
      </trkpt>
      <trkpt lat="46.03752" lon="6.50043">
        <ele>1368.1999511719</ele>
        <time>2019-08-29T18:01:29.000Z</time>
      </trkpt>
      <trkpt lat="46.03756" lon="6.50041">
        <ele>1367</ele>
        <time>2019-08-29T18:01:30.000Z</time>
      </trkpt>
      <trkpt lat="46.03759" lon="6.50034">
        <ele>1366</ele>
        <time>2019-08-29T18:01:32.000Z</time>
      </trkpt>
      <trkpt lat="46.03762" lon="6.50029">
        <ele>1365.8000488281</ele>
        <time>2019-08-29T18:01:35.000Z</time>
      </trkpt>
      <trkpt lat="46.03767" lon="6.50025">
        <ele>1365</ele>
        <time>2019-08-29T18:01:36.000Z</time>
      </trkpt>
      <trkpt lat="46.03768" lon="6.50023">
        <ele>1364.8000488281</ele>
        <time>2019-08-29T18:01:41.000Z</time>
      </trkpt>
      <trkpt lat="46.03769" lon="6.5002">
        <ele>1364.4000244141</ele>
        <time>2019-08-29T18:01:42.000Z</time>
      </trkpt>
      <trkpt lat="46.0377" lon="6.50018">
        <ele>1364.4000244141</ele>
        <time>2019-08-29T18:01:44.000Z</time>
      </trkpt>
      <trkpt lat="46.03774" lon="6.50017">
        <ele>1363.8000488281</ele>
        <time>2019-08-29T18:01:47.000Z</time>
      </trkpt>
      <trkpt lat="46.03775" lon="6.50016">
        <ele>1363.4000244141</ele>
        <time>2019-08-29T18:01:51.000Z</time>
      </trkpt>
      <trkpt lat="46.03777" lon="6.50014">
        <ele>1362.5999755859</ele>
        <time>2019-08-29T18:01:58.000Z</time>
      </trkpt>
      <trkpt lat="46.03779" lon="6.50008">
        <ele>1361.1999511719</ele>
        <time>2019-08-29T18:01:59.000Z</time>
      </trkpt>
      <trkpt lat="46.0378" lon="6.50007">
        <ele>1360.8000488281</ele>
        <time>2019-08-29T18:02:02.000Z</time>
      </trkpt>
      <trkpt lat="46.03788" lon="6.50007">
        <ele>1360.1999511719</ele>
        <time>2019-08-29T18:02:05.000Z</time>
      </trkpt>
      <trkpt lat="46.0379" lon="6.50008">
        <ele>1359.8000488281</ele>
        <time>2019-08-29T18:02:06.000Z</time>
      </trkpt>
      <trkpt lat="46.03795" lon="6.50009">
        <ele>1359</ele>
        <time>2019-08-29T18:02:10.000Z</time>
      </trkpt>
      <trkpt lat="46.03801" lon="6.5001">
        <ele>1357.8000488281</ele>
        <time>2019-08-29T18:02:12.000Z</time>
      </trkpt>
      <trkpt lat="46.03809" lon="6.50012">
        <ele>1356.8000488281</ele>
        <time>2019-08-29T18:02:14.000Z</time>
      </trkpt>
      <trkpt lat="46.03817" lon="6.50007">
        <ele>1355.8000488281</ele>
        <time>2019-08-29T18:02:15.000Z</time>
      </trkpt>
      <trkpt lat="46.03818" lon="6.50006">
        <ele>1355.5999755859</ele>
        <time>2019-08-29T18:02:19.000Z</time>
      </trkpt>
      <trkpt lat="46.0382" lon="6.50002">
        <ele>1354.8000488281</ele>
        <time>2019-08-29T18:02:21.000Z</time>
      </trkpt>
      <trkpt lat="46.03822" lon="6.49998">
        <ele>1353.8000488281</ele>
        <time>2019-08-29T18:02:22.000Z</time>
      </trkpt>
      <trkpt lat="46.03824" lon="6.49997">
        <ele>1353.5999755859</ele>
        <time>2019-08-29T18:02:24.000Z</time>
      </trkpt>
      <trkpt lat="46.03827" lon="6.49994">
        <ele>1352.4000244141</ele>
        <time>2019-08-29T18:02:25.000Z</time>
      </trkpt>
      <trkpt lat="46.03829" lon="6.49992">
        <ele>1352.1999511719</ele>
        <time>2019-08-29T18:02:29.000Z</time>
      </trkpt>
      <trkpt lat="46.03832" lon="6.49992">
        <ele>1351.5999755859</ele>
        <time>2019-08-29T18:02:32.000Z</time>
      </trkpt>
      <trkpt lat="46.03833" lon="6.49992">
        <ele>1351.1999511719</ele>
        <time>2019-08-29T18:02:35.000Z</time>
      </trkpt>
      <trkpt lat="46.03838" lon="6.49989">
        <ele>1350</ele>
        <time>2019-08-29T18:02:36.000Z</time>
      </trkpt>
      <trkpt lat="46.0384" lon="6.49987">
        <ele>1349</ele>
        <time>2019-08-29T18:02:40.000Z</time>
      </trkpt>
      <trkpt lat="46.03841" lon="6.49986">
        <ele>1348.5999755859</ele>
        <time>2019-08-29T18:02:43.000Z</time>
      </trkpt>
      <trkpt lat="46.03843" lon="6.49984">
        <ele>1347.8000488281</ele>
        <time>2019-08-29T18:02:46.000Z</time>
      </trkpt>
      <trkpt lat="46.03844" lon="6.49983">
        <ele>1347.4000244141</ele>
        <time>2019-08-29T18:02:48.000Z</time>
      </trkpt>
      <trkpt lat="46.03849" lon="6.49979">
        <ele>1346.4000244141</ele>
        <time>2019-08-29T18:02:51.000Z</time>
      </trkpt>
      <trkpt lat="46.03853" lon="6.49975">
        <ele>1345.1999511719</ele>
        <time>2019-08-29T18:02:52.000Z</time>
      </trkpt>
      <trkpt lat="46.03855" lon="6.4997">
        <ele>1344.4000244141</ele>
        <time>2019-08-29T18:02:56.000Z</time>
      </trkpt>
      <trkpt lat="46.03856" lon="6.49969">
        <ele>1344.1999511719</ele>
        <time>2019-08-29T18:02:59.000Z</time>
      </trkpt>
      <trkpt lat="46.03858" lon="6.4996">
        <ele>1343.4000244141</ele>
        <time>2019-08-29T18:03:01.000Z</time>
      </trkpt>
      <trkpt lat="46.03859" lon="6.49955">
        <ele>1343.1999511719</ele>
        <time>2019-08-29T18:03:05.000Z</time>
      </trkpt>
      <trkpt lat="46.03862" lon="6.49951">
        <ele>1341.8000488281</ele>
        <time>2019-08-29T18:03:08.000Z</time>
      </trkpt>
      <trkpt lat="46.03864" lon="6.4995">
        <ele>1340.5999755859</ele>
        <time>2019-08-29T18:03:09.000Z</time>
      </trkpt>
      <trkpt lat="46.03867" lon="6.49945">
        <ele>1339.5999755859</ele>
        <time>2019-08-29T18:03:12.000Z</time>
      </trkpt>
      <trkpt lat="46.03867" lon="6.49944">
        <ele>1339.4000244141</ele>
        <time>2019-08-29T18:03:14.000Z</time>
      </trkpt>
      <trkpt lat="46.0387" lon="6.49938">
        <ele>1338.4000244141</ele>
        <time>2019-08-29T18:03:15.000Z</time>
      </trkpt>
      <trkpt lat="46.03874" lon="6.49935">
        <ele>1337</ele>
        <time>2019-08-29T18:03:17.000Z</time>
      </trkpt>
      <trkpt lat="46.03877" lon="6.49932">
        <ele>1336.5999755859</ele>
        <time>2019-08-29T18:03:25.000Z</time>
      </trkpt>
      <trkpt lat="46.03882" lon="6.49927">
        <ele>1336</ele>
        <time>2019-08-29T18:03:27.000Z</time>
      </trkpt>
      <trkpt lat="46.03883" lon="6.49921">
        <ele>1336</ele>
        <time>2019-08-29T18:03:29.000Z</time>
      </trkpt>
      <trkpt lat="46.03884" lon="6.4992">
        <ele>1335.8000488281</ele>
        <time>2019-08-29T18:03:32.000Z</time>
      </trkpt>
      <trkpt lat="46.03887" lon="6.49918">
        <ele>1334.8000488281</ele>
        <time>2019-08-29T18:03:34.000Z</time>
      </trkpt>
      <trkpt lat="46.03889" lon="6.49916">
        <ele>1333.4000244141</ele>
        <time>2019-08-29T18:03:36.000Z</time>
      </trkpt>
      <trkpt lat="46.0389" lon="6.49915">
        <ele>1332.8000488281</ele>
        <time>2019-08-29T18:03:41.000Z</time>
      </trkpt>
      <trkpt lat="46.03893" lon="6.49913">
        <ele>1332.1999511719</ele>
        <time>2019-08-29T18:03:44.000Z</time>
      </trkpt>
      <trkpt lat="46.039" lon="6.49903">
        <ele>1331.5999755859</ele>
        <time>2019-08-29T18:03:48.000Z</time>
      </trkpt>
      <trkpt lat="46.03901" lon="6.499">
        <ele>1331.1999511719</ele>
        <time>2019-08-29T18:03:49.000Z</time>
      </trkpt>
      <trkpt lat="46.03903" lon="6.49898">
        <ele>1330</ele>
        <time>2019-08-29T18:03:50.000Z</time>
      </trkpt>
      <trkpt lat="46.03904" lon="6.49892">
        <ele>1328.5999755859</ele>
        <time>2019-08-29T18:03:54.000Z</time>
      </trkpt>
      <trkpt lat="46.03906" lon="6.49889">
        <ele>1328</ele>
        <time>2019-08-29T18:03:58.000Z</time>
      </trkpt>
      <trkpt lat="46.03908" lon="6.49885">
        <ele>1327.5999755859</ele>
        <time>2019-08-29T18:04:05.000Z</time>
      </trkpt>
      <trkpt lat="46.03911" lon="6.49877">
        <ele>1327</ele>
        <time>2019-08-29T18:04:06.000Z</time>
      </trkpt>
      <trkpt lat="46.03913" lon="6.49871">
        <ele>1326.4000244141</ele>
        <time>2019-08-29T18:04:09.000Z</time>
      </trkpt>
      <trkpt lat="46.03914" lon="6.49863">
        <ele>1325.1999511719</ele>
        <time>2019-08-29T18:04:11.000Z</time>
      </trkpt>
      <trkpt lat="46.03915" lon="6.4986">
        <ele>1324.5999755859</ele>
        <time>2019-08-29T18:04:12.000Z</time>
      </trkpt>
      <trkpt lat="46.03915" lon="6.49858">
        <ele>1324</ele>
        <time>2019-08-29T18:04:16.000Z</time>
      </trkpt>
      <trkpt lat="46.03918" lon="6.49848">
        <ele>1322.8000488281</ele>
        <time>2019-08-29T18:04:19.000Z</time>
      </trkpt>
      <trkpt lat="46.03922" lon="6.49838">
        <ele>1321.8000488281</ele>
        <time>2019-08-29T18:04:21.000Z</time>
      </trkpt>
      <trkpt lat="46.03929" lon="6.49825">
        <ele>1320.8000488281</ele>
        <time>2019-08-29T18:04:24.000Z</time>
      </trkpt>
      <trkpt lat="46.03931" lon="6.49825">
        <ele>1320.4000244141</ele>
        <time>2019-08-29T18:04:25.000Z</time>
      </trkpt>
      <trkpt lat="46.03934" lon="6.49824">
        <ele>1319.1999511719</ele>
        <time>2019-08-29T18:04:28.000Z</time>
      </trkpt>
      <trkpt lat="46.03936" lon="6.49822">
        <ele>1318.1999511719</ele>
        <time>2019-08-29T18:04:31.000Z</time>
      </trkpt>
      <trkpt lat="46.03938" lon="6.49821">
        <ele>1317.8000488281</ele>
        <time>2019-08-29T18:04:32.000Z</time>
      </trkpt>
      <trkpt lat="46.03942" lon="6.49813">
        <ele>1316.8000488281</ele>
        <time>2019-08-29T18:04:33.000Z</time>
      </trkpt>
      <trkpt lat="46.03945" lon="6.49808">
        <ele>1316.1999511719</ele>
        <time>2019-08-29T18:04:34.000Z</time>
      </trkpt>
      <trkpt lat="46.03945" lon="6.49803">
        <ele>1315.4000244141</ele>
        <time>2019-08-29T18:04:37.000Z</time>
      </trkpt>
      <trkpt lat="46.03946" lon="6.49795">
        <ele>1314.4000244141</ele>
        <time>2019-08-29T18:04:39.000Z</time>
      </trkpt>
      <trkpt lat="46.03946" lon="6.49791">
        <ele>1314.1999511719</ele>
        <time>2019-08-29T18:04:40.000Z</time>
      </trkpt>
      <trkpt lat="46.03949" lon="6.49785">
        <ele>1314</ele>
        <time>2019-08-29T18:04:43.000Z</time>
      </trkpt>
      <trkpt lat="46.03952" lon="6.49781">
        <ele>1313.4000244141</ele>
        <time>2019-08-29T18:04:48.000Z</time>
      </trkpt>
      <trkpt lat="46.03952" lon="6.49779">
        <ele>1313</ele>
        <time>2019-08-29T18:04:50.000Z</time>
      </trkpt>
      <trkpt lat="46.03953" lon="6.49778">
        <ele>1312.5999755859</ele>
        <time>2019-08-29T18:04:52.000Z</time>
      </trkpt>
      <trkpt lat="46.03953" lon="6.49775">
        <ele>1312</ele>
        <time>2019-08-29T18:04:53.000Z</time>
      </trkpt>
      <trkpt lat="46.03954" lon="6.49768">
        <ele>1310.5999755859</ele>
        <time>2019-08-29T18:04:54.000Z</time>
      </trkpt>
      <trkpt lat="46.03956" lon="6.49764">
        <ele>1309.5999755859</ele>
        <time>2019-08-29T18:04:55.000Z</time>
      </trkpt>
      <trkpt lat="46.03957" lon="6.49762">
        <ele>1309</ele>
        <time>2019-08-29T18:04:59.000Z</time>
      </trkpt>
      <trkpt lat="46.03959" lon="6.49755">
        <ele>1308.4000244141</ele>
        <time>2019-08-29T18:05:02.000Z</time>
      </trkpt>
      <trkpt lat="46.03962" lon="6.49745">
        <ele>1307.8000488281</ele>
        <time>2019-08-29T18:05:04.000Z</time>
      </trkpt>
      <trkpt lat="46.03963" lon="6.49742">
        <ele>1307.1999511719</ele>
        <time>2019-08-29T18:05:05.000Z</time>
      </trkpt>
      <trkpt lat="46.03963" lon="6.49737">
        <ele>1306</ele>
        <time>2019-08-29T18:05:10.000Z</time>
      </trkpt>
      <trkpt lat="46.03963" lon="6.49734">
        <ele>1305.4000244141</ele>
        <time>2019-08-29T18:05:12.000Z</time>
      </trkpt>
      <trkpt lat="46.03963" lon="6.49732">
        <ele>1305</ele>
        <time>2019-08-29T18:05:15.000Z</time>
      </trkpt>
      <trkpt lat="46.03964" lon="6.49731">
        <ele>1304.8000488281</ele>
        <time>2019-08-29T18:05:16.000Z</time>
      </trkpt>
      <trkpt lat="46.03966" lon="6.4973">
        <ele>1303.5999755859</ele>
        <time>2019-08-29T18:05:17.000Z</time>
      </trkpt>
      <trkpt lat="46.03968" lon="6.49728">
        <ele>1302.5999755859</ele>
        <time>2019-08-29T18:05:19.000Z</time>
      </trkpt>
      <trkpt lat="46.03968" lon="6.49725">
        <ele>1301.1999511719</ele>
        <time>2019-08-29T18:05:21.000Z</time>
      </trkpt>
      <trkpt lat="46.03968" lon="6.49724">
        <ele>1300.8000488281</ele>
        <time>2019-08-29T18:05:22.000Z</time>
      </trkpt>
      <trkpt lat="46.03971" lon="6.49717">
        <ele>1300.1999511719</ele>
        <time>2019-08-29T18:05:23.000Z</time>
      </trkpt>
      <trkpt lat="46.03971" lon="6.49714">
        <ele>1300</ele>
        <time>2019-08-29T18:05:25.000Z</time>
      </trkpt>
      <trkpt lat="46.0397" lon="6.49708">
        <ele>1299</ele>
        <time>2019-08-29T18:05:26.000Z</time>
      </trkpt>
      <trkpt lat="46.0397" lon="6.49707">
        <ele>1298.4000244141</ele>
        <time>2019-08-29T18:05:27.000Z</time>
      </trkpt>
      <trkpt lat="46.03969" lon="6.49705">
        <ele>1297.8000488281</ele>
        <time>2019-08-29T18:05:28.000Z</time>
      </trkpt>
      <trkpt lat="46.03968" lon="6.49702">
        <ele>1296.5999755859</ele>
        <time>2019-08-29T18:05:30.000Z</time>
      </trkpt>
      <trkpt lat="46.03968" lon="6.49701">
        <ele>1295.8000488281</ele>
        <time>2019-08-29T18:05:32.000Z</time>
      </trkpt>
      <trkpt lat="46.03968" lon="6.497">
        <ele>1295.5999755859</ele>
        <time>2019-08-29T18:05:33.000Z</time>
      </trkpt>
      <trkpt lat="46.03968" lon="6.49698">
        <ele>1295.4000244141</ele>
        <time>2019-08-29T18:05:37.000Z</time>
      </trkpt>
      <trkpt lat="46.03969" lon="6.49695">
        <ele>1295</ele>
        <time>2019-08-29T18:05:40.000Z</time>
      </trkpt>
      <trkpt lat="46.03968" lon="6.49693">
        <ele>1294.5999755859</ele>
        <time>2019-08-29T18:05:43.000Z</time>
      </trkpt>
      <trkpt lat="46.03968" lon="6.49692">
        <ele>1294.1999511719</ele>
        <time>2019-08-29T18:05:44.000Z</time>
      </trkpt>
      <trkpt lat="46.03968" lon="6.49691">
        <ele>1294</ele>
        <time>2019-08-29T18:05:46.000Z</time>
      </trkpt>
      <trkpt lat="46.03968" lon="6.49689">
        <ele>1293</ele>
        <time>2019-08-29T18:05:47.000Z</time>
      </trkpt>
      <trkpt lat="46.03969" lon="6.49685">
        <ele>1292.1999511719</ele>
        <time>2019-08-29T18:05:48.000Z</time>
      </trkpt>
      <trkpt lat="46.03969" lon="6.49683">
        <ele>1292</ele>
        <time>2019-08-29T18:05:50.000Z</time>
      </trkpt>
      <trkpt lat="46.03968" lon="6.49674">
        <ele>1291.4000244141</ele>
        <time>2019-08-29T18:05:52.000Z</time>
      </trkpt>
      <trkpt lat="46.03968" lon="6.49667">
        <ele>1291</ele>
        <time>2019-08-29T18:05:53.000Z</time>
      </trkpt>
      <trkpt lat="46.03967" lon="6.49662">
        <ele>1289.5999755859</ele>
        <time>2019-08-29T18:05:54.000Z</time>
      </trkpt>
      <trkpt lat="46.03966" lon="6.4966">
        <ele>1289.4000244141</ele>
        <time>2019-08-29T18:05:55.000Z</time>
      </trkpt>
      <trkpt lat="46.03964" lon="6.49655">
        <ele>1289</ele>
        <time>2019-08-29T18:05:57.000Z</time>
      </trkpt>
      <trkpt lat="46.03963" lon="6.49652">
        <ele>1288.5999755859</ele>
        <time>2019-08-29T18:05:59.000Z</time>
      </trkpt>
      <trkpt lat="46.03962" lon="6.49649">
        <ele>1288.1999511719</ele>
        <time>2019-08-29T18:06:00.000Z</time>
      </trkpt>
      <trkpt lat="46.03961" lon="6.49645">
        <ele>1287.5999755859</ele>
        <time>2019-08-29T18:06:01.000Z</time>
      </trkpt>
      <trkpt lat="46.03961" lon="6.49641">
        <ele>1286.5999755859</ele>
        <time>2019-08-29T18:06:06.000Z</time>
      </trkpt>
      <trkpt lat="46.03963" lon="6.49638">
        <ele>1286.4000244141</ele>
        <time>2019-08-29T18:06:10.000Z</time>
      </trkpt>
      <trkpt lat="46.03964" lon="6.49636">
        <ele>1286.1999511719</ele>
        <time>2019-08-29T18:06:13.000Z</time>
      </trkpt>
      <trkpt lat="46.03965" lon="6.49633">
        <ele>1286</ele>
        <time>2019-08-29T18:06:15.000Z</time>
      </trkpt>
      <trkpt lat="46.03969" lon="6.4963">
        <ele>1285.8000488281</ele>
        <time>2019-08-29T18:06:17.000Z</time>
      </trkpt>
      <trkpt lat="46.03972" lon="6.49629">
        <ele>1285.1999511719</ele>
        <time>2019-08-29T18:06:19.000Z</time>
      </trkpt>
      <trkpt lat="46.03974" lon="6.49629">
        <ele>1284.5999755859</ele>
        <time>2019-08-29T18:06:20.000Z</time>
      </trkpt>
      <trkpt lat="46.03976" lon="6.49631">
        <ele>1284.1999511719</ele>
        <time>2019-08-29T18:06:22.000Z</time>
      </trkpt>
      <trkpt lat="46.03985" lon="6.49637">
        <ele>1283.1999511719</ele>
        <time>2019-08-29T18:06:24.000Z</time>
      </trkpt>
      <trkpt lat="46.03992" lon="6.49639">
        <ele>1283.1999511719</ele>
        <time>2019-08-29T18:06:26.000Z</time>
      </trkpt>
      <trkpt lat="46.03997" lon="6.4964">
        <ele>1282</ele>
        <time>2019-08-29T18:06:27.000Z</time>
      </trkpt>
      <trkpt lat="46.04" lon="6.49641">
        <ele>1281.5999755859</ele>
        <time>2019-08-29T18:06:32.000Z</time>
      </trkpt>
      <trkpt lat="46.04002" lon="6.49641">
        <ele>1281.4000244141</ele>
        <time>2019-08-29T18:06:34.000Z</time>
      </trkpt>
      <trkpt lat="46.04004" lon="6.49641">
        <ele>1281</ele>
        <time>2019-08-29T18:06:37.000Z</time>
      </trkpt>
      <trkpt lat="46.04005" lon="6.49641">
        <ele>1280.8000488281</ele>
        <time>2019-08-29T18:06:38.000Z</time>
      </trkpt>
      <trkpt lat="46.04007" lon="6.49642">
        <ele>1280.5999755859</ele>
        <time>2019-08-29T18:06:42.000Z</time>
      </trkpt>
      <trkpt lat="46.0401" lon="6.49643">
        <ele>1280.1999511719</ele>
        <time>2019-08-29T18:06:43.000Z</time>
      </trkpt>
      <trkpt lat="46.04013" lon="6.49644">
        <ele>1279.8000488281</ele>
        <time>2019-08-29T18:06:44.000Z</time>
      </trkpt>
      <trkpt lat="46.04014" lon="6.49645">
        <ele>1279.5999755859</ele>
        <time>2019-08-29T18:06:45.000Z</time>
      </trkpt>
      <trkpt lat="46.04023" lon="6.49646">
        <ele>1279.4000244141</ele>
        <time>2019-08-29T18:06:46.000Z</time>
      </trkpt>
      <trkpt lat="46.04026" lon="6.49646">
        <ele>1278.1999511719</ele>
        <time>2019-08-29T18:06:51.000Z</time>
      </trkpt>
      <trkpt lat="46.04031" lon="6.49647">
        <ele>1277</ele>
        <time>2019-08-29T18:06:52.000Z</time>
      </trkpt>
      <trkpt lat="46.04033" lon="6.49648">
        <ele>1276.8000488281</ele>
        <time>2019-08-29T18:06:53.000Z</time>
      </trkpt>
      <trkpt lat="46.04039" lon="6.4965">
        <ele>1276.1999511719</ele>
        <time>2019-08-29T18:06:55.000Z</time>
      </trkpt>
      <trkpt lat="46.0404" lon="6.4965">
        <ele>1276</ele>
        <time>2019-08-29T18:06:57.000Z</time>
      </trkpt>
      <trkpt lat="46.04042" lon="6.4965">
        <ele>1275.5999755859</ele>
        <time>2019-08-29T18:06:58.000Z</time>
      </trkpt>
      <trkpt lat="46.04043" lon="6.4965">
        <ele>1275.1999511719</ele>
        <time>2019-08-29T18:06:59.000Z</time>
      </trkpt>
      <trkpt lat="46.04044" lon="6.49649">
        <ele>1274.8000488281</ele>
        <time>2019-08-29T18:07:03.000Z</time>
      </trkpt>
      <trkpt lat="46.04047" lon="6.49651">
        <ele>1274</ele>
        <time>2019-08-29T18:07:09.000Z</time>
      </trkpt>
      <trkpt lat="46.04048" lon="6.49651">
        <ele>1273.8000488281</ele>
        <time>2019-08-29T18:07:10.000Z</time>
      </trkpt>
      <trkpt lat="46.04048" lon="6.49651">
        <ele>1273.4000244141</ele>
        <time>2019-08-29T18:07:15.000Z</time>
      </trkpt>
      <trkpt lat="46.0405" lon="6.49651">
        <ele>1272.1999511719</ele>
        <time>2019-08-29T18:07:19.000Z</time>
      </trkpt>
      <trkpt lat="46.04052" lon="6.4965">
        <ele>1271</ele>
        <time>2019-08-29T18:07:22.000Z</time>
      </trkpt>
      <trkpt lat="46.04053" lon="6.49648">
        <ele>1270.4000244141</ele>
        <time>2019-08-29T18:07:23.000Z</time>
      </trkpt>
      <trkpt lat="46.04053" lon="6.49647">
        <ele>1270</ele>
        <time>2019-08-29T18:07:27.000Z</time>
      </trkpt>
      <trkpt lat="46.04052" lon="6.49642">
        <ele>1268.8000488281</ele>
        <time>2019-08-29T18:07:30.000Z</time>
      </trkpt>
      <trkpt lat="46.0405" lon="6.49631">
        <ele>1267.8000488281</ele>
        <time>2019-08-29T18:07:32.000Z</time>
      </trkpt>
      <trkpt lat="46.0405" lon="6.49629">
        <ele>1267.5999755859</ele>
        <time>2019-08-29T18:07:33.000Z</time>
      </trkpt>
      <trkpt lat="46.0405" lon="6.4962">
        <ele>1267.1999511719</ele>
        <time>2019-08-29T18:07:35.000Z</time>
      </trkpt>
      <trkpt lat="46.04049" lon="6.49613">
        <ele>1266.4000244141</ele>
        <time>2019-08-29T18:07:38.000Z</time>
      </trkpt>
      <trkpt lat="46.0405" lon="6.49608">
        <ele>1265.1999511719</ele>
        <time>2019-08-29T18:07:39.000Z</time>
      </trkpt>
      <trkpt lat="46.0405" lon="6.49606">
        <ele>1265</ele>
        <time>2019-08-29T18:07:44.000Z</time>
      </trkpt>
      <trkpt lat="46.04049" lon="6.49599">
        <ele>1264.1999511719</ele>
        <time>2019-08-29T18:07:46.000Z</time>
      </trkpt>
      <trkpt lat="46.04047" lon="6.49594">
        <ele>1263.5999755859</ele>
        <time>2019-08-29T18:07:51.000Z</time>
      </trkpt>
      <trkpt lat="46.04045" lon="6.4959">
        <ele>1263.5999755859</ele>
        <time>2019-08-29T18:07:52.000Z</time>
      </trkpt>
      <trkpt lat="46.04044" lon="6.49589">
        <ele>1263.5999755859</ele>
        <time>2019-08-29T18:07:54.000Z</time>
      </trkpt>
      <trkpt lat="46.04043" lon="6.49587">
        <ele>1263.1999511719</ele>
        <time>2019-08-29T18:07:56.000Z</time>
      </trkpt>
      <trkpt lat="46.0404" lon="6.4958">
        <ele>1262.4000244141</ele>
        <time>2019-08-29T18:07:57.000Z</time>
      </trkpt>
      <trkpt lat="46.0404" lon="6.49577">
        <ele>1262.1999511719</ele>
        <time>2019-08-29T18:07:58.000Z</time>
      </trkpt>
      <trkpt lat="46.04037" lon="6.4957">
        <ele>1261</ele>
        <time>2019-08-29T18:07:59.000Z</time>
      </trkpt>
      <trkpt lat="46.04036" lon="6.49567">
        <ele>1260.8000488281</ele>
        <time>2019-08-29T18:08:01.000Z</time>
      </trkpt>
      <trkpt lat="46.04032" lon="6.49557">
        <ele>1259.5999755859</ele>
        <time>2019-08-29T18:08:02.000Z</time>
      </trkpt>
      <trkpt lat="46.04032" lon="6.49556">
        <ele>1259</ele>
        <time>2019-08-29T18:08:05.000Z</time>
      </trkpt>
      <trkpt lat="46.04031" lon="6.49553">
        <ele>1258.1999511719</ele>
        <time>2019-08-29T18:08:06.000Z</time>
      </trkpt>
      <trkpt lat="46.0403" lon="6.49549">
        <ele>1257.4000244141</ele>
        <time>2019-08-29T18:08:07.000Z</time>
      </trkpt>
      <trkpt lat="46.04031" lon="6.49547">
        <ele>1257.1999511719</ele>
        <time>2019-08-29T18:08:09.000Z</time>
      </trkpt>
      <trkpt lat="46.04032" lon="6.49545">
        <ele>1257</ele>
        <time>2019-08-29T18:08:11.000Z</time>
      </trkpt>
      <trkpt lat="46.04033" lon="6.49543">
        <ele>1257</ele>
        <time>2019-08-29T18:08:13.000Z</time>
      </trkpt>
      <trkpt lat="46.04036" lon="6.49538">
        <ele>1256.1999511719</ele>
        <time>2019-08-29T18:08:16.000Z</time>
      </trkpt>
      <trkpt lat="46.04037" lon="6.49536">
        <ele>1255.8000488281</ele>
        <time>2019-08-29T18:08:18.000Z</time>
      </trkpt>
      <trkpt lat="46.04043" lon="6.49528">
        <ele>1254.4000244141</ele>
        <time>2019-08-29T18:08:19.000Z</time>
      </trkpt>
      <trkpt lat="46.04045" lon="6.49526">
        <ele>1253.8000488281</ele>
        <time>2019-08-29T18:08:20.000Z</time>
      </trkpt>
      <trkpt lat="46.04046" lon="6.49523">
        <ele>1253.4000244141</ele>
        <time>2019-08-29T18:08:23.000Z</time>
      </trkpt>
      <trkpt lat="46.04048" lon="6.49523">
        <ele>1252.5999755859</ele>
        <time>2019-08-29T18:08:25.000Z</time>
      </trkpt>
      <trkpt lat="46.04049" lon="6.49521">
        <ele>1252</ele>
        <time>2019-08-29T18:08:26.000Z</time>
      </trkpt>
      <trkpt lat="46.04051" lon="6.49518">
        <ele>1251</ele>
        <time>2019-08-29T18:08:28.000Z</time>
      </trkpt>
      <trkpt lat="46.04054" lon="6.49516">
        <ele>1249.8000488281</ele>
        <time>2019-08-29T18:08:29.000Z</time>
      </trkpt>
      <trkpt lat="46.04057" lon="6.49514">
        <ele>1249.1999511719</ele>
        <time>2019-08-29T18:08:30.000Z</time>
      </trkpt>
      <trkpt lat="46.04058" lon="6.49513">
        <ele>1249</ele>
        <time>2019-08-29T18:08:32.000Z</time>
      </trkpt>
      <trkpt lat="46.0406" lon="6.49513">
        <ele>1248.8000488281</ele>
        <time>2019-08-29T18:08:33.000Z</time>
      </trkpt>
      <trkpt lat="46.04064" lon="6.4951">
        <ele>1248.1999511719</ele>
        <time>2019-08-29T18:08:36.000Z</time>
      </trkpt>
      <trkpt lat="46.04067" lon="6.49507">
        <ele>1247.5999755859</ele>
        <time>2019-08-29T18:08:37.000Z</time>
      </trkpt>
      <trkpt lat="46.04068" lon="6.49506">
        <ele>1247.1999511719</ele>
        <time>2019-08-29T18:08:39.000Z</time>
      </trkpt>
      <trkpt lat="46.04071" lon="6.49504">
        <ele>1246.4000244141</ele>
        <time>2019-08-29T18:08:40.000Z</time>
      </trkpt>
      <trkpt lat="46.04073" lon="6.49502">
        <ele>1246</ele>
        <time>2019-08-29T18:08:42.000Z</time>
      </trkpt>
      <trkpt lat="46.04075" lon="6.49501">
        <ele>1245.4000244141</ele>
        <time>2019-08-29T18:08:43.000Z</time>
      </trkpt>
      <trkpt lat="46.04078" lon="6.49497">
        <ele>1244.5999755859</ele>
        <time>2019-08-29T18:08:44.000Z</time>
      </trkpt>
      <trkpt lat="46.04079" lon="6.49496">
        <ele>1244.1999511719</ele>
        <time>2019-08-29T18:08:48.000Z</time>
      </trkpt>
      <trkpt lat="46.04081" lon="6.49492">
        <ele>1243</ele>
        <time>2019-08-29T18:08:49.000Z</time>
      </trkpt>
      <trkpt lat="46.04082" lon="6.4949">
        <ele>1243</ele>
        <time>2019-08-29T18:08:50.000Z</time>
      </trkpt>
      <trkpt lat="46.04083" lon="6.49487">
        <ele>1242.4000244141</ele>
        <time>2019-08-29T18:08:52.000Z</time>
      </trkpt>
      <trkpt lat="46.04085" lon="6.49486">
        <ele>1242</ele>
        <time>2019-08-29T18:08:55.000Z</time>
      </trkpt>
      <trkpt lat="46.04087" lon="6.49484">
        <ele>1241.1999511719</ele>
        <time>2019-08-29T18:08:57.000Z</time>
      </trkpt>
      <trkpt lat="46.04087" lon="6.49483">
        <ele>1240.8000488281</ele>
        <time>2019-08-29T18:08:58.000Z</time>
      </trkpt>
      <trkpt lat="46.04088" lon="6.49483">
        <ele>1240.5999755859</ele>
        <time>2019-08-29T18:08:59.000Z</time>
      </trkpt>
      <trkpt lat="46.04089" lon="6.49479">
        <ele>1239.8000488281</ele>
        <time>2019-08-29T18:09:02.000Z</time>
      </trkpt>
      <trkpt lat="46.0409" lon="6.49477">
        <ele>1239.5999755859</ele>
        <time>2019-08-29T18:09:03.000Z</time>
      </trkpt>
      <trkpt lat="46.0409" lon="6.49475">
        <ele>1239.4000244141</ele>
        <time>2019-08-29T18:09:04.000Z</time>
      </trkpt>
      <trkpt lat="46.04092" lon="6.49471">
        <ele>1238.5999755859</ele>
        <time>2019-08-29T18:09:05.000Z</time>
      </trkpt>
      <trkpt lat="46.04092" lon="6.49467">
        <ele>1237.4000244141</ele>
        <time>2019-08-29T18:09:06.000Z</time>
      </trkpt>
      <trkpt lat="46.04091" lon="6.49465">
        <ele>1236.8000488281</ele>
        <time>2019-08-29T18:09:07.000Z</time>
      </trkpt>
      <trkpt lat="46.04091" lon="6.49464">
        <ele>1236.5999755859</ele>
        <time>2019-08-29T18:09:08.000Z</time>
      </trkpt>
      <trkpt lat="46.04091" lon="6.49462">
        <ele>1236.1999511719</ele>
        <time>2019-08-29T18:09:12.000Z</time>
      </trkpt>
      <trkpt lat="46.04091" lon="6.49459">
        <ele>1235</ele>
        <time>2019-08-29T18:09:13.000Z</time>
      </trkpt>
      <trkpt lat="46.04091" lon="6.49458">
        <ele>1234.5999755859</ele>
        <time>2019-08-29T18:09:17.000Z</time>
      </trkpt>
      <trkpt lat="46.04091" lon="6.49457">
        <ele>1234.1999511719</ele>
        <time>2019-08-29T18:09:19.000Z</time>
      </trkpt>
      <trkpt lat="46.04091" lon="6.49456">
        <ele>1233.8000488281</ele>
        <time>2019-08-29T18:09:20.000Z</time>
      </trkpt>
      <trkpt lat="46.04092" lon="6.49455">
        <ele>1233.4000244141</ele>
        <time>2019-08-29T18:09:23.000Z</time>
      </trkpt>
      <trkpt lat="46.04092" lon="6.49453">
        <ele>1233</ele>
        <time>2019-08-29T18:09:25.000Z</time>
      </trkpt>
      <trkpt lat="46.04093" lon="6.49452">
        <ele>1232.4000244141</ele>
        <time>2019-08-29T18:09:26.000Z</time>
      </trkpt>
      <trkpt lat="46.04095" lon="6.49447">
        <ele>1231.4000244141</ele>
        <time>2019-08-29T18:09:27.000Z</time>
      </trkpt>
      <trkpt lat="46.04095" lon="6.49445">
        <ele>1231</ele>
        <time>2019-08-29T18:09:30.000Z</time>
      </trkpt>
      <trkpt lat="46.04097" lon="6.49435">
        <ele>1230.1999511719</ele>
        <time>2019-08-29T18:09:31.000Z</time>
      </trkpt>
      <trkpt lat="46.04099" lon="6.49431">
        <ele>1229.5999755859</ele>
        <time>2019-08-29T18:09:33.000Z</time>
      </trkpt>
      <trkpt lat="46.041" lon="6.49429">
        <ele>1229.1999511719</ele>
        <time>2019-08-29T18:09:34.000Z</time>
      </trkpt>
      <trkpt lat="46.04103" lon="6.49422">
        <ele>1228.1999511719</ele>
        <time>2019-08-29T18:09:36.000Z</time>
      </trkpt>
      <trkpt lat="46.04105" lon="6.49418">
        <ele>1227.1999511719</ele>
        <time>2019-08-29T18:09:38.000Z</time>
      </trkpt>
      <trkpt lat="46.04105" lon="6.49415">
        <ele>1226.8000488281</ele>
        <time>2019-08-29T18:09:40.000Z</time>
      </trkpt>
      <trkpt lat="46.04106" lon="6.49412">
        <ele>1226.4000244141</ele>
        <time>2019-08-29T18:09:42.000Z</time>
      </trkpt>
      <trkpt lat="46.04107" lon="6.49404">
        <ele>1225.8000488281</ele>
        <time>2019-08-29T18:09:43.000Z</time>
      </trkpt>
      <trkpt lat="46.04108" lon="6.49401">
        <ele>1225.5999755859</ele>
        <time>2019-08-29T18:09:44.000Z</time>
      </trkpt>
      <trkpt lat="46.04108" lon="6.49396">
        <ele>1224.8000488281</ele>
        <time>2019-08-29T18:09:45.000Z</time>
      </trkpt>
      <trkpt lat="46.04108" lon="6.49395">
        <ele>1224.4000244141</ele>
        <time>2019-08-29T18:09:46.000Z</time>
      </trkpt>
      <trkpt lat="46.04109" lon="6.49391">
        <ele>1223.8000488281</ele>
        <time>2019-08-29T18:09:47.000Z</time>
      </trkpt>
      <trkpt lat="46.04107" lon="6.49385">
        <ele>1223.4000244141</ele>
        <time>2019-08-29T18:09:49.000Z</time>
      </trkpt>
      <trkpt lat="46.04107" lon="6.49381">
        <ele>1222.5999755859</ele>
        <time>2019-08-29T18:09:51.000Z</time>
      </trkpt>
      <trkpt lat="46.04107" lon="6.49378">
        <ele>1222.4000244141</ele>
        <time>2019-08-29T18:09:52.000Z</time>
      </trkpt>
      <trkpt lat="46.04108" lon="6.49376">
        <ele>1222</ele>
        <time>2019-08-29T18:09:54.000Z</time>
      </trkpt>
      <trkpt lat="46.04108" lon="6.49373">
        <ele>1221.4000244141</ele>
        <time>2019-08-29T18:09:58.000Z</time>
      </trkpt>
      <trkpt lat="46.04109" lon="6.49371">
        <ele>1221</ele>
        <time>2019-08-29T18:09:59.000Z</time>
      </trkpt>
      <trkpt lat="46.04109" lon="6.4937">
        <ele>1220.5999755859</ele>
        <time>2019-08-29T18:10:00.000Z</time>
      </trkpt>
      <trkpt lat="46.04109" lon="6.49369">
        <ele>1220.4000244141</ele>
        <time>2019-08-29T18:10:01.000Z</time>
      </trkpt>
      <trkpt lat="46.04109" lon="6.49366">
        <ele>1220.1999511719</ele>
        <time>2019-08-29T18:10:04.000Z</time>
      </trkpt>
      <trkpt lat="46.04108" lon="6.49363">
        <ele>1220</ele>
        <time>2019-08-29T18:10:06.000Z</time>
      </trkpt>
      <trkpt lat="46.04108" lon="6.49362">
        <ele>1219.8000488281</ele>
        <time>2019-08-29T18:10:09.000Z</time>
      </trkpt>
      <trkpt lat="46.04108" lon="6.49358">
        <ele>1219.5999755859</ele>
        <time>2019-08-29T18:10:11.000Z</time>
      </trkpt>
      <trkpt lat="46.04108" lon="6.49351">
        <ele>1219</ele>
        <time>2019-08-29T18:10:12.000Z</time>
      </trkpt>
      <trkpt lat="46.04108" lon="6.49349">
        <ele>1218.5999755859</ele>
        <time>2019-08-29T18:10:15.000Z</time>
      </trkpt>
      <trkpt lat="46.04107" lon="6.49348">
        <ele>1218</ele>
        <time>2019-08-29T18:10:17.000Z</time>
      </trkpt>
      <trkpt lat="46.04107" lon="6.49346">
        <ele>1217.4000244141</ele>
        <time>2019-08-29T18:10:18.000Z</time>
      </trkpt>
      <trkpt lat="46.04107" lon="6.49343">
        <ele>1216.1999511719</ele>
        <time>2019-08-29T18:10:19.000Z</time>
      </trkpt>
      <trkpt lat="46.04108" lon="6.49339">
        <ele>1216</ele>
        <time>2019-08-29T18:10:22.000Z</time>
      </trkpt>
      <trkpt lat="46.04112" lon="6.4933">
        <ele>1215.4000244141</ele>
        <time>2019-08-29T18:10:25.000Z</time>
      </trkpt>
      <trkpt lat="46.04114" lon="6.49323">
        <ele>1215.1999511719</ele>
        <time>2019-08-29T18:10:29.000Z</time>
      </trkpt>
      <trkpt lat="46.04115" lon="6.4932">
        <ele>1215</ele>
        <time>2019-08-29T18:10:31.000Z</time>
      </trkpt>
      <trkpt lat="46.04117" lon="6.49313">
        <ele>1214.4000244141</ele>
        <time>2019-08-29T18:10:32.000Z</time>
      </trkpt>
      <trkpt lat="46.04117" lon="6.49309">
        <ele>1214.1999511719</ele>
        <time>2019-08-29T18:10:33.000Z</time>
      </trkpt>
      <trkpt lat="46.04118" lon="6.49306">
        <ele>1214</ele>
        <time>2019-08-29T18:10:39.000Z</time>
      </trkpt>
      <trkpt lat="46.04119" lon="6.49305">
        <ele>1214</ele>
        <time>2019-08-29T18:10:41.000Z</time>
      </trkpt>
      <trkpt lat="46.04121" lon="6.49299">
        <ele>1213</ele>
        <time>2019-08-29T18:10:45.000Z</time>
      </trkpt>
      <trkpt lat="46.04123" lon="6.49294">
        <ele>1212.4000244141</ele>
        <time>2019-08-29T18:10:47.000Z</time>
      </trkpt>
      <trkpt lat="46.04126" lon="6.49286">
        <ele>1212</ele>
        <time>2019-08-29T18:10:50.000Z</time>
      </trkpt>
      <trkpt lat="46.04128" lon="6.49283">
        <ele>1211</ele>
        <time>2019-08-29T18:10:53.000Z</time>
      </trkpt>
      <trkpt lat="46.04129" lon="6.49281">
        <ele>1210.8000488281</ele>
        <time>2019-08-29T18:10:56.000Z</time>
      </trkpt>
      <trkpt lat="46.0413" lon="6.49279">
        <ele>1210.5999755859</ele>
        <time>2019-08-29T18:10:59.000Z</time>
      </trkpt>
      <trkpt lat="46.04136" lon="6.49269">
        <ele>1209.5999755859</ele>
        <time>2019-08-29T18:11:00.000Z</time>
      </trkpt>
      <trkpt lat="46.04138" lon="6.49265">
        <ele>1209.4000244141</ele>
        <time>2019-08-29T18:11:01.000Z</time>
      </trkpt>
      <trkpt lat="46.04139" lon="6.49258">
        <ele>1208.1999511719</ele>
        <time>2019-08-29T18:11:02.000Z</time>
      </trkpt>
      <trkpt lat="46.0414" lon="6.49255">
        <ele>1207</ele>
        <time>2019-08-29T18:11:04.000Z</time>
      </trkpt>
      <trkpt lat="46.04141" lon="6.49251">
        <ele>1206</ele>
        <time>2019-08-29T18:11:05.000Z</time>
      </trkpt>
      <trkpt lat="46.04142" lon="6.49246">
        <ele>1205.4000244141</ele>
        <time>2019-08-29T18:11:06.000Z</time>
      </trkpt>
      <trkpt lat="46.04144" lon="6.49242">
        <ele>1205</ele>
        <time>2019-08-29T18:11:08.000Z</time>
      </trkpt>
      <trkpt lat="46.04146" lon="6.49238">
        <ele>1204.4000244141</ele>
        <time>2019-08-29T18:11:10.000Z</time>
      </trkpt>
      <trkpt lat="46.04147" lon="6.49236">
        <ele>1203.8000488281</ele>
        <time>2019-08-29T18:11:11.000Z</time>
      </trkpt>
      <trkpt lat="46.04148" lon="6.49234">
        <ele>1203.1999511719</ele>
        <time>2019-08-29T18:11:12.000Z</time>
      </trkpt>
      <trkpt lat="46.04149" lon="6.49233">
        <ele>1202.5999755859</ele>
        <time>2019-08-29T18:11:14.000Z</time>
      </trkpt>
      <trkpt lat="46.04151" lon="6.4923">
        <ele>1202</ele>
        <time>2019-08-29T18:11:15.000Z</time>
      </trkpt>
      <trkpt lat="46.04151" lon="6.49229">
        <ele>1201.5999755859</ele>
        <time>2019-08-29T18:11:16.000Z</time>
      </trkpt>
      <trkpt lat="46.04152" lon="6.49227">
        <ele>1201.4000244141</ele>
        <time>2019-08-29T18:11:18.000Z</time>
      </trkpt>
      <trkpt lat="46.04153" lon="6.49223">
        <ele>1200.8000488281</ele>
        <time>2019-08-29T18:11:21.000Z</time>
      </trkpt>
      <trkpt lat="46.04153" lon="6.49219">
        <ele>1200.4000244141</ele>
        <time>2019-08-29T18:11:22.000Z</time>
      </trkpt>
      <trkpt lat="46.04153" lon="6.49218">
        <ele>1200.1999511719</ele>
        <time>2019-08-29T18:11:23.000Z</time>
      </trkpt>
      <trkpt lat="46.04153" lon="6.49217">
        <ele>1200</ele>
        <time>2019-08-29T18:11:27.000Z</time>
      </trkpt>
      <trkpt lat="46.04155" lon="6.49216">
        <ele>1199.5999755859</ele>
        <time>2019-08-29T18:11:28.000Z</time>
      </trkpt>
      <trkpt lat="46.04155" lon="6.49215">
        <ele>1199.4000244141</ele>
        <time>2019-08-29T18:11:31.000Z</time>
      </trkpt>
      <trkpt lat="46.04157" lon="6.49214">
        <ele>1199</ele>
        <time>2019-08-29T18:11:33.000Z</time>
      </trkpt>
      <trkpt lat="46.04158" lon="6.49211">
        <ele>1198.4000244141</ele>
        <time>2019-08-29T18:11:34.000Z</time>
      </trkpt>
      <trkpt lat="46.04161" lon="6.49205">
        <ele>1198</ele>
        <time>2019-08-29T18:11:35.000Z</time>
      </trkpt>
      <trkpt lat="46.04162" lon="6.49204">
        <ele>1197.8000488281</ele>
        <time>2019-08-29T18:11:37.000Z</time>
      </trkpt>
      <trkpt lat="46.04163" lon="6.49201">
        <ele>1197.5999755859</ele>
        <time>2019-08-29T18:11:39.000Z</time>
      </trkpt>
      <trkpt lat="46.04167" lon="6.49191">
        <ele>1197</ele>
        <time>2019-08-29T18:11:41.000Z</time>
      </trkpt>
      <trkpt lat="46.04168" lon="6.49188">
        <ele>1196.8000488281</ele>
        <time>2019-08-29T18:11:46.000Z</time>
      </trkpt>
      <trkpt lat="46.0417" lon="6.49182">
        <ele>1195.8000488281</ele>
        <time>2019-08-29T18:11:47.000Z</time>
      </trkpt>
      <trkpt lat="46.04171" lon="6.4918">
        <ele>1195.1999511719</ele>
        <time>2019-08-29T18:11:49.000Z</time>
      </trkpt>
      <trkpt lat="46.04171" lon="6.49179">
        <ele>1194.5999755859</ele>
        <time>2019-08-29T18:11:53.000Z</time>
      </trkpt>
      <trkpt lat="46.04171" lon="6.49178">
        <ele>1194.1999511719</ele>
        <time>2019-08-29T18:11:55.000Z</time>
      </trkpt>
      <trkpt lat="46.0417" lon="6.49176">
        <ele>1193.5999755859</ele>
        <time>2019-08-29T18:11:57.000Z</time>
      </trkpt>
      <trkpt lat="46.04171" lon="6.49174">
        <ele>1193</ele>
        <time>2019-08-29T18:12:00.000Z</time>
      </trkpt>
      <trkpt lat="46.04171" lon="6.4917">
        <ele>1192.1999511719</ele>
        <time>2019-08-29T18:12:01.000Z</time>
      </trkpt>
      <trkpt lat="46.0417" lon="6.49163">
        <ele>1191.1999511719</ele>
        <time>2019-08-29T18:12:04.000Z</time>
      </trkpt>
      <trkpt lat="46.0417" lon="6.49161">
        <ele>1191.1999511719</ele>
        <time>2019-08-29T18:12:05.000Z</time>
      </trkpt>
      <trkpt lat="46.0417" lon="6.49159">
        <ele>1191.1999511719</ele>
        <time>2019-08-29T18:12:06.000Z</time>
      </trkpt>
      <trkpt lat="46.04169" lon="6.49153">
        <ele>1190.8000488281</ele>
        <time>2019-08-29T18:12:07.000Z</time>
      </trkpt>
      <trkpt lat="46.04169" lon="6.4915">
        <ele>1190.4000244141</ele>
        <time>2019-08-29T18:12:12.000Z</time>
      </trkpt>
      <trkpt lat="46.04169" lon="6.49147">
        <ele>1190</ele>
        <time>2019-08-29T18:12:13.000Z</time>
      </trkpt>
      <trkpt lat="46.04169" lon="6.49141">
        <ele>1189.1999511719</ele>
        <time>2019-08-29T18:12:16.000Z</time>
      </trkpt>
      <trkpt lat="46.04169" lon="6.49139">
        <ele>1188.8000488281</ele>
        <time>2019-08-29T18:12:17.000Z</time>
      </trkpt>
      <trkpt lat="46.04169" lon="6.49136">
        <ele>1187.4000244141</ele>
        <time>2019-08-29T18:12:20.000Z</time>
      </trkpt>
      <trkpt lat="46.04169" lon="6.49134">
        <ele>1186.8000488281</ele>
        <time>2019-08-29T18:12:23.000Z</time>
      </trkpt>
      <trkpt lat="46.04169" lon="6.49132">
        <ele>1186.4000244141</ele>
        <time>2019-08-29T18:12:25.000Z</time>
      </trkpt>
      <trkpt lat="46.0417" lon="6.4913">
        <ele>1186.1999511719</ele>
        <time>2019-08-29T18:12:26.000Z</time>
      </trkpt>
      <trkpt lat="46.04169" lon="6.49121">
        <ele>1185</ele>
        <time>2019-08-29T18:12:28.000Z</time>
      </trkpt>
      <trkpt lat="46.04169" lon="6.49119">
        <ele>1184.5999755859</ele>
        <time>2019-08-29T18:12:29.000Z</time>
      </trkpt>
      <trkpt lat="46.0417" lon="6.49116">
        <ele>1183.8000488281</ele>
        <time>2019-08-29T18:12:33.000Z</time>
      </trkpt>
      <trkpt lat="46.0417" lon="6.49114">
        <ele>1183.5999755859</ele>
        <time>2019-08-29T18:12:35.000Z</time>
      </trkpt>
      <trkpt lat="46.04172" lon="6.4911">
        <ele>1182.8000488281</ele>
        <time>2019-08-29T18:12:36.000Z</time>
      </trkpt>
      <trkpt lat="46.04172" lon="6.49103">
        <ele>1182.1999511719</ele>
        <time>2019-08-29T18:12:37.000Z</time>
      </trkpt>
      <trkpt lat="46.04172" lon="6.49098">
        <ele>1181.5999755859</ele>
        <time>2019-08-29T18:12:39.000Z</time>
      </trkpt>
      <trkpt lat="46.04173" lon="6.49096">
        <ele>1181.1999511719</ele>
        <time>2019-08-29T18:12:41.000Z</time>
      </trkpt>
      <trkpt lat="46.04173" lon="6.49092">
        <ele>1180.5999755859</ele>
        <time>2019-08-29T18:12:44.000Z</time>
      </trkpt>
      <trkpt lat="46.04173" lon="6.4909">
        <ele>1180.4000244141</ele>
        <time>2019-08-29T18:12:45.000Z</time>
      </trkpt>
      <trkpt lat="46.04173" lon="6.49083">
        <ele>1179.5999755859</ele>
        <time>2019-08-29T18:12:46.000Z</time>
      </trkpt>
      <trkpt lat="46.04173" lon="6.49079">
        <ele>1179.1999511719</ele>
        <time>2019-08-29T18:12:49.000Z</time>
      </trkpt>
      <trkpt lat="46.04173" lon="6.49077">
        <ele>1179.1999511719</ele>
        <time>2019-08-29T18:12:51.000Z</time>
      </trkpt>
      <trkpt lat="46.04174" lon="6.49075">
        <ele>1178.8000488281</ele>
        <time>2019-08-29T18:12:52.000Z</time>
      </trkpt>
      <trkpt lat="46.04175" lon="6.49071">
        <ele>1178.8000488281</ele>
        <time>2019-08-29T18:12:53.000Z</time>
      </trkpt>
      <trkpt lat="46.04177" lon="6.49067">
        <ele>1178.1999511719</ele>
        <time>2019-08-29T18:12:55.000Z</time>
      </trkpt>
      <trkpt lat="46.0418" lon="6.49062">
        <ele>1177.8000488281</ele>
        <time>2019-08-29T18:12:56.000Z</time>
      </trkpt>
      <trkpt lat="46.04181" lon="6.4906">
        <ele>1177.8000488281</ele>
        <time>2019-08-29T18:12:57.000Z</time>
      </trkpt>
      <trkpt lat="46.04182" lon="6.49059">
        <ele>1177.8000488281</ele>
        <time>2019-08-29T18:12:59.000Z</time>
      </trkpt>
      <trkpt lat="46.04185" lon="6.49054">
        <ele>1177.1999511719</ele>
        <time>2019-08-29T18:13:03.000Z</time>
      </trkpt>
      <trkpt lat="46.04187" lon="6.4905">
        <ele>1176.4000244141</ele>
        <time>2019-08-29T18:13:07.000Z</time>
      </trkpt>
      <trkpt lat="46.04189" lon="6.49048">
        <ele>1175.8000488281</ele>
        <time>2019-08-29T18:13:10.000Z</time>
      </trkpt>
      <trkpt lat="46.0419" lon="6.49046">
        <ele>1175.4000244141</ele>
        <time>2019-08-29T18:13:11.000Z</time>
      </trkpt>
      <trkpt lat="46.04193" lon="6.49043">
        <ele>1174.5999755859</ele>
        <time>2019-08-29T18:13:12.000Z</time>
      </trkpt>
      <trkpt lat="46.04194" lon="6.49041">
        <ele>1174.1999511719</ele>
        <time>2019-08-29T18:13:13.000Z</time>
      </trkpt>
      <trkpt lat="46.04196" lon="6.49037">
        <ele>1174</ele>
        <time>2019-08-29T18:13:14.000Z</time>
      </trkpt>
      <trkpt lat="46.04199" lon="6.49032">
        <ele>1173.4000244141</ele>
        <time>2019-08-29T18:13:15.000Z</time>
      </trkpt>
      <trkpt lat="46.04204" lon="6.49023">
        <ele>1172.8000488281</ele>
        <time>2019-08-29T18:13:17.000Z</time>
      </trkpt>
      <trkpt lat="46.04211" lon="6.49017">
        <ele>1172.1999511719</ele>
        <time>2019-08-29T18:13:19.000Z</time>
      </trkpt>
      <trkpt lat="46.04216" lon="6.49012">
        <ele>1171.8000488281</ele>
        <time>2019-08-29T18:13:22.000Z</time>
      </trkpt>
      <trkpt lat="46.04218" lon="6.4901">
        <ele>1171.5999755859</ele>
        <time>2019-08-29T18:13:23.000Z</time>
      </trkpt>
      <trkpt lat="46.04219" lon="6.49007">
        <ele>1171.5999755859</ele>
        <time>2019-08-29T18:13:24.000Z</time>
      </trkpt>
      <trkpt lat="46.0422" lon="6.49006">
        <ele>1171.4000244141</ele>
        <time>2019-08-29T18:13:26.000Z</time>
      </trkpt>
      <trkpt lat="46.0422" lon="6.49005">
        <ele>1171.1999511719</ele>
        <time>2019-08-29T18:13:29.000Z</time>
      </trkpt>
      <trkpt lat="46.04221" lon="6.49004">
        <ele>1171.1999511719</ele>
        <time>2019-08-29T18:13:30.000Z</time>
      </trkpt>
      <trkpt lat="46.04221" lon="6.49001">
        <ele>1170.8000488281</ele>
        <time>2019-08-29T18:13:33.000Z</time>
      </trkpt>
      <trkpt lat="46.0422" lon="6.48998">
        <ele>1169.8000488281</ele>
        <time>2019-08-29T18:13:35.000Z</time>
      </trkpt>
      <trkpt lat="46.0422" lon="6.48993">
        <ele>1168.5999755859</ele>
        <time>2019-08-29T18:13:36.000Z</time>
      </trkpt>
      <trkpt lat="46.0422" lon="6.48991">
        <ele>1168.1999511719</ele>
        <time>2019-08-29T18:13:38.000Z</time>
      </trkpt>
      <trkpt lat="46.0422" lon="6.48989">
        <ele>1168</ele>
        <time>2019-08-29T18:13:41.000Z</time>
      </trkpt>
      <trkpt lat="46.04219" lon="6.48984">
        <ele>1167.1999511719</ele>
        <time>2019-08-29T18:13:42.000Z</time>
      </trkpt>
      <trkpt lat="46.04218" lon="6.48981">
        <ele>1166.1999511719</ele>
        <time>2019-08-29T18:13:43.000Z</time>
      </trkpt>
      <trkpt lat="46.04218" lon="6.4898">
        <ele>1166</ele>
        <time>2019-08-29T18:13:45.000Z</time>
      </trkpt>
      <trkpt lat="46.04215" lon="6.48975">
        <ele>1165.8000488281</ele>
        <time>2019-08-29T18:13:46.000Z</time>
      </trkpt>
      <trkpt lat="46.04214" lon="6.48972">
        <ele>1165.1999511719</ele>
        <time>2019-08-29T18:13:47.000Z</time>
      </trkpt>
      <trkpt lat="46.04213" lon="6.4897">
        <ele>1164.1999511719</ele>
        <time>2019-08-29T18:13:49.000Z</time>
      </trkpt>
      <trkpt lat="46.04211" lon="6.48967">
        <ele>1162.5999755859</ele>
        <time>2019-08-29T18:13:53.000Z</time>
      </trkpt>
      <trkpt lat="46.04207" lon="6.48965">
        <ele>1161.5999755859</ele>
        <time>2019-08-29T18:13:54.000Z</time>
      </trkpt>
      <trkpt lat="46.04206" lon="6.48964">
        <ele>1161.1999511719</ele>
        <time>2019-08-29T18:13:55.000Z</time>
      </trkpt>
      <trkpt lat="46.04204" lon="6.48963">
        <ele>1161</ele>
        <time>2019-08-29T18:13:56.000Z</time>
      </trkpt>
      <trkpt lat="46.04202" lon="6.48962">
        <ele>1160.5999755859</ele>
        <time>2019-08-29T18:13:57.000Z</time>
      </trkpt>
      <trkpt lat="46.04201" lon="6.48961">
        <ele>1160.4000244141</ele>
        <time>2019-08-29T18:13:59.000Z</time>
      </trkpt>
      <trkpt lat="46.042" lon="6.48961">
        <ele>1160.1999511719</ele>
        <time>2019-08-29T18:14:02.000Z</time>
      </trkpt>
      <trkpt lat="46.04198" lon="6.48961">
        <ele>1160.1999511719</ele>
        <time>2019-08-29T18:14:04.000Z</time>
      </trkpt>
      <trkpt lat="46.04193" lon="6.4896">
        <ele>1159.4000244141</ele>
        <time>2019-08-29T18:14:08.000Z</time>
      </trkpt>
      <trkpt lat="46.04191" lon="6.48959">
        <ele>1159</ele>
        <time>2019-08-29T18:14:09.000Z</time>
      </trkpt>
      <trkpt lat="46.0419" lon="6.48958">
        <ele>1158.4000244141</ele>
        <time>2019-08-29T18:14:12.000Z</time>
      </trkpt>
      <trkpt lat="46.04189" lon="6.48957">
        <ele>1157.8000488281</ele>
        <time>2019-08-29T18:14:13.000Z</time>
      </trkpt>
      <trkpt lat="46.04188" lon="6.48956">
        <ele>1157.4000244141</ele>
        <time>2019-08-29T18:14:17.000Z</time>
      </trkpt>
      <trkpt lat="46.04186" lon="6.48954">
        <ele>1156.8000488281</ele>
        <time>2019-08-29T18:14:20.000Z</time>
      </trkpt>
      <trkpt lat="46.04182" lon="6.48951">
        <ele>1156.4000244141</ele>
        <time>2019-08-29T18:14:23.000Z</time>
      </trkpt>
      <trkpt lat="46.04179" lon="6.48947">
        <ele>1155.8000488281</ele>
        <time>2019-08-29T18:14:25.000Z</time>
      </trkpt>
      <trkpt lat="46.04175" lon="6.48942">
        <ele>1154.8000488281</ele>
        <time>2019-08-29T18:14:28.000Z</time>
      </trkpt>
      <trkpt lat="46.04175" lon="6.4894">
        <ele>1154.5999755859</ele>
        <time>2019-08-29T18:14:29.000Z</time>
      </trkpt>
      <trkpt lat="46.04172" lon="6.48936">
        <ele>1154</ele>
        <time>2019-08-29T18:14:31.000Z</time>
      </trkpt>
      <trkpt lat="46.04171" lon="6.48934">
        <ele>1153.5999755859</ele>
        <time>2019-08-29T18:14:33.000Z</time>
      </trkpt>
      <trkpt lat="46.04167" lon="6.48927">
        <ele>1152.4000244141</ele>
        <time>2019-08-29T18:14:34.000Z</time>
      </trkpt>
      <trkpt lat="46.04164" lon="6.48922">
        <ele>1151.1999511719</ele>
        <time>2019-08-29T18:14:36.000Z</time>
      </trkpt>
      <trkpt lat="46.04161" lon="6.48919">
        <ele>1150</ele>
        <time>2019-08-29T18:14:41.000Z</time>
      </trkpt>
      <trkpt lat="46.04159" lon="6.48918">
        <ele>1149.5999755859</ele>
        <time>2019-08-29T18:14:43.000Z</time>
      </trkpt>
      <trkpt lat="46.04155" lon="6.48917">
        <ele>1149.4000244141</ele>
        <time>2019-08-29T18:14:45.000Z</time>
      </trkpt>
      <trkpt lat="46.04154" lon="6.48917">
        <ele>1149.1999511719</ele>
        <time>2019-08-29T18:14:47.000Z</time>
      </trkpt>
      <trkpt lat="46.04152" lon="6.48916">
        <ele>1149</ele>
        <time>2019-08-29T18:14:48.000Z</time>
      </trkpt>
      <trkpt lat="46.04149" lon="6.48917">
        <ele>1147.5999755859</ele>
        <time>2019-08-29T18:14:52.000Z</time>
      </trkpt>
      <trkpt lat="46.04149" lon="6.48917">
        <ele>1147.1999511719</ele>
        <time>2019-08-29T18:14:55.000Z</time>
      </trkpt>
      <trkpt lat="46.04147" lon="6.48916">
        <ele>1147</ele>
        <time>2019-08-29T18:14:59.000Z</time>
      </trkpt>
      <trkpt lat="46.04141" lon="6.48915">
        <ele>1147</ele>
        <time>2019-08-29T18:15:00.000Z</time>
      </trkpt>
      <trkpt lat="46.04138" lon="6.48915">
        <ele>1146.5999755859</ele>
        <time>2019-08-29T18:15:01.000Z</time>
      </trkpt>
      <trkpt lat="46.04135" lon="6.48914">
        <ele>1145.5999755859</ele>
        <time>2019-08-29T18:15:02.000Z</time>
      </trkpt>
      <trkpt lat="46.04133" lon="6.48913">
        <ele>1144.8000488281</ele>
        <time>2019-08-29T18:15:03.000Z</time>
      </trkpt>
      <trkpt lat="46.04131" lon="6.48913">
        <ele>1144.4000244141</ele>
        <time>2019-08-29T18:15:05.000Z</time>
      </trkpt>
      <trkpt lat="46.04127" lon="6.48911">
        <ele>1143.8000488281</ele>
        <time>2019-08-29T18:15:06.000Z</time>
      </trkpt>
      <trkpt lat="46.04123" lon="6.48909">
        <ele>1143.1999511719</ele>
        <time>2019-08-29T18:15:09.000Z</time>
      </trkpt>
      <trkpt lat="46.04118" lon="6.48902">
        <ele>1142.5999755859</ele>
        <time>2019-08-29T18:15:10.000Z</time>
      </trkpt>
      <trkpt lat="46.04117" lon="6.489">
        <ele>1142.4000244141</ele>
        <time>2019-08-29T18:15:11.000Z</time>
      </trkpt>
      <trkpt lat="46.04117" lon="6.48897">
        <ele>1142.1999511719</ele>
        <time>2019-08-29T18:15:13.000Z</time>
      </trkpt>
      <trkpt lat="46.04119" lon="6.48894">
        <ele>1142.1999511719</ele>
        <time>2019-08-29T18:15:16.000Z</time>
      </trkpt>
      <trkpt lat="46.0412" lon="6.48891">
        <ele>1141.8000488281</ele>
        <time>2019-08-29T18:15:17.000Z</time>
      </trkpt>
      <trkpt lat="46.04123" lon="6.48887">
        <ele>1141.1999511719</ele>
        <time>2019-08-29T18:15:18.000Z</time>
      </trkpt>
      <trkpt lat="46.04125" lon="6.48885">
        <ele>1141</ele>
        <time>2019-08-29T18:15:20.000Z</time>
      </trkpt>
      <trkpt lat="46.04128" lon="6.4888">
        <ele>1140.4000244141</ele>
        <time>2019-08-29T18:15:21.000Z</time>
      </trkpt>
      <trkpt lat="46.0413" lon="6.48878">
        <ele>1140.1999511719</ele>
        <time>2019-08-29T18:15:24.000Z</time>
      </trkpt>
      <trkpt lat="46.04131" lon="6.48876">
        <ele>1140</ele>
        <time>2019-08-29T18:15:25.000Z</time>
      </trkpt>
      <trkpt lat="46.04135" lon="6.48873">
        <ele>1139.5999755859</ele>
        <time>2019-08-29T18:15:26.000Z</time>
      </trkpt>
      <trkpt lat="46.04138" lon="6.48867">
        <ele>1139.1999511719</ele>
        <time>2019-08-29T18:15:30.000Z</time>
      </trkpt>
      <trkpt lat="46.04139" lon="6.48864">
        <ele>1139</ele>
        <time>2019-08-29T18:15:34.000Z</time>
      </trkpt>
      <trkpt lat="46.0414" lon="6.48862">
        <ele>1138.8000488281</ele>
        <time>2019-08-29T18:15:35.000Z</time>
      </trkpt>
      <trkpt lat="46.04142" lon="6.48857">
        <ele>1138</ele>
        <time>2019-08-29T18:15:37.000Z</time>
      </trkpt>
      <trkpt lat="46.04143" lon="6.48855">
        <ele>1137.4000244141</ele>
        <time>2019-08-29T18:15:40.000Z</time>
      </trkpt>
      <trkpt lat="46.04146" lon="6.48851">
        <ele>1136.8000488281</ele>
        <time>2019-08-29T18:15:41.000Z</time>
      </trkpt>
      <trkpt lat="46.04147" lon="6.4885">
        <ele>1136.5999755859</ele>
        <time>2019-08-29T18:15:42.000Z</time>
      </trkpt>
      <trkpt lat="46.04148" lon="6.48849">
        <ele>1136.4000244141</ele>
        <time>2019-08-29T18:15:44.000Z</time>
      </trkpt>
      <trkpt lat="46.04154" lon="6.48846">
        <ele>1135.4000244141</ele>
        <time>2019-08-29T18:15:45.000Z</time>
      </trkpt>
      <trkpt lat="46.04159" lon="6.48844">
        <ele>1134.4000244141</ele>
        <time>2019-08-29T18:15:46.000Z</time>
      </trkpt>
      <trkpt lat="46.0416" lon="6.48844">
        <ele>1134.1999511719</ele>
        <time>2019-08-29T18:15:48.000Z</time>
      </trkpt>
      <trkpt lat="46.04163" lon="6.48841">
        <ele>1133.8000488281</ele>
        <time>2019-08-29T18:15:50.000Z</time>
      </trkpt>
      <trkpt lat="46.04165" lon="6.48835">
        <ele>1133.1999511719</ele>
        <time>2019-08-29T18:15:51.000Z</time>
      </trkpt>
      <trkpt lat="46.04167" lon="6.48834">
        <ele>1133</ele>
        <time>2019-08-29T18:15:52.000Z</time>
      </trkpt>
      <trkpt lat="46.04168" lon="6.48833">
        <ele>1132.8000488281</ele>
        <time>2019-08-29T18:15:55.000Z</time>
      </trkpt>
      <trkpt lat="46.04171" lon="6.4883">
        <ele>1132.1999511719</ele>
        <time>2019-08-29T18:15:56.000Z</time>
      </trkpt>
      <trkpt lat="46.04172" lon="6.48829">
        <ele>1132.1999511719</ele>
        <time>2019-08-29T18:15:58.000Z</time>
      </trkpt>
      <trkpt lat="46.04173" lon="6.48828">
        <ele>1132</ele>
        <time>2019-08-29T18:15:59.000Z</time>
      </trkpt>
      <trkpt lat="46.04174" lon="6.48826">
        <ele>1131.5999755859</ele>
        <time>2019-08-29T18:16:01.000Z</time>
      </trkpt>
      <trkpt lat="46.04174" lon="6.48825">
        <ele>1131.1999511719</ele>
        <time>2019-08-29T18:16:03.000Z</time>
      </trkpt>
      <trkpt lat="46.04173" lon="6.48824">
        <ele>1131</ele>
        <time>2019-08-29T18:16:04.000Z</time>
      </trkpt>
      <trkpt lat="46.04172" lon="6.48823">
        <ele>1130.8000488281</ele>
        <time>2019-08-29T18:16:06.000Z</time>
      </trkpt>
      <trkpt lat="46.04169" lon="6.48819">
        <ele>1130.1999511719</ele>
        <time>2019-08-29T18:16:07.000Z</time>
      </trkpt>
      <trkpt lat="46.04167" lon="6.48819">
        <ele>1129.8000488281</ele>
        <time>2019-08-29T18:16:09.000Z</time>
      </trkpt>
      <trkpt lat="46.04164" lon="6.48818">
        <ele>1129.4000244141</ele>
        <time>2019-08-29T18:16:10.000Z</time>
      </trkpt>
      <trkpt lat="46.04163" lon="6.48818">
        <ele>1129.1999511719</ele>
        <time>2019-08-29T18:16:11.000Z</time>
      </trkpt>
      <trkpt lat="46.0416" lon="6.48817">
        <ele>1128.8000488281</ele>
        <time>2019-08-29T18:16:12.000Z</time>
      </trkpt>
      <trkpt lat="46.04158" lon="6.48816">
        <ele>1128.5999755859</ele>
        <time>2019-08-29T18:16:14.000Z</time>
      </trkpt>
      <trkpt lat="46.04156" lon="6.48816">
        <ele>1128.4000244141</ele>
        <time>2019-08-29T18:16:16.000Z</time>
      </trkpt>
      <trkpt lat="46.04154" lon="6.48816">
        <ele>1127.8000488281</ele>
        <time>2019-08-29T18:16:18.000Z</time>
      </trkpt>
      <trkpt lat="46.04153" lon="6.48816">
        <ele>1127.1999511719</ele>
        <time>2019-08-29T18:16:19.000Z</time>
      </trkpt>
      <trkpt lat="46.04151" lon="6.48814">
        <ele>1126.1999511719</ele>
        <time>2019-08-29T18:16:21.000Z</time>
      </trkpt>
      <trkpt lat="46.04149" lon="6.48813">
        <ele>1126</ele>
        <time>2019-08-29T18:16:23.000Z</time>
      </trkpt>
      <trkpt lat="46.04148" lon="6.48811">
        <ele>1125.8000488281</ele>
        <time>2019-08-29T18:16:25.000Z</time>
      </trkpt>
      <trkpt lat="46.04147" lon="6.48809">
        <ele>1125.5999755859</ele>
        <time>2019-08-29T18:16:29.000Z</time>
      </trkpt>
      <trkpt lat="46.04144" lon="6.48806">
        <ele>1125.1999511719</ele>
        <time>2019-08-29T18:16:31.000Z</time>
      </trkpt>
      <trkpt lat="46.04141" lon="6.48802">
        <ele>1124.8000488281</ele>
        <time>2019-08-29T18:16:32.000Z</time>
      </trkpt>
      <trkpt lat="46.04139" lon="6.48798">
        <ele>1124.5999755859</ele>
        <time>2019-08-29T18:16:35.000Z</time>
      </trkpt>
      <trkpt lat="46.04139" lon="6.48796">
        <ele>1124.1999511719</ele>
        <time>2019-08-29T18:16:37.000Z</time>
      </trkpt>
      <trkpt lat="46.04139" lon="6.48791">
        <ele>1123.8000488281</ele>
        <time>2019-08-29T18:16:38.000Z</time>
      </trkpt>
      <trkpt lat="46.0414" lon="6.48785">
        <ele>1123.1999511719</ele>
        <time>2019-08-29T18:16:40.000Z</time>
      </trkpt>
      <trkpt lat="46.04141" lon="6.4878">
        <ele>1122.5999755859</ele>
        <time>2019-08-29T18:16:42.000Z</time>
      </trkpt>
      <trkpt lat="46.04139" lon="6.48767">
        <ele>1121.4000244141</ele>
        <time>2019-08-29T18:16:44.000Z</time>
      </trkpt>
      <trkpt lat="46.04139" lon="6.48765">
        <ele>1120.8000488281</ele>
        <time>2019-08-29T18:16:45.000Z</time>
      </trkpt>
      <trkpt lat="46.04139" lon="6.48764">
        <ele>1120.4000244141</ele>
        <time>2019-08-29T18:16:47.000Z</time>
      </trkpt>
      <trkpt lat="46.04137" lon="6.48759">
        <ele>1119.4000244141</ele>
        <time>2019-08-29T18:16:49.000Z</time>
      </trkpt>
      <trkpt lat="46.04137" lon="6.48756">
        <ele>1119</ele>
        <time>2019-08-29T18:16:55.000Z</time>
      </trkpt>
      <trkpt lat="46.04136" lon="6.48755">
        <ele>1118.8000488281</ele>
        <time>2019-08-29T18:16:57.000Z</time>
      </trkpt>
      <trkpt lat="46.04135" lon="6.48752">
        <ele>1118.1999511719</ele>
        <time>2019-08-29T18:17:00.000Z</time>
      </trkpt>
      <trkpt lat="46.04133" lon="6.48752">
        <ele>1117.8000488281</ele>
        <time>2019-08-29T18:17:02.000Z</time>
      </trkpt>
      <trkpt lat="46.0413" lon="6.48753">
        <ele>1117.1999511719</ele>
        <time>2019-08-29T18:17:07.000Z</time>
      </trkpt>
      <trkpt lat="46.0413" lon="6.48754">
        <ele>1116.5999755859</ele>
        <time>2019-08-29T18:17:12.000Z</time>
      </trkpt>
      <trkpt lat="46.04128" lon="6.48757">
        <ele>1116</ele>
        <time>2019-08-29T18:17:18.000Z</time>
      </trkpt>
      <trkpt lat="46.04126" lon="6.48761">
        <ele>1115.5999755859</ele>
        <time>2019-08-29T18:17:19.000Z</time>
      </trkpt>
      <trkpt lat="46.04121" lon="6.48773">
        <ele>1116.1999511719</ele>
        <time>2019-08-29T18:17:24.000Z</time>
      </trkpt>
      <trkpt lat="46.04119" lon="6.48772">
        <ele>1116.1999511719</ele>
        <time>2019-08-29T18:17:26.000Z</time>
      </trkpt>
      <trkpt lat="46.04118" lon="6.4877">
        <ele>1116.1999511719</ele>
        <time>2019-08-29T18:17:35.000Z</time>
      </trkpt>
      <trkpt lat="46.04118" lon="6.48771">
        <ele>1115.8000488281</ele>
        <time>2019-08-29T18:17:36.000Z</time>
      </trkpt>
      <trkpt lat="46.04117" lon="6.48769">
        <ele>1115.5999755859</ele>
      </trkpt>
      <trkpt lat="46.04121" lon="6.48767">
        <ele>1115.5999755859</ele>
      </trkpt>
      <trkpt lat="46.0412" lon="6.4877">
        <ele>1115.8000488281</ele>
      </trkpt>
      <trkpt lat="46.04119" lon="6.4877">
        <ele>1116</ele>
      </trkpt>
      <trkpt lat="46.04118" lon="6.4877">
        <ele>1116</ele>
      </trkpt>
      <trkpt lat="46.04118" lon="6.4877">
        <ele>1115.8000488281</ele>
      </trkpt>
      <trkpt lat="46.04116" lon="6.48771">
        <ele>1115.5999755859</ele>
      </trkpt>
      <trkpt lat="46.04117" lon="6.48771">
        <ele>1114.1999511719</ele>
      </trkpt>
    </trkseg>
  </trk>
</gpx>